[[{"header":{"parameterUnit":"m.s-1","parameterCategory":1,"la1":30.6,"la2":29.2853,"lo1":-89.7004,"lo2":-87.6739,"dy":0.0162,"dx":0.0183,"nx":112,"ny":82,"refTime":"2023-04-24T18:00:00:Z","depth":0,"parameterNumber":2,"parameterNumberName":"U-component_of_WINDS"},"data":[0.0,0.0,0.0,0.0,0.0,0.0,0.0,0.0,0.0,0.0,0.0,0.0,0.0,0.0,0.0,0.0,0.0,0.0,0.0,0.0,0.0,0.0,0.0,0.0,0.0,0.0,0.0,0.0,0.0,0.0,0.0,0.0,0.0,0.0,0.0,0.0,0.0,0.0,0.0,0.0,0.0,0.0,0.0,0.0,0.0,0.0,0.0,0.0,0.0,0.0,0.0,0.0,0.0,0.0,0.0,0.0,0.0,0.0,0.0,0.0,0.0,0.0,0.0,0.0,0.0,0.0,0.0,0.0,0.0,0.0,0.0,0.0,0.0,0.0,0.0,0.0,0.0,0.0,0.0,0.0,0.0,0.0,0.0,0.0,0.0,0.0,0.0,0.0,0.0,0.0,-1.424,-1.4586,-1.5954,-1.696,-1.7258,-1.7569,-1.7355,-1.6164,0.0,0.0,0.0,0.0,0.0,0.0,0.0,0.0,0.0,0.0,0.0,0.0,0.0,0.0,0.0,0.0,0.0,0.0,0.0,0.0,0.0,0.0,0.0,0.0,0.0,0.0,0.0,0.0,0.0,0.0,0.0,0.0,0.0,0.0,0.0,0.0,0.0,0.0,0.0,0.0,0.0,0.0,0.0,0.0,0.0,0.0,0.0,0.0,0.0,0.0,0.0,0.0,0.0,0.0,0.0,0.0,0.0,0.0,0.0,0.0,0.0,0.0,0.0,0.0,0.0,0.0,0.0,0.0,0.0,0.0,0.0,0.0,0.0,0.0,0.0,0.0,0.0,0.0,0.0,0.0,0.0,0.0,0.0,0.0,0.0,0.0,0.0,0.0,0.0,0.0,0.0,0.0,0.0,0.0,0.0,0.0,0.0,0.0,0.0,0.0,0.0,0.0,0.0,0.0,-1.4888,-1.6908,-1.8489,-1.951,-1.9958,-2.0213,-1.9583,-1.7744,0.0,0.0,0.0,0.0,0.0,0.0,0.0,0.0,0.0,0.0,0.0,0.0,0.0,0.0,0.0,0.0,0.0,0.0,0.0,0.0,0.0,0.0,0.0,0.0,0.0,0.0,0.0,0.0,0.0,0.0,0.0,0.0,0.0,0.0,0.0,0.0,0.0,0.0,0.0,0.0,0.0,0.0,0.0,0.0,0.0,0.0,0.0,0.0,0.0,0.0,0.0,0.0,0.0,0.0,0.0,0.0,0.0,0.0,0.0,0.0,0.0,0.0,0.0,0.0,0.0,0.0,0.0,0.0,0.0,0.0,0.0,0.0,0.0,0.0,0.0,0.0,0.0,0.0,0.0,0.0,0.0,0.0,0.0,0.0,0.0,0.0,0.0,0.0,0.0,0.0,0.0,0.0,0.0,0.0,0.0,0.0,0.0,0.0,0.0,0.0,0.0,0.0,0.0,-1.505,-1.5856,-1.8422,-1.9277,-1.9791,-2.0153,-2.0611,-2.0069,-1.8466,-1.8018,0.0,0.0,0.0,0.0,0.0,0.0,0.0,0.0,0.0,0.0,0.0,0.0,0.0,0.0,0.0,0.0,0.0,0.0,0.0,0.0,0.0,0.0,0.0,0.0,0.0,0.0,0.0,0.0,0.0,0.0,0.0,0.0,0.0,0.0,0.0,0.0,0.0,0.0,0.0,0.0,0.0,0.0,0.0,0.0,0.0,0.0,0.0,0.0,0.0,0.0,0.0,0.0,0.0,0.0,0.0,0.0,0.0,0.0,0.0,0.0,0.0,0.0,0.0,0.0,0.0,0.0,0.0,0.0,0.0,0.0,0.0,0.0,0.0,0.0,0.0,0.0,0.0,0.0,0.0,0.0,0.0,0.0,0.0,0.0,0.0,0.0,0.0,0.0,0.0,0.0,0.0,0.0,0.0,0.0,0.0,0.0,0.0,0.0,0.0,0.0,0.0,0.0,-1.6894,-1.7616,-1.9701,-2.0215,-2.0468,-2.0746,-2.1139,-2.0763,-1.9365,-1.9656,0.0,0.0,0.0,0.0,0.0,0.0,0.0,0.0,0.0,0.0,0.0,0.0,0.0,0.0,0.0,0.0,0.0,0.0,0.0,0.0,0.0,0.0,0.0,0.0,0.0,0.0,0.0,0.0,0.0,0.0,0.0,0.0,0.0,0.0,0.0,0.0,0.0,0.0,0.0,0.0,0.0,0.0,0.0,0.0,0.0,0.0,0.0,0.0,0.0,0.0,0.0,0.0,0.0,0.0,0.0,0.0,0.0,0.0,0.0,0.0,0.0,0.0,0.0,0.0,0.0,0.0,0.0,0.0,0.0,0.0,0.0,0.0,0.0,0.0,0.0,0.0,0.0,0.0,0.0,0.0,0.0,0.0,0.0,0.0,0.0,0.0,0.0,0.0,0.0,0.0,0.0,0.0,0.0,0.0,0.0,0.0,0.0,0.0,0.0,0.0,0.0,0.0,-1.8896,-2.0953,-2.1185,-2.2217,-2.3036,-2.3471,-2.3538,-2.2805,-2.0857,-2.0743,0.0,0.0,0.0,0.0,0.0,0.0,0.0,0.0,0.0,0.0,0.0,0.0,0.0,0.0,0.0,0.0,0.0,0.0,0.0,0.0,0.0,0.0,0.0,0.0,0.0,0.0,0.0,0.0,0.0,0.0,0.0,0.0,0.0,0.0,0.0,0.0,0.0,0.0,0.0,0.0,0.0,0.0,0.0,0.0,0.0,0.0,0.0,0.0,0.0,0.0,0.0,0.0,0.0,0.0,0.0,0.0,0.0,0.0,0.0,0.0,0.0,0.0,0.0,0.0,0.0,0.0,0.0,0.0,0.0,0.0,0.0,0.0,0.0,0.0,0.0,0.0,0.0,0.0,0.0,0.0,0.0,0.0,0.0,0.0,0.0,0.0,0.0,0.0,0.0,0.0,0.0,0.0,0.0,0.0,0.0,0.0,0.0,0.0,0.0,0.0,0.0,0.0,-1.9843,-2.1004,-2.2318,-2.2862,-2.3203,-2.3369,-2.3633,-2.3008,-2.1189,0.0,0.0,0.0,0.0,0.0,0.0,0.0,0.0,0.0,0.0,0.0,0.0,0.0,0.0,0.0,0.0,0.0,0.0,0.0,0.0,0.0,0.0,0.0,0.0,0.0,0.0,0.0,0.0,0.0,0.0,0.0,0.0,0.0,0.0,0.0,0.0,0.0,0.0,0.0,0.0,0.0,0.0,0.0,0.0,0.0,0.0,0.0,0.0,0.0,0.0,0.0,0.0,0.0,0.0,0.0,0.0,0.0,0.0,0.0,0.0,0.0,0.0,0.0,0.0,0.0,0.0,0.0,0.0,0.0,0.0,0.0,0.0,0.0,0.0,0.0,0.0,0.0,0.0,0.0,0.0,0.0,0.0,0.0,0.0,0.0,0.0,0.0,0.0,0.0,0.0,0.0,0.0,0.0,0.0,0.0,0.0,0.0,0.0,0.0,0.0,0.0,0.0,-1.9809,-2.0633,-2.155,-2.295,-2.3135,-2.3135,-2.3135,-2.3408,-2.291,-2.1338,0.0,0.0,0.0,0.0,0.0,0.0,0.0,0.0,0.0,0.0,0.0,0.0,0.0,0.0,0.0,0.0,0.0,0.0,0.0,0.0,0.0,0.0,0.0,0.0,0.0,0.0,0.0,0.0,0.0,0.0,0.0,0.0,0.0,0.0,0.0,0.0,0.0,0.0,0.0,0.0,0.0,0.0,0.0,0.0,0.0,0.0,0.0,0.0,0.0,0.0,0.0,0.0,0.0,0.0,0.0,0.0,0.0,0.0,0.0,0.0,0.0,0.0,0.0,0.0,0.0,0.0,0.0,0.0,0.0,0.0,0.0,0.0,0.0,0.0,0.0,0.0,0.0,0.0,0.0,0.0,0.0,0.0,0.0,0.0,0.0,0.0,0.0,0.0,0.0,0.0,0.0,0.0,0.0,0.0,0.0,0.0,0.0,0.0,0.0,0.0,0.0,0.0,-1.9195,-2.1465,-2.3135,-2.3135,-2.3135,-2.3135,-2.3135,-2.3135,-2.2588,0.0,0.0,0.0,0.0,0.0,0.0,0.0,0.0,0.0,0.0,0.0,0.0,0.0,0.0,0.0,0.0,0.0,0.0,0.0,0.0,0.0,0.0,0.0,0.0,0.0,0.0,0.0,0.0,0.0,0.0,0.0,0.0,0.0,0.0,0.0,0.0,0.0,0.0,0.0,0.0,0.0,0.0,0.0,0.0,0.0,0.0,0.0,0.0,0.0,0.0,0.0,0.0,0.0,0.0,0.0,0.0,0.0,0.0,0.0,0.0,0.0,0.0,0.0,0.0,0.0,0.0,0.0,0.0,0.0,0.0,0.0,0.0,0.0,0.0,0.0,0.0,0.0,0.0,0.0,0.0,0.0,0.0,0.0,0.0,0.0,0.0,0.0,0.0,0.0,0.0,0.0,0.0,0.0,0.0,0.0,0.0,0.0,0.0,0.0,0.0,0.0,0.0,0.0,-2.0079,-2.1903,-2.3135,-2.3135,-2.3135,-2.3135,-2.3135,-2.3135,-2.2461,-2.0869,0.0,0.0,0.0,0.0,0.0,0.0,0.0,0.0,0.0,0.0,0.0,0.0,0.0,0.0,0.0,0.0,0.0,0.0,0.0,0.0,0.0,0.0,0.0,0.0,0.0,0.0,0.0,0.0,0.0,0.0,0.0,0.0,0.0,0.0,0.0,0.0,0.0,0.0,0.0,0.0,0.0,0.0,0.0,0.0,0.0,0.0,0.0,0.0,0.0,0.0,0.0,0.0,0.0,0.0,0.0,0.0,0.0,0.0,0.0,0.0,0.0,0.0,0.0,0.0,0.0,0.0,0.0,0.0,0.0,0.0,0.0,0.0,0.0,0.0,0.0,0.0,0.0,0.0,0.0,0.0,0.0,0.0,0.0,0.0,0.0,0.0,0.0,0.0,0.0,0.0,0.0,0.0,0.0,0.0,0.0,0.0,0.0,0.0,0.0,0.0,0.0,0.0,-2.0566,-2.207,-2.3135,-2.3135,-2.3135,-2.3135,-2.3135,-2.3135,-2.2559,-2.1182,0.0,0.0,0.0,0.0,0.0,0.0,0.0,0.0,0.0,0.0,0.0,0.0,0.0,0.0,0.0,0.0,0.0,0.0,0.0,0.0,0.0,0.0,0.0,0.0,0.0,0.0,0.0,0.0,0.0,0.0,0.0,0.0,0.0,0.0,0.0,0.0,0.0,0.0,0.0,0.0,0.0,0.0,0.0,0.0,0.0,0.0,0.0,0.0,0.0,0.0,0.0,0.0,0.0,0.0,0.0,0.0,0.0,0.0,0.0,0.0,0.0,0.0,0.0,0.0,0.0,0.0,0.0,0.0,0.0,0.0,0.0,0.0,0.0,0.0,0.0,0.0,0.0,0.0,0.0,0.0,0.0,0.0,0.0,0.0,0.0,0.0,0.0,0.0,0.0,0.0,0.0,0.0,0.0,0.0,0.0,0.0,0.0,0.0,0.0,0.0,0.0,0.0,-2.0566,-2.207,-2.3135,-2.3135,-2.3135,-2.3135,-2.3135,-2.3135,-2.2783,-2.1934,0.0,0.0,0.0,0.0,0.0,0.0,0.0,0.0,0.0,0.0,0.0,0.0,0.0,0.0,0.0,0.0,0.0,0.0,0.0,0.0,0.0,0.0,0.0,0.0,0.0,0.0,0.0,0.0,0.0,0.0,0.0,0.0,0.0,0.0,0.0,0.0,0.0,0.0,0.0,0.0,0.0,0.0,0.0,0.0,0.0,0.0,0.0,0.0,0.0,0.0,0.0,0.0,0.0,0.0,0.0,0.0,0.0,0.0,0.0,0.0,-1.5682,-1.4769,0.0,0.0,0.0,0.0,0.0,0.0,0.0,0.0,0.0,0.0,0.0,0.0,0.0,0.0,0.0,0.0,0.0,0.0,0.0,0.0,0.0,0.0,0.0,0.0,0.0,0.0,0.0,0.0,0.0,0.0,0.0,0.0,0.0,0.0,0.0,0.0,0.0,0.0,0.0,0.0,-2.0566,-2.207,-2.3135,-2.3135,-2.3135,-2.3135,-2.3135,-2.3135,-2.2783,-2.1934,-2.1621,0.0,0.0,0.0,0.0,0.0,0.0,0.0,0.0,0.0,0.0,0.0,0.0,0.0,0.0,0.0,0.0,0.0,0.0,0.0,0.0,0.0,0.0,0.0,0.0,0.0,0.0,0.0,0.0,0.0,0.0,0.0,0.0,0.0,0.0,0.0,0.0,0.0,0.0,0.0,0.0,0.0,0.0,0.0,0.0,0.0,0.0,0.0,0.0,0.0,0.0,0.0,0.0,0.0,0.0,0.0,0.0,0.0,0.0,0.0,-1.7167,-1.663,0.0,0.0,0.0,0.0,0.0,0.0,0.0,0.0,0.0,0.0,0.0,0.0,0.0,0.0,0.0,0.0,0.0,0.0,0.0,0.0,0.0,0.0,0.0,0.0,0.0,0.0,0.0,0.0,0.0,0.0,0.0,0.0,0.0,0.0,0.0,0.0,0.0,0.0,0.0,0.0,-2.0566,-2.207,-2.3135,-2.3135,-2.3135,-2.3135,-2.3135,-2.3135,-2.2949,-2.2519,-2.1914,0.0,0.0,0.0,0.0,0.0,0.0,0.0,0.0,0.0,0.0,0.0,0.0,0.0,0.0,0.0,0.0,0.0,0.0,0.0,0.0,0.0,0.0,0.0,0.0,0.0,0.0,0.0,0.0,0.0,0.0,0.0,0.0,0.0,0.0,0.0,0.0,0.0,0.0,0.0,0.0,0.0,0.0,0.0,0.0,0.0,0.0,0.0,0.0,0.0,0.0,0.0,0.0,0.0,-1.53,-1.6437,-1.7326,-1.8057,-1.8779,-1.937,-1.8802,-1.8608,-1.8675,-1.7539,0.0,0.0,0.0,0.0,0.0,0.0,0.0,0.0,0.0,0.0,0.0,0.0,0.0,0.0,0.0,0.0,0.0,0.0,0.0,0.0,0.0,0.0,-1.7548,-1.6956,-1.8159,-1.9299,-1.9074,0.0,0.0,0.0,0.0,0.0,0.0,0.0,0.0,0.0,0.0,0.0,-2.0781,-2.2168,-2.3135,-2.3135,-2.3135,-2.3135,-2.3135,-2.3135,-2.3135,-2.3135,-2.2148,-2.1504,0.0,0.0,0.0,0.0,0.0,0.0,0.0,0.0,0.0,0.0,0.0,0.0,0.0,0.0,0.0,0.0,0.0,0.0,0.0,0.0,0.0,0.0,0.0,0.0,0.0,0.0,0.0,0.0,0.0,0.0,0.0,0.0,-0.7083,-0.8049,0.0,0.0,0.0,0.0,0.0,0.0,0.0,0.0,0.0,0.0,0.0,0.0,0.0,-1.3166,-1.3213,-1.4438,-1.5065,-1.5065,-1.6443,-1.7172,-1.7334,-1.8417,-1.9119,-1.9616,-2.0395,0.0,-1.7565,-1.7772,0.0,0.0,0.0,0.0,0.0,0.0,0.0,0.0,0.0,0.0,0.0,0.0,0.0,0.0,0.0,0.0,0.0,0.0,0.0,0.0,0.0,0.0,-1.9468,-2.0359,-2.1614,-2.2505,-2.2447,-2.0643,-1.9246,-1.9927,-2.0149,-1.9965,0.0,0.0,0.0,0.0,0.0,0.0,-2.1611,-2.2549,-2.3135,-2.3135,-2.3135,-2.3135,-2.3135,-2.3135,-2.3135,-2.3135,-2.2978,-2.2559,-2.1836,-2.1689,0.0,0.0,0.0,0.0,0.0,0.0,0.0,0.0,0.0,0.0,0.0,0.0,0.0,0.0,0.0,0.0,0.0,0.0,0.0,0.0,0.0,0.0,0.0,0.0,0.0,0.0,0.0,0.0,0.0,-0.7496,-0.7934,-0.8884,-0.9518,-0.9958,0.0,0.0,0.0,0.0,0.0,0.0,0.0,0.0,0.0,-1.5222,-1.5309,-1.5321,-1.5518,-1.6147,-1.646,-1.646,-1.7662,-1.823,-1.831,-1.9432,-2.0017,-2.0188,-2.0682,-2.0172,-1.9204,-1.9387,-1.9118,-1.844,0.0,0.0,0.0,0.0,-1.8192,-1.8428,-1.8594,-1.8012,-1.7046,-1.624,0.0,0.0,0.0,0.0,0.0,0.0,0.0,-1.7663,-1.779,-1.935,-2.0953,-2.1193,-2.2217,-2.3135,-2.3135,-2.2188,-2.1358,-2.1316,-2.0908,-2.0293,-1.9434,-1.9482,0.0,0.0,0.0,-2.0703,-2.1094,-2.1894,-2.2432,-2.2432,-2.2432,-2.2432,-2.2432,-2.2432,-2.2539,-2.2773,-2.2783,-2.2734,-2.2598,-2.2139,-2.1435,0.0,0.0,0.0,0.0,0.0,0.0,0.0,0.0,0.0,0.0,0.0,0.0,0.0,0.0,0.0,0.0,0.0,0.0,0.0,0.0,0.0,0.0,0.0,0.0,0.0,0.0,0.0,0.0,-0.8449,-0.9054,-0.9943,-1.0785,-1.136,0.0,0.0,0.0,0.0,0.0,0.0,-1.4844,-1.5148,-1.585,-1.6984,-1.6992,-1.7133,-1.7334,-1.7577,-1.7747,-1.7747,-1.8868,-1.9441,-1.9441,-2.0245,-2.0566,-2.0566,-2.0566,-2.0566,-2.0576,-2.0684,-2.0596,-2.0352,-1.9824,-1.9482,-1.9316,-1.9531,-1.9814,-2.0052,-2.0083,-1.9459,-1.8554,-1.768,-1.6324,-1.4881,-1.4253,0.0,0.0,0.0,0.0,-1.8726,-1.8905,-2.0138,-2.1427,-2.1488,-2.2178,-2.2822,-2.2822,-2.2646,-2.2393,-2.21,-2.1514,-2.0762,-1.9785,-1.9873,0.0,-1.9228,-1.9951,-2.0644,-2.0879,-2.1475,-2.1885,-2.1885,-2.1885,-2.1885,-2.1885,-2.1885,-2.2021,-2.2334,-2.2353,-2.2539,-2.2959,-2.2373,-2.1943,-2.1728,0.0,0.0,0.0,0.0,0.0,0.0,0.0,0.0,0.0,0.0,0.0,0.0,0.0,0.0,0.0,0.0,0.0,0.0,0.0,0.0,0.0,0.0,0.0,0.0,0.0,0.0,0.0,0.0,0.0,-1.133,-1.1677,0.0,0.0,0.0,0.0,-1.3186,-1.4109,-1.4859,-1.5253,-1.6205,-1.6921,-1.7301,-1.7309,-1.7317,-1.7342,-1.839,-1.8877,-1.8957,-2.0001,-2.0489,-2.0489,-2.0566,-2.0566,-2.0566,-2.0566,-2.0566,-2.0596,-2.1025,-2.0703,-1.999,-2.0352,-2.0,-1.9385,-2.0195,-2.0518,-2.0654,-2.1461,-2.0987,-1.9826,-1.9255,-1.715,-1.4697,-1.4248,-1.4321,0.0,0.0,-1.6437,-1.7671,-1.9494,-2.0036,-2.04,-2.1582,-2.1943,-2.1953,-2.1953,-2.1289,-2.1045,-2.2246,-2.2441,-2.2012,-2.0723,0.0,-2.0518,-2.0478,-2.0527,-2.0869,-2.1709,-2.1855,-2.1885,-2.1885,-2.1885,-2.1885,-2.1885,-2.1885,-2.1894,-2.1914,-2.1924,-2.2109,-2.2519,-2.25,-2.21,-2.1279,-2.032,0.0,0.0,0.0,0.0,0.0,0.0,0.0,0.0,0.0,0.0,0.0,0.0,0.0,0.0,0.0,0.0,0.0,0.0,0.0,0.0,0.0,0.0,0.0,0.0,0.0,0.0,0.0,0.0,-1.2418,-1.2794,0.0,-1.316,-1.3999,-1.4583,-1.4583,-1.5713,-1.6765,-1.7615,-1.8021,-1.8637,-1.9423,-1.9432,-1.9432,-1.9432,-1.9835,-2.0001,-2.0001,-2.0401,-2.0566,-2.0566,-2.0566,-2.0566,-2.0566,-2.0566,-2.0566,-2.0576,-2.0732,-2.0615,-2.0352,-2.0508,-2.0381,-2.0146,-2.0459,-2.0752,-2.1045,-2.1357,-2.0357,-1.8709,-1.7017,-1.5769,-1.4877,-1.4757,-1.534,-1.6193,-1.7194,-1.828,-1.9428,-2.0838,-2.1182,-2.1358,-2.1802,-2.1885,-2.1885,-2.1885,-2.1641,-2.1465,-2.165,-2.1455,-2.1113,-2.0644,-2.0801,-2.081,-2.0234,-2.0391,-2.0684,-2.0996,-2.1035,-2.1035,-2.1035,-2.1035,-2.1035,-2.1035,-2.1035,-2.1162,-2.1445,-2.1465,-2.166,-2.209,-2.2373,-2.2015,-2.0912,-2.007,-1.8557,0.0,0.0,0.0,0.0,0.0,0.0,0.0,0.0,0.0,0.0,0.0,0.0,0.0,0.0,0.0,0.0,0.0,0.0,0.0,0.0,0.0,0.0,0.0,0.0,0.0,-1.0453,-1.1441,-1.3002,-1.3554,-1.3681,-1.3387,-1.4251,-1.5065,-1.5382,-1.6555,-1.7827,-1.8957,-1.9362,-1.9844,-2.0566,-2.0566,-2.0566,-2.0566,-2.0566,-2.0566,-2.0566,-2.0566,-2.0566,-2.0566,-2.0566,-2.0566,-2.0566,-2.0566,-2.0566,-2.0566,-2.0566,-2.0401,-2.0079,-2.0479,-2.0566,-2.0566,-2.0157,-2.027,-2.0429,-2.0018,-1.9106,-1.7714,-1.585,-1.5262,-1.5175,-1.4838,-1.5255,-1.6095,-1.7203,-1.8297,-1.9475,-2.0592,-2.1192,-2.1435,-2.1435,-2.1435,-2.1435,-2.1435,-2.1435,-2.1357,-2.1064,-2.0889,-2.0742,-2.0596,-2.081,-2.0713,-1.9834,-2.0195,-2.0459,-2.0166,-2.0391,-2.0566,-2.0566,-2.0566,-2.0566,-2.0566,-2.0303,-2.0381,-2.0967,-2.0742,-2.0908,-2.1641,-2.165,-2.1293,-2.0421,-1.9264,-1.7592,-1.5602,0.0,0.0,0.0,0.0,0.0,0.0,0.0,0.0,0.0,0.0,0.0,0.0,0.0,0.0,0.0,0.0,0.0,0.0,0.0,0.0,0.0,0.0,0.0,-0.9624,-1.1051,-1.2204,-1.3107,-1.3741,-1.3975,-1.3687,-1.3915,-1.4573,-1.5703,-1.6764,-1.7827,-1.8957,-2.0001,-2.0566,-2.0566,-2.0566,-2.0566,-2.0566,-2.0566,-2.0566,-2.0566,-2.0566,-2.0566,-2.0566,-2.0566,-2.0566,-2.0566,-2.0566,-2.0566,-2.0557,-2.0557,-1.9923,-1.9036,-2.0157,-2.0566,-2.0401,-1.9353,-1.8957,-1.8798,-1.7666,-1.7253,-1.709,-1.6026,-1.5613,-1.5455,-1.4412,-1.4088,-1.4328,-1.5379,-1.6437,-1.7496,-1.8718,-1.9756,-2.0566,-2.0566,-2.0566,-2.0566,-2.0566,-2.0566,-2.0566,-2.0566,-2.0918,-2.1074,-2.0635,-2.0566,-2.0283,-1.9453,-2.0029,0.0,-1.9434,-2.0059,-2.0557,-2.0527,-2.0527,-2.0527,-2.0527,-1.9766,-1.9648,-2.0508,-1.9785,-1.9893,-2.1162,-2.04,-1.9885,-1.982,-1.7863,-1.6095,-1.4502,0.0,0.0,0.0,0.0,0.0,0.0,0.0,0.0,0.0,0.0,0.0,0.0,0.0,0.0,0.0,0.0,0.0,0.0,0.0,0.0,0.0,-0.7187,-0.8448,-1.0073,-1.0626,-1.1697,-1.3598,-1.3988,-1.4055,-1.3975,-1.4768,-1.5703,-1.6764,-1.79,-1.9036,-2.0079,-2.0401,-2.0566,-2.0566,-2.0566,-2.0566,-2.0566,-2.0566,-2.0566,-2.0566,-2.0566,-2.0566,-2.0566,-2.0566,-2.0566,-2.0566,-2.0566,-2.0157,-1.9441,-1.9441,-1.8798,-1.7908,-1.9036,-1.8957,-1.8141,-1.7908,-1.7747,-1.7577,-1.6519,-1.6108,-1.5944,-1.4894,-1.4573,-1.4489,-1.4173,-1.4088,-1.4328,-1.5379,-1.5944,-1.6601,-1.847,-1.9204,-1.9599,-2.0401,-2.0566,-2.0566,-2.0566,-2.0566,-2.0566,-2.0566,-2.0664,-2.0713,-2.0586,-2.0566,-2.0488,-2.0254,-2.042,-2.0478,-2.0244,-2.042,-2.0332,-1.9707,-1.9639,-1.9639,-1.9639,-1.9424,-1.9648,-2.0508,-2.0342,-2.0381,-2.0732,-2.083,-2.0179,-1.8797,-1.6798,-1.5264,0.0,0.0,0.0,0.0,0.0,0.0,0.0,0.0,0.0,0.0,0.0,0.0,0.0,0.0,0.0,0.0,0.0,0.0,0.0,0.0,0.0,0.0,-0.7259,-0.8505,-1.0229,-1.0952,-1.1992,-1.3913,-1.4088,-1.4088,-1.4088,-1.465,-1.5628,-1.7172,-1.7908,-1.8948,-2.0489,-2.0566,-2.0566,-2.0566,-2.0566,-2.0566,-2.0566,-2.0566,-2.0566,-2.0566,-2.0566,-2.0566,-2.0566,-2.0566,-2.0323,-1.9923,-1.9923,-1.9274,-1.831,-1.831,-1.7658,-1.6764,0.0,0.0,0.0,0.0,-1.6363,-1.5876,-1.522,-1.5061,-1.4894,-1.4334,-1.4088,-1.4088,-1.4088,-1.4088,-1.425,-1.481,-1.5379,-1.6026,-1.7245,-1.831,-1.9195,-1.9766,-2.0245,-2.0566,-2.0566,-2.0566,-2.0566,-2.0566,-2.0566,0.0,-2.0566,-2.0566,-2.0439,-2.0088,-2.0332,-2.0439,-2.0078,-2.0342,-2.0371,-1.9873,-1.9824,-1.9824,-1.9824,-1.9492,0.0,0.0,0.0,-1.9868,-1.9402,-1.8997,0.0,0.0,0.0,-1.4965,-1.4636,-1.4912,0.0,0.0,-1.4726,-1.4629,0.0,0.0,0.0,0.0,0.0,0.0,0.0,0.0,0.0,0.0,0.0,0.0,0.0,0.0,0.0,0.0,-0.7032,-0.8009,-1.0091,-1.1472,-1.2766,-1.3997,-1.4088,-1.4088,-1.4088,-1.4088,-1.4901,-1.6927,-1.709,-1.806,-2.0323,-2.0401,0.0,0.0,0.0,-2.0566,-2.0566,-2.0566,-2.0566,-2.0566,-2.0566,-2.0566,-2.0566,-2.0479,-1.9923,-1.8957,-1.8877,-1.8149,-1.709,-1.709,-1.6519,-1.5621,-1.6601,-1.6935,-1.6854,-1.5869,-1.4894,-1.4088,-1.4088,0.0,0.0,-1.4088,-1.4088,-1.4088,-1.4088,-1.4108,-1.4135,-1.4135,-1.4867,-1.559,-1.5673,-1.7196,-1.8638,-1.8798,-1.952,-2.0235,-2.0235,-2.0235,-2.0245,-2.0401,-2.0401,-2.0479,-2.0566,-2.0566,-2.0312,-1.9551,-2.0078,-2.0293,-1.9531,-2.0098,-2.0527,-2.043,-2.042,0.0,-2.042,-1.9727,-1.9648,-2.0508,-1.9778,-1.875,-1.7685,-1.6205,-1.5296,-1.4999,-1.4813,-1.4986,-1.5398,-1.5691,-1.5832,-1.5792,-1.4965,-1.4559,0.0,0.0,0.0,0.0,0.0,0.0,0.0,0.0,0.0,0.0,0.0,0.0,0.0,0.0,0.0,-0.6692,-0.7714,-0.8715,-0.9148,-1.1037,-1.2766,-1.3997,-1.4088,-1.4088,-1.4088,-1.4088,-1.4657,-1.5944,-1.6026,-1.7001,-1.9195,-1.9283,-1.9687,-2.0566,-2.0566,-2.0566,-2.0566,-2.0566,-2.0566,-2.0566,-2.0566,0.0,-2.0566,-1.9678,-1.9204,-1.8957,-1.8069,-1.7009,-1.6026,-1.6026,-1.5379,-1.4412,-1.4664,-1.4741,-1.4657,-1.4496,-1.425,-1.4088,-1.4088,-1.4088,-1.4088,-1.4088,-1.4088,-1.4088,-1.4088,-1.4249,0.0,-1.4436,-1.4602,-1.4933,-1.5837,-1.6141,-1.6593,-1.7415,-1.7827,-1.79,-1.79,-1.79,-1.8221,-1.9116,-1.9283,-1.9599,-2.0479,-2.0566,-2.0508,-2.0342,-2.0459,-2.0508,-2.0342,-2.0459,-2.0303,-1.9609,-1.9541,-1.9541,-1.9541,-1.9385,-1.9648,-2.0508,-1.9615,-1.8565,-1.7447,-1.6251,-1.5673,-1.5819,-1.5259,-1.5109,-1.5398,-1.5691,-1.5832,-1.5825,-1.5564,-1.5497,0.0,0.0,0.0,0.0,0.0,0.0,0.0,0.0,0.0,0.0,0.0,-0.6305,-0.6454,0.0,-0.6749,-0.6895,-0.7476,-0.8189,-0.8803,-1.0351,-1.1901,-1.3033,-1.373,-1.4088,-1.4088,-1.4088,-1.4573,-1.5621,-1.5696,-1.6437,-1.8069,-1.8149,-1.839,-1.8948,-1.8948,-1.9195,-1.9756,-1.9195,-1.9195,-1.9756,-1.9195,-1.8948,-1.8948,-1.839,-1.7819,-1.7334,-1.6764,-1.5869,-1.4894,-1.4894,-1.4573,-1.4088,-1.4088,-1.4088,-1.4088,-1.4088,-1.4088,-1.4088,-1.4088,-1.4088,-1.4115,-1.4255,-1.4302,-1.4335,-1.4482,-1.4629,-1.4743,-1.4743,-1.4743,-1.4913,-1.542,-1.5893,-1.6274,-1.6784,-1.7375,-1.7711,-1.7711,-1.7655,-1.7697,-1.8271,-1.8279,-1.831,-1.8868,-1.8948,-1.9353,-2.0401,-2.0566,-2.0566,-2.0566,-2.0566,-2.04,-1.9971,-1.9922,-1.9922,-1.9922,-1.9459,-1.9084,-1.893,-1.7971,-1.7082,-1.6519,-1.5617,-1.5198,-1.5261,-1.5212,-1.5251,-1.5398,-1.5691,-1.5832,-1.5832,-1.5832,-1.5832,0.0,0.0,0.0,0.0,0.0,0.0,0.0,0.0,-0.3722,-0.6493,-0.678,-0.6508,-0.6742,-0.6787,-0.6865,-0.7102,-0.7139,-0.7401,-0.8452,-0.9749,-1.0956,-1.1895,-1.3209,-1.4088,-1.4088,-1.4088,-1.4496,-1.5296,-1.5379,-1.5869,-1.6927,-1.7009,-1.709,-1.7253,-1.7342,-1.7738,-1.8638,-1.7738,-1.7738,-1.8638,-1.7738,-1.7342,-1.7253,-1.709,-1.6519,-1.5703,-1.5455,-1.4894,-1.4088,-1.4088,-1.4122,-1.4168,-1.4168,-1.4208,-1.4242,-1.4128,-1.4088,-1.4095,-1.4155,-1.4168,-1.4222,-1.4509,-1.4603,-1.4649,-1.489,-1.5003,-1.505,-1.505,-1.505,-1.505,-1.505,-1.57,-1.625,-1.625,-1.6946,-1.7557,-1.7557,-1.7431,-1.7294,-1.7476,-1.7226,-1.709,-1.7269,-1.7342,-1.7908,-1.9678,-2.0157,-2.0323,-2.0323,-2.0479,-2.0566,-2.0566,-2.0401,-2.0167,-2.0001,-1.9195,-1.823,-1.709,-1.6191,-1.5621,-1.5379,-1.4864,-1.4543,-1.4603,-1.5124,-1.5424,-1.5478,-1.5712,-1.5832,-1.5832,-1.5832,-1.5858,0.5262,0.2644,-0.0,-0.0,-0.0,-0.0,0.0,0.0,-0.1672,-0.6141,-0.7082,-0.6987,-0.7088,-0.7092,-0.7102,-0.7136,-0.7139,-0.7139,-0.7316,-0.9226,-1.0611,-1.0783,-1.2778,-1.4088,-1.4088,-1.4088,-1.4173,-1.425,-1.425,-1.4734,-1.5779,-1.5861,-1.6355,-1.7253,-1.7342,-1.7334,-1.7496,-1.7334,-1.7334,-1.7496,-1.7334,-1.7342,-1.7253,-1.6273,-1.5779,-1.5621,-1.465,-1.425,-1.4088,-1.4088,-1.4242,-1.4476,-1.4476,-1.4629,-1.4803,-1.4282,-1.4088,-1.4122,-1.4382,-1.4476,-1.4522,-1.4816,-1.4917,-1.4917,-1.495,-1.5144,-1.5351,-1.5351,-1.5351,-1.5351,-1.5351,-1.5241,-1.5136,-1.5136,-1.5315,-1.5397,-1.5397,-1.537,-1.5525,-1.6156,-1.6237,-1.6454,-1.7147,-1.7342,-1.7415,-1.7658,-1.855,-1.9195,-1.9195,-2.0001,-2.0566,-2.0566,-1.9766,-1.8789,-1.7738,-1.7585,-1.7009,-1.5944,-1.5779,-1.5296,-1.4328,-1.4448,-1.4643,-1.491,-1.5231,-1.5524,-1.5785,-1.5812,-1.5832,-1.5832,-1.5832,-1.5972,0.6103,0.4876,0.306,0.0641,-0.0,-0.0,-0.0,-0.0,-0.0594,-0.257,-0.5191,-0.7081,-0.7074,-0.7061,-0.7139,-0.7139,-0.7139,-0.7139,-0.7139,-0.8536,-0.9836,-1.0524,-1.2077,-1.3294,-1.4004,-1.4088,-1.4088,-1.4088,-1.4088,-1.4334,-1.4734,-1.4734,-1.4977,-1.5387,-1.547,-1.5711,-1.6355,-1.5711,-1.5711,-1.6355,-1.5711,-1.547,-1.5387,-1.4977,-1.4734,-1.4734,-1.4328,-1.4088,-1.4102,-1.4269,-1.4409,-1.4536,-1.471,-1.4856,-1.4937,-1.4689,-1.4596,-1.4616,-1.4736,-1.4776,-1.4823,-1.5124,-1.5217,-1.5251,-1.5418,-1.5551,-1.5651,-1.5651,-1.5651,-1.5651,-1.5651,-1.5558,-1.5471,-1.5471,-1.5471,-1.5471,-1.5471,-1.5337,-1.5352,-1.5659,-1.5434,-1.5319,-1.5602,-1.5511,-1.547,-1.547,-1.6935,-1.7989,-1.7989,-1.839,-1.8709,-1.8709,-1.831,-1.7577,-1.6437,-1.6355,-1.5951,-1.481,-1.4734,-1.4656,-1.4329,-1.4623,-1.4917,-1.5211,-1.5504,-1.5705,-1.5832,-1.5832,-1.5832,-1.5832,-1.6005,-1.6246,0.599,0.6215,0.5588,0.255,0.093,-0.0,-0.0,-0.0,-0.0,-0.0,-0.2769,-0.5549,-0.6815,-0.7071,-0.7058,-0.7143,-0.7139,-0.7139,-0.7139,-0.8105,-0.9235,-1.0009,-1.1123,-1.2334,-1.347,-1.3906,-1.4088,-1.4088,-1.4088,-1.4088,-1.4088,-1.4088,-1.4088,-1.4088,-1.4088,-1.4489,-1.5213,-1.4496,-1.4496,-1.522,-1.4489,-1.4088,-1.4088,-1.4088,-1.4088,-1.4088,-1.4088,-1.3906,-1.3659,-1.378,-1.3779,-1.3667,-1.3873,-1.4041,-1.4172,-1.4172,-1.4546,-1.4977,-1.5057,-1.5084,-1.513,-1.5424,-1.5518,-1.5558,-1.5765,-1.5832,-1.5832,-1.5832,-1.5832,-1.5832,-1.5832,-1.5832,-1.5832,-1.5832,-1.5832,-1.5832,-1.5832,-1.5665,-1.5491,-1.5411,-1.505,-1.471,-1.4549,-1.4349,-1.4182,-1.4095,-1.5387,-1.6527,-1.6846,-1.709,-1.7172,-1.6927,-1.6846,-1.6437,-1.5379,-1.5296,-1.4894,-1.4173,-1.4088,-1.4215,-1.4509,-1.4803,-1.5104,-1.5391,-1.5678,-1.5832,-1.5832,-1.5832,-1.5832,-1.5838,-1.6132,-1.6426,0.5457,0.5948,0.6296,0.642,0.32,-0.0,-0.0,-0.0,-0.0,-0.0,-0.0089,-0.1608,-0.6269,-0.7084,-0.7078,-0.7143,-0.7139,-0.7139,-0.7139,-0.8105,-0.889,-0.8978,-0.9923,-1.1123,-1.2242,-1.3379,-1.4088,-1.4088,-1.4088,-1.4088,-1.4088,-1.4088,-1.4088,-1.4088,-1.4088,-1.4088,-1.4173,-1.4088,-1.4088,-1.4173,-1.4088,-1.4088,-1.4088,-1.4088,-1.4088,-1.4088,-1.4088,-1.347,-1.2328,-1.2334,-1.202,-1.1365,-1.137,-1.164,-1.2022,-1.2022,-1.3262,-1.5003,-1.5284,-1.5384,-1.5431,-1.5718,-1.5812,-1.5818,-1.5825,-1.5832,-1.5832,-1.5832,-1.5832,-1.5832,-1.5832,-1.5832,-1.5832,-1.5832,-1.5832,-1.5832,-1.5832,-1.5818,-1.5732,-1.5451,-1.5384,-1.519,-1.4616,-1.4509,-1.4409,-1.4128,-1.4166,-1.4573,-1.5621,-1.6683,-1.6927,-1.5861,-1.5779,-1.5296,-1.425,-1.4173,-1.4166,-1.4088,-1.4088,-1.4215,-1.4509,-1.4803,-1.5104,-1.5391,-1.5678,-1.5832,-1.5832,-1.5832,-1.5832,-1.5838,-1.6132,-1.6426,0.5623,0.6064,0.6544,0.6813,0.5846,0.4289,0.2768,0.1162,-0.0,-0.0,-0.0,-0.0514,-0.2054,-0.4969,-0.7133,-0.7123,-0.7107,-0.7139,-0.7139,-0.7489,-0.8017,-0.8803,-0.9235,-0.9923,-1.1037,-1.2248,-1.3203,-1.3997,-1.4088,-1.4088,-1.4088,-1.4269,-1.4376,-1.4376,-1.4376,-1.4376,-1.4376,-1.4182,-1.4088,-1.4088,-1.4088,-1.3646,-1.2942,-1.2942,-1.251,-1.174,-1.174,-1.1563,-1.1225,-1.138,-1.1457,-1.1298,-1.1538,-1.1682,-1.1945,-1.1945,-1.2336,-1.2975,-1.3059,-1.3087,-1.3098,-1.3182,-1.3788,-1.4555,-1.4555,-1.5146,-1.5832,-1.5832,-1.5832,-1.5832,-1.5832,-1.5832,-1.5832,-1.5832,-1.5832,-1.5832,-1.5832,-1.5832,-1.5798,-1.5705,-1.5531,-1.5337,-1.5137,-1.4776,-1.4422,-1.4128,-1.4088,-1.425,-1.4573,-1.4985,-1.5068,-1.465,-1.4657,-1.4489,-1.4166,-1.4088,-1.4088,-1.4088,-1.4269,-1.4509,-1.4803,-1.5097,-1.5384,-1.5678,-1.5778,-1.5832,-1.5832,-1.5832,-1.5832,-1.5838,-1.6333,-1.6613,0.6641,0.6865,0.7067,0.7135,0.7078,0.6719,0.5184,0.3664,0.2056,0.0358,-0.0,-0.0,-0.0,-0.2479,-0.5107,-0.6834,-0.7031,-0.6993,-0.708,-0.6987,-0.7281,-0.8177,-0.8277,-0.8711,-0.9923,-1.0697,-1.1563,-1.2778,-1.2863,-1.2863,-1.2863,-1.3028,-1.312,-1.312,-1.312,-1.312,-1.312,-1.2949,-1.2863,-1.2863,-1.2863,-1.2425,-1.1724,-1.1724,-1.1295,-1.0611,-1.0611,-1.0351,-1.0019,-1.0245,-1.0201,-1.001,-1.0135,-1.0345,-1.0485,-1.0485,-1.0485,-1.0681,-1.1556,-1.1945,-1.1945,-1.1945,-1.2528,-1.3199,-1.3199,-1.3782,-1.437,-1.437,-1.4758,-1.5146,-1.5146,-1.5439,-1.5832,-1.5832,-1.5832,-1.5832,-1.5832,-1.5832,-1.5832,-1.5832,-1.5678,-1.5518,-1.5418,-1.4997,-1.4583,-1.4289,-1.4242,-1.4202,-1.4102,-1.4088,-1.4088,-1.4088,-1.4088,-1.4088,-1.4088,-1.4088,-1.4128,-1.4235,-1.4416,-1.4696,-1.5104,-1.5297,-1.5531,-1.5818,-1.5832,-1.5832,-1.5832,-1.5832,-1.5832,-1.5845,-1.6433,-1.6707,0.8349,0.8233,0.8064,0.7378,0.7156,0.7084,0.7084,0.7091,0.5824,0.1246,0.0169,-0.0,0.0,0.0,-0.151,-0.6039,-0.6541,-0.6582,-0.7003,-0.6902,-0.6827,-0.7105,-0.7139,-0.7577,-0.8715,-0.8803,-0.9235,-1.0351,-1.0524,-1.0611,-1.0611,-1.0621,-1.0626,-1.0626,-1.0626,-1.0626,-1.0626,-1.0616,-1.0611,-1.0611,-1.0611,-1.0611,-1.0524,-1.0524,-1.0524,-1.0438,-1.0438,-0.9836,-0.8803,-0.8815,-0.8317,-0.76,-0.7607,-0.7787,-0.8038,-0.8038,-0.8038,-0.8333,-1.0872,-1.1653,-1.1653,-1.1653,-1.175,-1.1755,-1.1755,-1.1848,-1.1945,-1.1945,-1.2818,-1.3776,-1.3776,-1.4657,-1.5635,-1.573,-1.573,-1.573,-1.5825,-1.5832,-1.5832,-1.5832,-1.5832,-1.5732,-1.5444,-1.517,-1.4883,-1.4589,-1.4543,-1.4436,-1.4128,-1.4088,-1.4088,-1.4088,-1.4088,-1.4095,-1.4108,-1.4108,-1.4235,-1.4522,-1.4556,-1.4816,-1.5378,-1.5411,-1.5545,-1.5825,-1.5832,-1.5832,-1.5832,-1.5832,-1.5832,-1.5845,-1.6433,-1.6707,0.9461,0.9091,0.8713,0.8507,0.7757,0.7061,0.7061,0.7074,0.6637,0.5045,0.2152,-0.0,-0.0,-0.0,-0.0383,-0.1587,-0.3215,-0.4925,-0.6521,-0.6877,0.0,-0.7132,0.0,-0.7228,-0.7489,-0.7577,-0.7665,-0.8009,-0.957,-1.0611,-1.0611,-1.0855,-1.0947,-1.0947,-1.0947,-1.0947,-1.0947,-1.0691,-1.0611,-1.0611,-1.0611,-1.0183,-0.9323,-0.9323,-0.8882,-0.8009,-0.8009,-0.7837,-0.7588,-0.771,-0.77,-0.7611,-0.7716,-0.7872,-0.8038,-0.8038,-0.8038,-0.8137,-0.8722,-0.9019,-0.9019,-0.9019,-0.9706,-1.0485,-1.0485,-1.117,-1.1945,-1.1945,-1.2139,-1.2431,-1.2431,-1.2624,-1.3108,-1.4172,-1.4364,-1.4657,-1.5629,-1.5832,-1.5832,-1.5832,-1.5832,-1.5732,-1.5444,-1.5337,-1.5184,-1.4897,-1.485,-1.4669,-1.4155,-1.4088,-1.4088,-1.4088,-1.4088,-1.4175,-1.4389,-1.4409,-1.4536,-1.483,-1.5057,-1.5237,-1.5391,-1.5605,-1.5752,-1.5832,-1.5832,-1.5832,-1.5832,-1.5832,-1.5832,-1.5845,-1.6433,-1.6707,1.1053,1.0658,1.0183,0.9148,0.8364,0.7698,0.6977,0.6858,0.6742,0.6383,0.4203,0.1877,0.0266,-0.0,-0.0,0.0,0.0,0.0,-0.3561,-0.5486,-0.6853,0.0,-0.7068,0.0,-0.7143,-0.7139,-0.7139,-0.7139,-0.8356,-0.9048,-0.9048,-0.9239,-0.9389,-0.9389,-0.9389,-0.9389,-0.9389,-0.9192,-0.9048,-0.9048,-0.9048,-0.8707,-0.8105,-0.8105,-0.7753,-0.7139,-0.7139,-0.7139,-0.7146,-0.7234,-0.74,-0.7607,-0.7689,-0.7848,-0.8038,-0.8038,-0.8038,-0.8038,-0.8038,-0.8038,-0.8038,-0.8038,-0.8528,-0.9118,-0.9118,-0.9608,-1.019,-1.019,-1.0583,-1.1072,-1.1072,-1.1458,-1.2042,-1.2813,-1.3006,-1.3204,-1.3884,-1.4082,-1.4274,-1.4854,-1.5439,-1.5778,-1.5611,-1.5585,-1.5484,-1.5197,-1.5157,-1.499,-1.4529,-1.4469,-1.4469,-1.4469,-1.4469,-1.4543,-1.4703,-1.4716,-1.4843,-1.5137,-1.5304,-1.5451,-1.5578,-1.5745,-1.5832,-1.5832,-1.5832,-1.5832,-1.5832,-1.5832,-1.5832,-1.5845,-1.6433,-1.6707,1.2638,1.2413,1.1809,0.9836,0.9148,0.8484,0.7057,0.6631,0.6414,0.6216,0.5773,0.4423,0.1203,0.0271,-0.0,-0.0,0.0,-0.0,-0.0,-0.3129,-0.5766,-0.6514,-0.6903,-0.7078,-0.7058,-0.7143,-0.7139,-0.7139,-0.7139,-0.7139,-0.7139,-0.7139,-0.7139,-0.7139,-0.7139,-0.7139,-0.7139,-0.7139,-0.7139,-0.7139,-0.7139,-0.7139,-0.7139,-0.7139,-0.7139,-0.7139,-0.7139,-0.7139,-0.7143,-0.7163,-0.7339,-0.76,-0.7621,-0.7797,-0.8038,-0.8038,-0.8038,-0.8038,-0.8038,-0.8038,-0.8038,-0.8038,-0.8038,-0.8038,-0.8038,-0.8038,-0.8038,-0.8038,-0.8825,-0.9706,-0.9706,-1.0583,-1.1458,-1.1658,-1.1658,-1.1653,-1.1848,-1.1945,-1.2237,-1.3392,-1.4561,-1.5343,-1.554,-1.554,-1.5549,-1.5491,-1.5451,-1.5364,-1.511,-1.501,-1.4963,-1.4963,-1.4963,-1.4977,-1.5017,-1.5023,-1.5144,-1.5438,-1.5451,-1.5565,-1.5818,-1.5832,-1.5832,-1.5832,-1.5832,-1.5832,-1.5832,-1.5832,-1.5832,-1.5845,-1.6433,-1.6707,1.3795,1.3027,1.2242,1.1809,1.0265,0.8742,0.8023,0.7187,0.0,0.549,0.5331,0.504,0.3912,0.1673,-0.0,-0.0,-0.0,-0.0,-0.0,-0.0619,-0.1861,0.0,-0.5905,-0.7084,-0.7081,-0.7064,-0.7139,-0.7139,-0.7139,-0.7139,-0.7139,-0.7139,-0.7139,-0.7139,-0.7139,-0.7139,-0.7139,-0.7139,-0.7139,-0.7139,-0.7139,-0.7139,-0.7139,-0.7139,-0.7139,-0.7139,-0.7139,-0.7139,-0.7149,-0.7278,-0.7438,-0.7611,-0.7729,-0.7882,-0.8038,-0.8038,-0.8038,-0.8038,-0.8038,-0.8038,-0.8038,-0.8038,-0.8038,-0.8038,-0.8038,-0.8038,-0.8038,-0.8038,-0.8137,-0.8333,-0.8333,-0.8528,-0.892,-1.0096,-1.0288,-1.0583,-1.1653,-1.1945,-1.1945,-1.2237,-1.2431,-1.2915,-1.407,-1.4262,-1.4543,-1.5569,-1.5752,-1.5732,-1.5685,-1.5257,-1.4963,-1.4963,-1.4963,-1.5064,-1.5304,-1.5317,-1.5444,-1.5732,-1.5752,-1.5772,-1.5825,-1.5832,-1.5832,-1.5832,-1.5832,-1.5832,-1.5832,-1.5832,-1.5832,-1.5845,-1.6433,-1.6707,1.4088,1.3646,1.3118,1.2504,1.1466,1.0179,0.8273,0.0,0.0,0.5088,0.4848,0.4848,0.4524,0.2662,0.0,0.0136,-0.0,-0.0,-0.0,-0.0,-0.0448,-0.1608,-0.268,-0.438,-0.6821,-0.7084,-0.7074,-0.7071,-0.7068,-0.7064,-0.7139,-0.7139,-0.7139,-0.7139,-0.7139,-0.7139,-0.7139,-0.7139,-0.7139,-0.7139,-0.7139,-0.7139,-0.7139,-0.7139,-0.7139,-0.7139,-0.7139,-0.7139,-0.7146,-0.7221,-0.7343,-0.7489,-0.7556,-0.7723,-0.7919,-0.7919,-0.797,-0.8038,-0.8038,-0.8038,-0.8038,-0.8038,-0.8038,-0.8038,-0.8038,-0.8038,-0.8038,-0.8038,-0.8038,-0.8038,-0.8038,-0.8038,-0.8137,-0.8825,-0.892,-0.9118,-0.9702,-1.0386,-1.0877,-1.0877,-1.1463,-1.2139,-1.2721,-1.2813,-1.3108,-1.3692,-1.4364,-1.4848,-1.4848,-1.5197,-1.5418,-1.5418,-1.5418,-1.5471,-1.5611,-1.5618,-1.5678,-1.5818,-1.5832,-1.5832,-1.5832,-1.5832,-1.5832,-1.5832,-1.5832,-1.5832,-1.5832,-1.5832,-1.5832,-1.5845,-1.6433,-1.6707,1.4055,1.4088,1.3906,1.2942,1.2504,1.1504,0.8563,0.7712,0.0,0.4934,0.4519,0.4522,0.4477,0.351,0.2074,0.0,-0.0,-0.0,-0.0,-0.0,-0.0,-0.0,-0.0,0.0,-0.5922,-0.6373,-0.6367,-0.6361,-0.6815,-0.7078,-0.7143,-0.7139,-0.7139,-0.7139,-0.7139,-0.7139,-0.7139,-0.7139,-0.7139,-0.7139,-0.7139,-0.7139,-0.7139,-0.7139,-0.7139,-0.7139,-0.7139,-0.7139,-0.7139,-0.7139,-0.7231,-0.737,-0.737,-0.7533,-0.7767,-0.7767,-0.7862,-0.7991,-0.7991,-0.8011,-0.8038,-0.8038,-0.8038,-0.8038,-0.8038,-0.8038,-0.8038,-0.8038,-0.8038,-0.8038,-0.8038,-0.8038,-0.8038,-0.8038,-0.8038,-0.8038,-0.8038,-0.8825,-0.9608,-0.9608,-1.0386,-1.1165,-1.1458,-1.1463,-1.1556,-1.1848,-1.2813,-1.3488,-1.3488,-1.437,-1.4956,-1.4956,-1.5439,-1.5832,-1.5832,-1.5832,-1.5832,-1.5832,-1.5832,-1.5832,-1.5832,-1.5832,-1.5832,-1.5832,-1.5832,-1.5832,-1.5832,-1.5832,-1.5832,-1.5845,-1.6433,-1.6707,1.3941,1.4088,1.4088,1.3997,1.3118,1.1752,0.9652,0.0,0.6903,0.4934,0.4519,0.4522,0.4477,0.4399,0.3324,0.0,0.0,-0.0,-0.0,-0.0,-0.0,-0.0,0.0,0.0,-0.3676,-0.3935,-0.3929,-0.3927,-0.5913,-0.7088,-0.7143,-0.7139,-0.7139,-0.7139,-0.7139,-0.7139,-0.7139,-0.7139,-0.7139,-0.7139,-0.7139,-0.7139,-0.7139,-0.7139,-0.7139,-0.7139,-0.7139,-0.7139,-0.7139,-0.7139,-0.7231,-0.737,-0.737,-0.7472,-0.7617,-0.7617,-0.7709,-0.7831,-0.7831,-0.7923,-0.8038,-0.8038,-0.8038,-0.8038,-0.8038,-0.8038,-0.8038,-0.8038,-0.8038,-0.8038,-0.8038,-0.8038,-0.8038,-0.8038,-0.8038,-0.8038,-0.8038,-0.8137,-0.8137,-0.8137,-0.8233,-0.8726,-0.9998,-1.0194,-1.0583,-1.1755,-1.2042,-1.2042,-1.2042,-1.2237,-1.2237,-1.2237,-1.437,-1.5832,-1.5832,-1.5832,-1.5832,-1.5832,-1.5832,-1.5832,-1.5832,-1.5832,-1.5832,-1.5832,-1.5832,-1.5832,-1.5832,-1.5832,-1.5832,-1.5845,-1.6433,-1.6707,1.3874,1.4088,1.4088,1.4088,1.3476,1.2203,0.9807,0.0,0.7344,0.5004,0.4519,0.4519,0.4522,0.4473,0.4082,0.2882,0.1191,-0.0,-0.0,-0.0,-0.0,-0.0,-0.0,-0.0359,-0.1346,-0.1434,-0.2598,-0.5479,-0.5287,-0.5006,-0.4994,-0.6346,-0.7071,-0.7071,-0.7058,-0.7139,-0.7139,-0.7139,-0.7139,-0.7139,-0.7139,-0.7139,-0.7139,-0.7139,-0.7139,-0.7139,-0.7139,-0.7139,-0.7139,-0.7139,-0.7177,-0.7231,-0.7231,-0.7326,-0.7461,-0.7461,-0.7556,-0.7685,-0.7685,-0.778,-0.7902,-0.7902,-0.7963,-0.8038,-0.8038,-0.8038,-0.8038,-0.8038,-0.8038,-0.8038,-0.8038,-0.8038,-0.8038,-0.8038,-0.8038,-0.8038,-0.8038,-0.8038,-0.8038,-0.8038,-0.8038,-0.8137,-0.8726,-0.8825,-0.892,-0.9509,-1.019,-1.0779,-1.0779,-1.1458,-1.1945,-1.1945,-1.2818,-1.3499,-1.3499,-1.3499,-1.3499,-1.3499,-1.3499,-1.3499,-1.3499,-1.3499,-1.3499,-1.3499,-1.4268,-1.4657,-1.4657,-1.5439,-1.5832,-1.5845,-1.6433,-1.6707,1.3587,1.3955,1.4088,1.4088,1.3581,1.2395,0.0,0.0,0.7566,0.5024,0.4519,0.4519,0.4519,0.4525,0.4477,0.4484,0.2745,0.1009,0.0129,-0.0,-0.0,-0.0,-0.0,-0.0,-0.0,-0.0,-0.1348,-0.477,-0.4125,-0.358,-0.358,-0.5196,-0.6367,-0.7091,-0.7074,-0.7068,-0.7068,-0.7068,-0.7068,-0.7068,-0.7068,-0.7068,-0.7068,-0.7068,-0.7068,-0.7068,-0.7068,-0.7064,-0.7061,-0.7061,-0.7058,-0.7139,-0.7139,-0.7207,-0.7302,-0.7302,-0.74,-0.7533,-0.7533,-0.7628,-0.7753,-0.7797,-0.7885,-0.798,-0.8024,-0.8038,-0.8038,-0.8038,-0.8038,-0.8038,-0.8038,-0.8038,-0.8038,-0.8038,-0.8038,-0.8038,-0.8038,-0.8038,-0.8038,-0.8038,-0.8038,-0.8038,-0.8038,-0.8038,-0.8038,-0.8038,-0.8825,-0.941,-0.941,-1.019,-1.0779,-1.0779,-1.0779,-1.1072,-1.1848,-1.1945,-1.1945,-1.1945,-1.1945,-1.1945,-1.1945,-1.1945,-1.1945,-1.1945,-1.3199,-1.3878,-1.3878,-1.5146,-1.5872,-1.5972,-1.6473,-1.68,1.2973,1.3647,1.4088,1.4088,1.3414,1.2205,0.9848,0.8641,0.7325,0.5001,0.4519,0.4519,0.4519,0.4519,0.4525,0.4494,0.4451,0.3435,0.0448,-0.0,-0.0,0.0,-0.0,-0.0,-0.0,-0.0,-0.0,-0.009,-0.225,-0.3604,-0.3604,-0.3593,-0.4665,-0.7012,-0.7101,-0.7101,-0.7101,-0.7101,-0.7101,-0.7101,-0.7101,-0.7101,-0.7101,-0.7101,-0.7101,-0.7101,-0.7101,-0.7094,-0.7084,-0.7084,-0.7071,-0.7139,-0.7139,-0.7143,-0.7143,-0.7143,-0.7241,-0.7373,-0.7373,-0.7472,-0.7624,-0.7767,-0.7814,-0.7841,-0.7994,-0.8038,-0.8038,-0.8038,-0.8038,-0.8038,-0.8038,-0.8038,-0.8038,-0.8038,-0.8038,-0.8038,-0.8038,-0.8038,-0.8038,-0.8038,-0.8038,-0.8038,-0.8038,-0.8038,-0.8038,-0.8038,-0.8038,-0.8038,-0.8038,-0.8038,-0.8038,-0.8038,-0.8038,-0.9118,-1.1653,-1.1945,-1.1945,-1.1945,-1.1945,-1.1945,-1.1945,-1.1945,-1.1945,-1.1945,-1.3199,-1.3878,-1.3878,-1.5146,-1.5979,-1.6279,-1.6567,-1.7014,1.1997,1.2278,1.2318,1.2518,1.154,1.0166,0.8749,0.7481,0.62,0.4786,0.4519,0.4519,0.4519,0.4519,0.4501,0.4505,0.361,0.2943,0.3082,0.0,0.0,-0.0,-0.0,-0.0,-0.0,-0.0,-0.0,-0.0,-0.0719,-0.1169,-0.1169,-0.1168,-0.1524,-0.2235,-0.3844,-0.4739,-0.4739,-0.4739,-0.4739,-0.4739,-0.4739,-0.4739,-0.4739,-0.4739,-0.4739,-0.4739,-0.4739,-0.4736,-0.4825,-0.6456,-0.7091,-0.7088,-0.7088,-0.7081,-0.7074,-0.7074,-0.7183,-0.7214,-0.7214,-0.7316,-0.7451,-0.7495,-0.7648,-0.7821,-0.7868,-0.7957,-0.8038,-0.8038,-0.8038,-0.8038,-0.8038,-0.8038,-0.8038,-0.8038,-0.8038,-0.8038,-0.8038,-0.8038,-0.8038,-0.8038,-0.8038,-0.8038,-0.8038,-0.8038,-0.8038,-0.8038,-0.8038,-0.8038,-0.8038,-0.8038,-0.8038,-0.8038,-0.8038,-0.8333,-0.9114,-0.9213,-0.9213,-0.9213,-0.9213,-0.9213,-0.9213,-0.9213,-0.9213,-0.9213,-1.1458,-1.2528,-1.2528,-1.4758,-1.6086,-1.6573,-1.6874,-1.7215,0.0,1.1403,1.1401,1.137,1.0292,0.0,0.785,0.6688,0.557,0.4698,0.4519,0.4519,0.4519,0.4519,0.4497,0.4492,0.3229,0.2338,0.2728,0.0,0.0,-0.0,-0.0,-0.0,-0.0,-0.0,-0.0,-0.0,-0.0,-0.0,-0.0,-0.0,-0.0,-0.0,-0.1431,-0.2236,-0.2236,-0.2236,-0.2236,-0.2236,-0.2236,-0.2236,-0.2236,-0.2236,-0.2236,-0.2236,-0.2236,-0.2234,0.0,-0.3846,-0.4926,-0.5735,-0.5735,-0.5819,-0.5905,-0.6811,-0.7078,-0.7064,-0.7143,-0.7204,-0.7292,-0.7353,-0.757,-0.7821,-0.7879,-0.7963,-0.8038,-0.8038,-0.8038,-0.8038,-0.8038,-0.8038,-0.8038,-0.8038,-0.8038,-0.8038,-0.8038,-0.8038,-0.8038,-0.8038,-0.8038,-0.8038,-0.8038,-0.8038,-0.8038,-0.8038,-0.8038,-0.8038,-0.8038,-0.8038,-0.8038,-0.8038,-0.8038,-0.8038,-0.8038,-0.8038,-0.8038,-0.8038,-0.8038,-0.8038,-0.8038,-0.8038,-0.8038,-0.8038,-1.0096,-1.117,-1.117,-1.4078,-1.5842,-1.6714,-1.7128,-1.7408,0.0,1.079,1.0973,1.0368,0.9467,0.8421,0.7069,0.6097,0.0,0.4625,0.4525,0.4529,0.4519,0.4525,0.4487,0.4507,0.3193,0.1678,0.0192,-0.0,0.0,-0.0,-0.0,-0.0,-0.0,-0.0,-0.0,-0.0,-0.0,-0.0,-0.0,-0.0,-0.0,-0.0,-0.0,-0.0,-0.0,-0.0,-0.0,-0.0,-0.0,-0.0,-0.0,-0.0,-0.0,-0.0,-0.0,-0.0,-0.0,-0.0,-0.134,-0.3303,-0.3303,-0.3303,-0.366,-0.618,-0.7088,-0.7084,-0.7061,-0.7143,-0.717,-0.7333,-0.7573,-0.7828,-0.7991,-0.8038,-0.8038,-0.8038,-0.8038,-0.8038,-0.8038,-0.8038,-0.8038,-0.8038,-0.8038,-0.8038,-0.8038,-0.8038,-0.8038,-0.8038,-0.8038,-0.8038,-0.8038,-0.8038,-0.8038,-0.8038,-0.8038,-0.8038,-0.8038,-0.8038,-0.8038,-0.8038,-0.8038,-0.8038,-0.8038,-0.8038,-0.8038,-0.8038,-0.8038,-0.8038,-0.8038,-0.8038,-0.8038,-0.8038,-0.9312,-0.9998,-1.0096,-1.3285,-1.5362,-1.6613,-1.7308,-1.7582,0.9038,0.0,0.8604,0.8687,0.7512,0.6243,0.0,0.5254,0.4677,0.0,0.0,0.0,0.4539,0.4558,0.4643,0.449,0.3185,0.1691,0.0197,-0.0,0.0,-0.0,-0.0,-0.0,-0.0,-0.0,-0.0,-0.0,-0.0,-0.0,-0.0,-0.0,-0.0,-0.0,-0.0,-0.0,-0.0,-0.0,-0.0,-0.0,-0.0,-0.0,-0.0,-0.0,-0.0,-0.0,-0.0,-0.0,-0.0,-0.0,-0.0359,-0.0807,-0.0807,-0.0806,-0.1341,-0.557,-0.7111,-0.7098,-0.7091,-0.7084,-0.7118,-0.7465,-0.7594,-0.7699,-0.796,-0.8038,-0.8038,-0.8038,-0.8038,-0.8038,-0.8038,-0.8038,-0.8038,-0.8038,-0.8038,-0.8038,-0.8038,-0.8038,-0.8038,-0.8038,-0.8038,-0.8038,-0.8038,-0.8038,-0.8038,-0.8038,-0.8038,-0.8038,-0.8038,-0.8038,-0.8038,-0.8038,-0.8038,-0.8038,-0.8038,-0.8038,-0.8038,-0.8038,-0.8038,-0.8038,-0.8038,-0.8038,-0.8038,-0.8038,-0.9312,-1.0485,-1.1463,-1.3691,-1.4951,-1.5273,-1.6879,-1.7582,0.8569,0.851,0.8391,0.7443,0.674,0.6137,0.5408,0.0,0.0,0.0,0.0,0.0,0.0,0.0,0.4911,0.4538,0.3227,0.2144,0.208,0.1483,0.0783,0.0081,-0.0,-0.0,-0.0,-0.0,-0.0,-0.0,-0.0,-0.0,-0.0,-0.0,-0.0,-0.0,-0.0,-0.0,-0.0,-0.0,-0.0,-0.0,-0.0,-0.0,-0.0,-0.0,-0.0,-0.0,-0.0,-0.0,-0.0,-0.0,-0.0,-0.0,-0.0,-0.0,-0.0269,-0.2868,-0.4576,-0.5473,-0.5466,-0.6183,-0.7131,-0.7509,-0.76,-0.7655,-0.795,-0.8038,-0.8038,-0.8038,-0.8038,-0.8038,-0.8038,-0.8038,-0.8038,-0.8038,-0.8038,-0.8038,-0.8038,-0.8038,-0.8038,-0.8038,-0.8038,-0.8038,-0.8038,-0.8038,-0.8038,-0.8038,-0.8038,-0.8038,-0.8038,-0.8038,-0.8038,-0.8038,-0.8038,-0.8038,-0.8038,-0.8038,-0.8038,-0.8038,-0.8038,-0.8038,-0.8038,-0.8038,-0.8038,-0.8038,-0.8726,-0.9702,-1.1072,-1.2783,-1.4127,-1.4856,-1.6639,-1.7455,0.8226,0.8837,0.8992,0.6736,0.6639,0.6759,0.5214,0.0,0.0,0.0,0.0,0.0,0.0,0.505,0.0,0.0,0.0,0.2554,0.4604,0.3742,0.2377,0.0887,0.0246,0.0252,0.097,0.0447,-0.0,-0.0,-0.0,-0.0,-0.0,-0.0,-0.0,-0.0,-0.0,-0.0,-0.0,-0.0,-0.0,-0.0,-0.0,-0.0,-0.0,-0.0,-0.0,-0.0,-0.0,-0.0,-0.0,-0.0,-0.0,-0.0,-0.0,-0.0,-0.0,-0.0,-0.1254,-0.3048,-0.3038,-0.4828,-0.7131,-0.7389,-0.7584,-0.7651,-0.7923,-0.8024,-0.8045,-0.8041,-0.8038,-0.8038,-0.8038,-0.8038,-0.8038,-0.8038,-0.8038,-0.8038,-0.8038,-0.8038,-0.8038,-0.8038,-0.8038,-0.8038,-0.8038,-0.8038,-0.8038,-0.8038,-0.8038,-0.8038,-0.8038,-0.8038,-0.8038,-0.8038,-0.8038,-0.8038,-0.8038,-0.8038,-0.8038,-0.8038,-0.8038,-0.8038,-0.8038,-0.8038,-0.8038,-0.8038,-0.8038,-0.8528,-0.9706,-1.1278,-1.2788,-1.4242,-1.6068,-1.6983,0.7154,0.7792,0.8364,0.7355,0.6759,0.6104,0.5097,0.0,0.0,0.0,0.0,0.0,0.0,0.5003,0.4977,0.0,0.0,0.1862,0.6064,0.6515,0.5675,0.4005,0.1535,0.156,0.5581,0.2349,-0.0,-0.0,-0.0,-0.0,-0.0,-0.0,-0.0,-0.0,-0.0,-0.0,-0.0,-0.0,-0.0,-0.0,-0.0,-0.0,-0.0,-0.0,-0.0,-0.0,-0.0,-0.0,-0.0,-0.0,-0.0,-0.0,-0.0,-0.0,-0.0,-0.0,-0.0269,-0.0539,-0.0537,-0.3398,-0.7125,-0.7194,-0.7323,-0.7449,-0.7701,-0.795,-0.7965,-0.8045,-0.8038,-0.8038,-0.8038,-0.8038,-0.8038,-0.8038,-0.8038,-0.8038,-0.8038,-0.8038,-0.8038,-0.8038,-0.8038,-0.8038,-0.8038,-0.8038,-0.8038,-0.8038,-0.8038,-0.8038,-0.8038,-0.8038,-0.8038,-0.8038,-0.8038,-0.8038,-0.8038,-0.8038,-0.8038,-0.8038,-0.8038,-0.8038,-0.8038,-0.8038,-0.8038,-0.8038,-0.8038,-0.8137,-0.8333,-0.9883,-1.087,-1.1367,-1.4188,-1.5608,0.6785,0.7442,0.8019,0.7329,0.7059,0.6733,0.5849,0.0,0.0,0.0,0.0,0.0,0.0,0.0,0.5544,0.6329,0.3525,0.239,0.5894,0.6421,0.5922,0.4639,0.326,0.2644,0.3178,0.3622,0.3864,0.3857,0.1434,-0.0,-0.0,-0.0,-0.0,-0.0,-0.0,-0.0,-0.0,-0.0,-0.0,-0.0,-0.0,-0.0,-0.0,-0.0,-0.0,-0.0,-0.0,-0.0,-0.0,-0.0,-0.0,-0.0,-0.0,-0.0,-0.0,-0.0,-0.0,-0.0,-0.0,-0.2323,-0.5389,-0.6703,-0.7306,-0.7537,-0.777,-0.7926,-0.7952,-0.8041,-0.8038,-0.8038,-0.8038,-0.8038,-0.8038,-0.8038,-0.8038,-0.8038,-0.8038,-0.8038,-0.8038,-0.8038,-0.8038,-0.8038,-0.8038,-0.8038,-0.8038,-0.8038,-0.8038,-0.8038,-0.8038,-0.8038,-0.8038,-0.8038,-0.8038,-0.8038,-0.8038,-0.8038,-0.8038,-0.8038,-0.8038,-0.8038,-0.8038,-0.8038,-0.8038,-0.8038,-0.8038,-0.8038,-0.8038,-0.949,-1.0369,-1.0746,-1.3632,-1.5145,0.6396,0.692,0.7395,0.6937,0.7078,0.719,0.6454,0.0,0.0,0.0,0.0,0.0,0.0,0.5375,0.5372,0.588,0.452,0.3607,0.4365,0.4451,0.4633,0.5067,0.51,0.4,0.116,0.3593,0.5855,0.7035,0.3764,0.1163,0.0089,-0.0,-0.0,-0.0,-0.0,-0.0,-0.0,-0.0,-0.0,-0.0,-0.0,-0.0,-0.0,-0.0,-0.0,-0.0,-0.0,-0.0,-0.0,-0.0,-0.0,-0.0,-0.0,-0.0,-0.0,-0.0,-0.0,-0.0,-0.0,-0.1609,-0.4028,-0.6297,-0.7257,-0.7483,-0.7719,-0.7872,-0.7902,-0.8031,-0.8038,-0.8038,-0.8038,-0.8038,-0.8038,-0.8038,-0.8038,-0.8038,-0.8038,-0.8038,-0.8038,-0.8038,-0.8038,-0.8038,-0.8038,-0.8038,-0.8038,-0.8038,-0.8038,-0.8038,-0.8038,-0.8038,-0.8038,-0.8038,-0.8038,-0.8038,-0.8038,-0.8038,-0.8038,-0.8038,-0.8038,-0.8038,-0.8038,-0.8038,-0.8038,-0.8038,-0.8038,-0.8038,-0.8038,-0.9019,-0.9786,-1.0231,-1.2695,-1.4188,0.5491,0.5696,0.5915,0.5936,0.636,0.0,0.6356,0.604,0.0,0.6173,0.0,0.0,0.0,0.47,0.3455,0.2706,0.4931,0.524,0.1057,0.0442,0.2035,0.6355,0.6907,0.6,0.3571,0.1613,0.2332,0.6726,0.6751,0.4672,0.0268,-0.0,-0.0,-0.0,-0.0,-0.0,-0.0,-0.0,-0.0,-0.0,-0.0,-0.0,-0.0,-0.0,-0.0,-0.0,-0.0,-0.0,-0.0,-0.0,-0.0,-0.0,-0.0,-0.0,-0.0,-0.0,-0.0,-0.0,-0.0,-0.1612,-0.4018,-0.6382,-0.7118,-0.7161,-0.748,-0.7634,-0.7784,-0.7905,-0.8038,-0.8038,-0.8038,-0.8038,-0.8038,-0.8038,-0.8038,-0.8038,-0.8038,-0.8038,-0.8038,-0.8038,-0.8038,-0.8038,-0.8038,-0.8038,-0.8038,-0.8038,-0.8038,-0.8038,-0.8038,-0.8038,-0.8038,-0.8038,-0.8038,-0.8038,-0.8038,-0.8038,-0.8038,-0.8038,-0.8038,-0.8038,-0.8038,-0.8038,-0.8038,-0.8038,-0.8038,-0.8038,-0.8038,-0.8137,-0.8292,-0.8689,-1.0231,-1.1892,0.5428,0.5576,0.5779,0.5691,0.0,0.0,0.0,0.6302,0.6067,0.5989,0.5959,0.0,0.0,0.0,0.3874,0.1257,0.1894,0.3123,0.4293,0.1846,0.0707,0.2511,0.2695,0.2334,0.1433,0.3226,0.4569,0.4914,0.6278,0.6281,0.4469,0.1608,-0.0,-0.0,-0.0,-0.0,-0.0,-0.0,-0.0,-0.0,-0.0,-0.0,-0.0,-0.0,-0.0,-0.0,-0.0,-0.0,-0.0,-0.0,-0.0,-0.0,-0.0,-0.0,-0.0,-0.0,-0.0,-0.0,-0.0,-0.1612,-0.4018,-0.637,-0.7188,-0.7315,-0.7556,-0.7706,-0.7758,-0.7997,-0.8038,-0.8038,-0.8038,-0.8038,-0.8038,-0.8038,-0.8038,-0.8038,-0.8038,-0.8038,-0.8038,-0.8038,-0.8038,-0.8038,-0.8038,-0.8038,-0.8038,-0.8038,-0.8038,-0.8038,-0.8038,-0.8038,-0.8038,-0.8038,-0.8038,-0.8038,-0.8038,-0.8038,-0.8038,-0.8038,-0.8038,-0.8038,-0.8038,-0.8038,-0.8038,-0.8038,-0.8038,-0.8038,-0.8038,-0.8038,-0.8191,-0.8587,-1.0958,-1.2421,0.5501,0.5613,0.5745,0.0,0.0,0.0,0.6458,0.6363,0.6112,0.6088,0.6017,0.5633,0.4611,0.0,0.3561,0.1506,0.048,0.11,0.4389,0.2067,-0.0,-0.0,-0.0,-0.0,-0.0,0.2946,0.4839,0.4736,0.618,0.7088,0.7084,0.4024,0.152,0.0089,-0.0,-0.0,-0.0,-0.0,-0.0,-0.0,-0.0,-0.0,-0.0,-0.0,-0.0,-0.0,-0.0,-0.0,-0.0,-0.0,-0.0,-0.0,-0.0,-0.0,-0.0,-0.0,-0.0,-0.0,-0.0,-0.1075,-0.2948,-0.61,-0.7155,-0.7346,-0.7543,-0.7665,-0.7787,-0.7984,-0.8038,-0.8038,-0.8038,-0.8038,-0.8038,-0.8038,-0.8038,-0.8038,-0.8038,-0.8038,-0.8038,-0.8038,-0.8038,-0.8038,-0.8038,-0.8038,-0.8038,-0.8038,-0.8038,-0.8038,-0.8038,-0.8038,-0.8038,-0.8038,-0.8038,-0.8038,-0.8038,-0.8038,-0.8038,-0.8038,-0.8038,-0.8038,-0.8038,-0.8038,-0.8038,-0.8038,-0.8038,-0.8038,-0.8038,-0.8089,-0.8442,-0.9205,-1.1227,-1.28,0.5796,0.5698,0.5701,0.0,0.0,0.0,0.6298,0.6122,0.5973,0.6573,0.6217,0.5688,0.5487,0.3424,0.2253,0.336,0.1585,-0.0,-0.0,-0.0,-0.0,-0.0,-0.0,-0.0,0.0087,0.0089,0.1973,0.6726,0.7094,0.7098,0.7084,0.7094,0.4926,0.0179,-0.0,-0.0,-0.0,-0.0,-0.0,-0.0,-0.0,-0.0,-0.0,-0.0,-0.0,-0.0,-0.0,-0.0,-0.0,-0.0,-0.0,-0.0,-0.0,-0.0,-0.0,-0.0,-0.0,-0.0,-0.0,-0.0,-0.0805,-0.5557,-0.7094,-0.7138,-0.7512,-0.76,-0.7662,-0.7957,-0.8038,-0.8038,-0.8038,-0.8038,-0.8038,-0.8038,-0.8038,-0.8038,-0.8038,-0.8038,-0.8038,-0.8038,-0.8038,-0.8038,-0.8038,-0.8038,-0.8038,-0.8038,-0.8038,-0.8038,-0.8038,-0.8038,-0.8038,-0.8038,-0.8038,-0.8038,-0.8038,-0.8038,-0.8038,-0.8038,-0.8038,-0.8038,-0.8038,-0.8038,-0.8038,-0.8038,-0.8038,-0.8038,-0.8038,-0.8194,-0.9157,-1.0647,-1.0839,-1.2515,0.5359,0.5688,0.0,0.0,0.0,0.0,0.0,0.6057,0.0,0.0,0.5929,0.5654,0.5985,0.5478,0.4089,0.1505,0.0457,-0.0,-0.0,-0.0,-0.0,-0.0,-0.0,0.1304,0.4699,0.3537,0.3844,0.6903,0.7074,0.7064,0.7061,0.7088,0.5735,0.2588,0.0896,-0.0,-0.0,-0.0,-0.0,-0.0,-0.0,-0.0,-0.0,-0.0,-0.0,-0.0,-0.0,-0.0,-0.0,-0.0,-0.0,-0.0,-0.0,-0.0,-0.0,-0.0,-0.0,-0.0,-0.0,-0.0,-0.0536,-0.3662,-0.5727,-0.7138,-0.7512,-0.76,-0.7662,-0.7957,-0.8038,-0.8038,-0.8038,-0.8038,-0.8038,-0.8038,-0.8038,-0.8038,-0.8038,-0.8038,-0.8038,-0.8038,-0.8038,-0.8038,-0.8038,-0.8038,-0.8038,-0.8038,-0.8038,-0.8038,-0.8038,-0.8038,-0.8038,-0.8038,-0.8038,-0.8038,-0.8038,-0.8038,-0.8038,-0.8038,-0.8038,-0.8038,-0.8038,-0.8038,-0.8038,-0.8038,-0.8038,-0.8038,-0.8038,-0.8194,-0.8546,-0.9209,-1.1362,-1.2941,0.5715,0.5956,0.0,0.0,0.6166,0.6251,0.6213,0.0,0.0,0.0,0.5976,0.5577,0.514,0.574,0.49,0.0667,-0.0,-0.0,-0.0,-0.0,-0.0,-0.0,0.1685,0.3955,0.6823,0.5824,0.5549,0.6996,0.7074,0.7061,0.7139,0.7084,0.6008,0.3659,0.1254,-0.0,-0.0,-0.0,-0.0,-0.0,-0.0,-0.0,-0.0,-0.0,-0.0,-0.0,-0.0,-0.0,-0.0,-0.0,-0.0,-0.0,-0.0,-0.0,-0.0,-0.0,-0.0,-0.0,-0.0,-0.0,-0.0269,-0.1697,-0.438,-0.7145,-0.7426,-0.76,-0.7662,-0.7957,-0.8038,-0.8038,-0.8038,-0.8038,-0.8038,-0.8038,-0.8038,-0.8038,-0.8038,-0.8038,-0.8038,-0.8038,-0.8038,-0.8038,-0.8038,-0.8038,-0.8038,-0.8038,-0.8038,-0.8038,-0.8038,-0.8038,-0.8038,-0.8038,-0.8038,-0.8038,-0.8038,-0.8038,-0.8038,-0.8038,-0.8038,-0.8038,-0.8038,-0.8038,-0.8038,-0.8038,-0.8038,-0.8069,-0.8133,-0.8282,-0.8737,-0.9516,-1.1372,-1.2919,0.6454,0.0,0.0,0.0,0.6668,0.0,0.6427,0.6352,0.6338,0.6338,0.0,0.5643,0.3515,0.4555,0.4491,0.0628,-0.0,-0.0,-0.0,-0.0,0.0157,0.055,0.4421,0.7014,0.7111,0.7101,0.7081,0.7081,0.7081,0.7074,0.7143,0.7084,0.6008,0.3659,0.1254,-0.0,-0.0,-0.0,-0.0,-0.0,-0.0,-0.0,-0.0,-0.0,-0.0,-0.0,-0.0,-0.0,-0.0,-0.0,-0.0,-0.0,-0.0,-0.0,-0.0,-0.0,-0.0,-0.0,-0.0,-0.0,-0.0,-0.0269,-0.322,-0.6876,-0.7243,-0.751,-0.7662,-0.7957,-0.8038,-0.8038,-0.8038,-0.8038,-0.8038,-0.8038,-0.8038,-0.8038,-0.8038,-0.8038,-0.8038,-0.8038,-0.8038,-0.8038,-0.8038,-0.8038,-0.8038,-0.8038,-0.8038,-0.8038,-0.8038,-0.8038,-0.8038,-0.8038,-0.8038,-0.8038,-0.8038,-0.8038,-0.8038,-0.8038,-0.8038,-0.8038,-0.8038,-0.8038,-0.8038,-0.8038,-0.8038,-0.8116,-0.8272,-0.8414,-0.929,-1.0724,-1.1125,-1.2724,0.5823,0.6186,0.0,0.0,0.6437,0.6407,0.6325,0.6359,0.6338,0.6338,0.6278,0.5652,0.3517,0.2115,0.1021,0.0157,-0.0,-0.0,-0.0,-0.0,0.1256,0.457,0.5833,0.6552,0.6809,0.6895,0.695,0.7051,0.7058,0.7058,0.7139,0.7084,0.6008,0.3659,0.1254,-0.0,-0.0,-0.0,-0.0,-0.0,-0.0,-0.0,-0.0,-0.0,-0.0,-0.0,-0.0,-0.0,-0.0,-0.0,-0.0,-0.0,-0.0,-0.0,-0.0,-0.0,-0.0,-0.0,-0.0,-0.0,-0.0269,-0.2234,-0.3482,-0.4773,-0.6945,-0.76,-0.7662,-0.7957,-0.8038,-0.8038,-0.8038,-0.8038,-0.8038,-0.8038,-0.8038,-0.8038,-0.8038,-0.8038,-0.8038,-0.8038,-0.8038,-0.8038,-0.8038,-0.8038,-0.8038,-0.8038,-0.8038,-0.8038,-0.8038,-0.8038,-0.8038,-0.8038,-0.8038,-0.8038,-0.8038,-0.8038,-0.8038,-0.8038,-0.8038,-0.8038,-0.8038,-0.8038,-0.8038,-0.8038,-0.8038,-0.8116,-0.8272,-0.8414,-0.8769,-0.9244,-1.1661,-1.3156,0.0,0.0,0.0,0.6454,0.0,0.6434,0.6291,0.6338,0.6338,0.6338,0.6281,0.5655,0.3517,0.1409,-0.0,-0.0,-0.0,0.0707,0.275,0.2987,0.3459,0.4636,0.5842,0.6572,0.6798,0.6912,0.6981,0.7136,0.7139,0.7139,0.7139,0.7084,0.6008,0.3659,0.1254,-0.0,-0.0,-0.0,-0.0,-0.0,-0.0,-0.0,-0.0,-0.0,-0.0,-0.0,-0.0,-0.0,-0.0,-0.0,-0.0,-0.0,-0.0,-0.0,-0.0,-0.0,-0.0,-0.0,-0.0,-0.0,-0.018,-0.1433,-0.3398,-0.5594,-0.7153,-0.7614,-0.7662,-0.7957,-0.8038,-0.8038,-0.8038,-0.8038,-0.8038,-0.8038,-0.8038,-0.8038,-0.8038,-0.8038,-0.8038,-0.8038,-0.8038,-0.8038,-0.8038,-0.8038,-0.8038,-0.8038,-0.8038,-0.8038,-0.8038,-0.8038,-0.8038,-0.8038,-0.8038,-0.8038,-0.8038,-0.8038,-0.8038,-0.8038,-0.8038,-0.8038,-0.8038,-0.8109,-0.815,-0.815,-0.815,-0.8258,-0.8482,-0.8557,-0.8669,-0.8821,-1.0413,-1.1538,0.0,0.0,0.0,0.6556,0.6549,0.0,0.6288,0.6338,0.6338,0.6338,0.6278,0.5652,0.3671,0.18,0.0549,0.0549,0.0549,0.1726,0.528,0.6084,0.5674,0.3832,0.5428,0.6747,0.6795,0.6929,0.7085,0.7136,0.7139,0.7139,0.7139,0.7058,0.5974,0.3641,0.1597,0.0352,-0.0,-0.0,-0.0,-0.0,-0.0,-0.0,-0.0,-0.0,-0.0,-0.0,-0.0,-0.0,-0.0,-0.0,-0.0,-0.0,-0.0,-0.0,-0.0,-0.0,-0.0,-0.0,-0.0,-0.0,-0.0,-0.0,-0.2957,-0.6607,-0.7359,-0.7624,-0.7662,-0.7957,-0.8038,-0.8038,-0.8038,-0.8038,-0.8038,-0.8038,-0.8038,-0.8038,-0.8038,-0.8038,-0.8038,-0.8038,-0.8038,-0.8038,-0.8038,-0.8038,-0.8038,-0.8038,-0.8038,-0.8038,-0.8038,-0.8038,-0.8038,-0.8038,-0.8062,-0.8079,-0.8079,-0.8102,-0.8116,-0.8116,-0.8116,-0.8116,-0.8116,-0.8238,-0.8319,-0.8347,-0.8319,-0.8438,-0.871,-0.871,-0.8791,-0.894,-0.9154,-1.0021,0.0,0.0,0.6105,0.0,0.6393,0.6285,0.0,0.0,0.6338,0.6338,0.6271,0.5879,0.4295,0.3279,0.2656,0.2656,0.2656,0.2891,0.3441,0.5101,0.6213,0.5883,0.6152,0.6434,0.6678,0.6739,0.6865,0.7122,0.7139,0.7139,0.7139,0.695,0.5837,0.3653,0.2989,0.186,-0.0,-0.0,-0.0,-0.0,-0.0,-0.0,-0.0,-0.0,-0.0,-0.0,-0.0,-0.0,-0.0,-0.0,-0.0,-0.0,-0.0,-0.0,-0.0,-0.0,-0.0,-0.0,-0.0,-0.0,-0.0,-0.0,-0.1876,-0.4501,-0.6768,-0.7513,-0.7662,-0.7957,-0.8038,-0.8038,-0.8038,-0.8038,-0.8038,-0.8038,-0.8038,-0.8038,-0.8038,-0.8038,-0.8038,-0.8038,-0.8038,-0.8038,-0.8038,-0.8038,-0.8038,-0.8038,-0.8038,-0.8038,-0.8038,-0.8038,-0.8038,-0.8038,-0.816,-0.8241,-0.8241,-0.8353,-0.8425,-0.8425,-0.8425,-0.8425,-0.8425,-0.8442,-0.8516,-0.8648,-0.852,-0.8537,-0.871,-0.871,-0.8791,-0.8937,-1.0241,-1.1647,0.4768,0.5444,0.6101,0.0,0.6366,0.6338,0.6338,0.6338,0.6338,0.6338,0.6264,0.6109,0.5479,0.509,0.4859,0.4859,0.4859,0.4857,0.4929,0.5724,0.6281,0.6271,0.6339,0.6434,0.6559,0.6729,0.6881,0.701,0.7021,0.7021,0.7021,0.6898,0.631,0.5283,0.3874,0.3253,0.3559,0.1167,-0.0,-0.0,-0.0,-0.0,-0.0,-0.0,-0.0,-0.0,-0.0,-0.0,-0.0,-0.0,-0.0,-0.0,-0.0,-0.0,-0.0,-0.0,-0.0,-0.0,-0.0,-0.0,-0.0,-0.0,-0.0716,-0.234,-0.6304,-0.7624,-0.7672,-0.796,-0.8038,-0.8038,-0.8038,-0.8038,-0.8038,-0.8038,-0.8038,-0.8038,-0.8038,-0.8038,-0.8038,-0.8038,-0.8038,-0.8038,-0.8038,-0.8038,-0.8038,-0.8038,-0.8038,-0.8038,-0.8038,-0.8038,-0.8072,-0.816,-0.8231,-0.8303,-0.8381,-0.8445,-0.8482,-0.8482,-0.8482,-0.8482,-0.8482,-0.8564,-0.8642,-0.871,-0.8645,-0.8686,-0.8838,-0.8838,-0.8872,-0.894,-0.9592,-1.0241,0.0,0.0,0.5786,0.6311,0.6249,0.6118,0.0,0.0,0.6338,0.6338,0.649,0.6644,0.6651,0.6433,0.6288,0.6288,0.6288,0.6285,0.6274,0.6274,0.6271,0.6264,0.6356,0.6434,0.6468,0.6678,0.6827,0.6868,0.6871,0.6871,0.6871,0.6742,0.6671,0.6592,0.4879,0.4668,0.6244,0.2139,-0.0,-0.0,-0.0,-0.0,-0.0,-0.0,-0.0,-0.0,-0.0,-0.0,-0.0,-0.0,-0.0,-0.0,-0.0,-0.0,-0.0,-0.0,-0.0,-0.0,-0.0,-0.0,-0.0,-0.0,-0.0448,-0.1621,-0.5553,-0.7146,-0.7675,-0.796,-0.8038,-0.8038,-0.8038,-0.8038,-0.8038,-0.8038,-0.8038,-0.8038,-0.8038,-0.8038,-0.8038,-0.8038,-0.8038,-0.8038,-0.8038,-0.8038,-0.8038,-0.8038,-0.8038,-0.8038,-0.8038,-0.8038,-0.8082,-0.8201,-0.8279,-0.8367,-0.8472,-0.8554,-0.8598,-0.8598,-0.8598,-0.8598,-0.8598,-0.871,-0.8767,-0.8767,-0.8767,-0.8825,-0.894,-0.894,-0.894,-0.894,-0.894,-0.9047,0.0,0.472,0.0,0.6052,0.5989,0.0,0.0,0.6338,0.6338,0.6338,0.7022,0.7706,0.771,0.6949,0.6264,0.6264,0.6264,0.6264,0.6264,0.6264,0.6338,0.6338,0.6268,0.6325,0.6461,0.6485,0.6556,0.6702,0.6712,0.6712,0.6712,0.6569,0.6579,0.6599,0.6287,0.6213,0.6308,0.2088,-0.0,-0.0,-0.0,-0.0,-0.0,-0.0,-0.0,-0.0,-0.0,-0.0,-0.0,-0.0,-0.0,-0.0,-0.0,-0.0,-0.0,-0.0,-0.0,-0.0,-0.0,-0.0,-0.0,-0.0,-0.1522,-0.3509,-0.4034,-0.5792,-0.7662,-0.7957,-0.8038,-0.8038,-0.8038,-0.8038,-0.8038,-0.8038,-0.8038,-0.8038,-0.8038,-0.8038,-0.8038,-0.8038,-0.8038,-0.8038,-0.8038,-0.8038,-0.8038,-0.8038,-0.8038,-0.8038,-0.8038,-0.8038,-0.8041,-0.8052,-0.8303,-0.8472,-0.8482,-0.8747,-0.8913,-0.8913,-0.8913,-0.8913,-0.8913,-0.8923,-0.8927,-0.8927,-0.8927,-0.893,-0.894,-0.894,-0.894,-0.894,-0.894,-0.9699,0.0,0.0,0.0,0.4889,0.5376,0.5633,0.5793,0.657,0.7249,0.7249,0.8084,0.8765,0.8765,0.8466,0.8237,0.8237,0.8237,0.8237,0.8237,0.8237,0.8012,0.7326,0.7249,0.7045,0.641,0.642,0.6495,0.6549,0.6556,0.6556,0.6556,0.6417,0.6417,0.6428,0.6369,0.6268,0.6285,0.4816,0.2706,-0.0,-0.0,-0.0,-0.0,-0.0,-0.0,-0.0,-0.0,-0.0,-0.0,-0.0,-0.0,-0.0,-0.0,-0.0,-0.0,-0.0,-0.0,-0.0,-0.0,-0.0,-0.0,-0.0,-0.0628,-0.1895,-0.527,-0.7061,-0.7886,-0.7963,-0.8038,-0.8038,-0.8038,-0.8038,-0.8038,-0.8038,-0.8038,-0.8038,-0.8038,-0.8038,-0.8038,-0.8038,-0.8038,-0.8038,-0.8038,-0.8038,-0.8038,-0.8038,-0.8038,-0.8038,-0.8038,-0.8038,-0.8075,-0.8177,-0.8282,-0.8425,-0.8611,-0.873,-0.8832,-0.893,-0.894,-0.894,-0.894,-0.894,-0.894,-0.894,-0.894,-0.894,-0.894,-0.894,-0.894,-0.894,-0.894,-0.9154,-0.0,0.0,0.0,0.0,0.4584,0.5097,0.5728,0.6505,0.7112,0.7291,0.8084,0.8922,0.9226,0.9599,0.9669,0.9372,0.9296,0.9296,0.9296,0.9296,0.9074,0.8389,0.8313,0.7936,0.6872,0.6887,0.6792,0.6479,0.6403,0.6403,0.6403,0.6312,0.6338,0.6338,0.6338,0.6264,0.6274,0.6304,0.489,0.2177,0.068,-0.0,-0.0,-0.0,-0.0,-0.0,-0.0,-0.0,-0.0,-0.0,-0.0,-0.0,-0.0,-0.0,-0.0,-0.0,-0.0,-0.0,-0.0,-0.0,-0.0,-0.0,-0.0,-0.0633,-0.4045,-0.6389,-0.7896,-0.7977,-0.8045,-0.8038,-0.8038,-0.8038,-0.8038,-0.8038,-0.8038,-0.8038,-0.8038,-0.8038,-0.8038,-0.8038,-0.8038,-0.8038,-0.8038,-0.8038,-0.8038,-0.8038,-0.8038,-0.8038,-0.8038,-0.8038,-0.8079,-0.818,-0.8241,-0.835,-0.8547,-0.8655,-0.8754,-0.8855,-0.891,-0.894,-0.894,-0.894,-0.894,-0.894,-0.894,-0.894,-0.894,-0.894,-0.894,-0.894,-0.894,-0.894,0.0,0.0,0.0,0.0,0.0,0.4002,0.5823,0.5895,0.5782,0.6225,0.7088,0.8161,0.9145,1.0115,1.0415,0.9448,0.9377,0.9372,0.9372,0.9372,0.9372,0.9372,0.9372,0.8917,0.7936,0.7783,0.7403,0.6416,0.6338,0.6338,0.6338,0.6338,0.6338,0.6338,0.6338,0.6338,0.6338,0.6271,0.643,0.6562,0.2261,0.0172,-0.0,-0.0,-0.0,-0.0,-0.0,-0.0,-0.0,-0.0,-0.0,-0.0,-0.0,-0.0,-0.0,-0.0,-0.0,-0.0,-0.0,-0.0,-0.0,-0.0,-0.0,-0.0,-0.0,-0.3514,-0.7682,-0.7888,-0.7955,-0.8038,-0.8038,-0.8038,-0.8038,-0.8038,-0.8038,-0.8038,-0.8038,-0.8038,-0.8038,-0.8038,-0.8038,-0.8038,-0.8038,-0.8038,-0.8038,-0.8038,-0.8038,-0.8038,-0.8038,-0.8038,-0.8038,-0.8038,-0.8174,-0.8265,-0.8272,-0.8533,-0.8703,-0.871,-0.8849,-0.8933,-0.894,-0.894,-0.894,-0.894,-0.894,-0.894,-0.894,-0.894,-0.894,-0.894,-0.894,-0.894,-0.0,0.0,0.0,0.0,0.0,0.0,0.4041,0.5265,0.6145,0.6283,0.7703,0.8998,0.9221,0.9518,0.9593,0.9372,1.0496,1.1477,1.1477,1.1477,1.1174,1.049,1.0415,0.9965,0.8993,0.8237,0.7706,0.7403,0.6718,0.6338,0.6338,0.6338,0.6338,0.6338,0.6338,0.6338,0.6338,0.6264,0.6424,0.6566,0.546,0.3173,-0.0,-0.0,-0.0,-0.0,-0.0,-0.0,-0.0,-0.0,-0.0,-0.0,-0.0,-0.0,-0.0,-0.0,-0.0,-0.0,-0.0,-0.0,-0.0,-0.0,-0.0,-0.0,-0.0,-0.2373,-0.546,-0.7483,-0.7955,-0.8038,-0.8038,-0.8038,-0.8038,-0.8038,-0.8038,-0.8038,-0.8038,-0.8038,-0.8038,-0.8038,-0.8038,-0.8038,-0.8038,-0.8038,-0.8038,-0.8038,-0.8038,-0.8038,-0.8038,-0.8038,-0.8038,-0.8038,-0.8079,-0.8147,-0.8262,-0.8347,-0.8482,-0.8696,-0.875,-0.8821,-0.8933,-0.894,-0.894,-0.894,-0.894,-0.894,-0.894,-0.894,-0.894,-0.894,-0.894,-0.894,0.0,0.0,0.0,-0.0,0.0,0.0,0.1918,0.3279,0.4773,0.6054,0.7257,0.8169,0.8618,0.8694,0.8841,0.9221,1.0271,1.1174,1.162,1.1694,1.162,1.1465,1.1465,1.1013,1.004,0.9362,0.8912,0.8466,0.7859,0.7403,0.6949,0.6945,0.6718,0.6338,0.6338,0.6338,0.6338,0.6338,0.6413,0.6636,0.6732,0.5416,0.2861,0.0894,-0.0,-0.0,-0.0,-0.0,-0.0,-0.0,-0.0,-0.0,-0.0,-0.0,-0.0,-0.0,-0.0,-0.0,-0.0,-0.0,-0.0,-0.0,-0.1349,-0.2988,-0.2984,-0.3402,-0.4587,-0.7113,-0.7908,-0.8038,-0.8038,-0.8038,-0.8038,-0.8038,-0.8038,-0.8038,-0.8038,-0.8038,-0.8038,-0.8038,-0.8038,-0.8038,-0.8038,-0.8038,-0.8038,-0.8038,-0.8038,-0.8038,-0.8038,-0.8038,-0.8038,-0.8038,-0.8038,-0.8075,-0.8167,-0.8235,-0.8343,-0.8516,-0.8642,-0.875,-0.8842,-0.8906,-0.894,-0.894,-0.894,-0.8906,-0.8845,-0.8906,-0.894,-0.894,-0.894,-0.894,0.0,0.0,0.0,-0.005,-0.0,0.0,-0.0,0.0857,0.2342,0.507,0.594,0.6579,0.7463,0.7605,0.7821,0.8709,0.8842,0.9285,1.0479,1.0708,1.1162,1.1996,1.2224,1.1922,1.1087,1.0858,1.0415,0.9523,0.9372,0.8927,0.8038,0.7868,0.7403,0.649,0.6338,0.6338,0.6338,0.6278,0.6424,0.6702,0.6739,0.6912,0.692,0.2413,0.0269,-0.0,-0.0,-0.0,-0.0,-0.0,-0.0,-0.0,-0.0,-0.0,-0.0,-0.0,-0.0,-0.0,-0.0,-0.0,-0.0,-0.0,-0.3243,-0.7105,-0.7135,-0.5829,-0.4869,-0.713,-0.7848,-0.8038,-0.8038,-0.8038,-0.8038,-0.8038,-0.8038,-0.8038,-0.8038,-0.8038,-0.8038,-0.8038,-0.8038,-0.8038,-0.8038,-0.8038,-0.8038,-0.8038,-0.8038,-0.8038,-0.8038,-0.8038,-0.8038,-0.8038,-0.8038,-0.8038,-0.8038,-0.8167,-0.8252,-0.8269,-0.8516,-0.8676,-0.871,-0.8842,-0.8913,-0.8913,-0.8896,-0.8821,-0.8686,-0.8838,-0.8913,-0.8913,-0.893,-0.894,-0.3718,-0.2536,-0.1199,-0.0242,-0.0,0.0,-0.0,0.0207,0.0497,0.1091,0.3947,0.633,0.6583,0.6169,0.5958,0.6149,0.6229,0.7056,0.929,1.0265,1.0858,1.1087,1.1842,1.2224,1.1996,1.1316,1.0714,1.0484,0.9744,0.9301,0.932,0.8322,0.7706,0.748,0.6718,0.6338,0.6338,0.6373,0.6522,0.6702,0.6831,0.6993,0.6996,0.4198,0.1876,-0.0,-0.0,-0.0,-0.0,-0.0,-0.0,-0.0,-0.0,-0.0,-0.0,-0.0,-0.0,-0.0,-0.0,-0.0,-0.0,-0.0,-0.3243,-0.7105,-0.7135,-0.6976,-0.7016,-0.7733,-0.8021,-0.8038,-0.8038,-0.8038,-0.8038,-0.8038,-0.8038,-0.8038,-0.8038,-0.8038,-0.8038,-0.8038,-0.8038,-0.8038,-0.8038,-0.8038,-0.8038,-0.8038,-0.8038,-0.8038,-0.8038,-0.8038,-0.8038,-0.8038,-0.8038,-0.8038,-0.8038,-0.8069,-0.8136,-0.8262,-0.8326,-0.8462,-0.8699,-0.8737,-0.8754,-0.8754,-0.8632,-0.8557,-0.8526,-0.8679,-0.8754,-0.8757,-0.8879,-0.894,-0.4532,-0.3831,-0.2919,-0.2026,-0.1329,0.0,0.0,-0.0409,0.0108,0.0566,0.1963,0.3449,0.4501,0.443,0.4427,0.5053,0.5367,0.5931,0.7168,0.8442,0.9664,1.0708,1.1242,1.1768,1.2224,1.1842,1.1602,1.1815,1.1425,1.1091,1.0739,1.0079,0.9551,0.9001,0.7894,0.7342,0.7342,0.6869,0.6664,0.6814,0.6892,0.6927,0.7084,0.5911,0.3396,-0.0,-0.0,-0.0,-0.0,-0.0,-0.0,-0.0,-0.0,-0.0,-0.0,-0.0,-0.0,-0.0,-0.0,-0.0,-0.0,-0.0,-0.243,-0.5338,-0.5368,-0.6423,-0.7682,-0.7963,-0.8038,-0.8038,-0.8038,-0.8038,-0.8038,-0.8038,-0.8038,-0.8038,-0.8038,-0.8038,-0.8038,-0.8038,-0.8038,-0.8038,-0.8038,-0.8038,-0.8038,-0.8038,-0.8038,-0.8038,-0.8038,-0.8038,-0.8038,-0.8038,-0.8038,-0.8038,-0.8038,-0.8038,-0.8072,-0.815,-0.8228,-0.8336,-0.8486,-0.856,-0.8598,-0.8598,-0.8452,-0.8377,-0.8377,-0.8455,-0.8526,-0.8601,-0.8754,-0.8825,-0.4538,-0.4456,-0.4334,-0.3907,-0.2955,-0.2123,0.0,0.0,0.0,0.0515,0.0116,0.0233,0.215,0.2497,0.3025,0.4622,0.4793,0.4877,0.5217,0.6368,0.7888,0.9763,1.0454,1.1101,1.184,1.2025,1.2331,1.2876,1.2906,1.2726,1.2135,1.1852,1.1335,1.0525,0.9136,0.8401,0.8401,0.73,0.6807,0.6929,0.6956,0.6954,0.7078,0.7094,0.4746,0.0626,0.0179,-0.0,-0.0,-0.0,-0.0,-0.0,-0.0,-0.0,-0.0,-0.0,-0.0,-0.0,-0.0,-0.0,-0.018,-0.1079,-0.2337,-0.3687,-0.4224,-0.5901,-0.7655,-0.7923,-0.8018,-0.8038,-0.8038,-0.8038,-0.8038,-0.8038,-0.8038,-0.8038,-0.8038,-0.8038,-0.8038,-0.8038,-0.8038,-0.8038,-0.8038,-0.8038,-0.8038,-0.8038,-0.8038,-0.8038,-0.8038,-0.8038,-0.8038,-0.8038,-0.8038,-0.8038,-0.8038,-0.8038,-0.8038,-0.8038,-0.8157,-0.8238,-0.8269,-0.8381,-0.8442,-0.8442,-0.8299,-0.8225,-0.8225,-0.8225,-0.8299,-0.8445,-0.8598,-0.8682,-0.4408,-0.421,-0.4246,-0.4393,-0.3913,-0.3387,-0.3378,0.0,-0.285,-0.167,0.0,-0.1209,0.0093,0.0,0.0,0.4392,0.3397,0.2843,0.4681,0.4883,0.5366,0.6727,0.9189,1.0664,1.0374,1.1015,1.1977,1.308,1.2452,1.2404,1.3371,1.2283,1.1662,1.1502,0.9461,0.8401,0.8401,0.7414,0.6912,0.6929,0.7054,0.7126,0.7058,0.7088,0.5646,0.3035,0.0896,-0.0,-0.0,-0.0,-0.0,-0.0,-0.0,-0.0,-0.0,-0.0,-0.0,-0.0,-0.0,-0.0,-0.0719,-0.4966,-0.5039,-0.4036,-0.6318,-0.7293,-0.7634,-0.779,-0.7933,-0.8038,-0.8038,-0.8038,-0.8038,-0.8038,-0.8038,-0.8038,-0.8038,-0.8038,-0.8038,-0.8038,-0.8038,-0.8038,-0.8038,-0.8038,-0.8038,-0.8038,-0.8038,-0.8038,-0.8038,-0.8038,-0.8038,-0.8038,-0.8038,-0.8038,-0.8038,-0.8038,-0.8038,-0.8038,-0.8055,-0.8126,-0.8265,-0.8286,-0.8296,-0.8296,-0.8143,-0.8065,-0.8065,-0.8065,-0.8143,-0.8299,-0.8442,-0.8581,-0.4246,-0.4304,-0.4419,-0.4174,-0.4087,-0.4046,-0.3665,-0.3587,-0.3448,-0.2948,0.0,0.0,0.0,0.0,0.0,0.0,0.1728,0.2282,0.4581,0.4203,0.4224,0.5663,0.7272,0.8506,0.9159,1.0497,1.125,1.1284,1.1642,1.1884,1.1893,1.1321,1.1093,1.1093,0.9493,0.8649,0.8649,0.762,0.7051,0.7051,0.7112,0.7139,0.7143,0.7088,0.5824,0.3481,0.1076,-0.0,-0.0,-0.0,-0.0,-0.0,-0.0,-0.0,-0.0,-0.0,-0.0,-0.0,-0.0,-0.0,-0.0809,-0.5594,-0.6397,-0.5847,-0.708,-0.7499,-0.7631,-0.777,-0.7923,-0.8038,-0.8038,-0.8038,-0.8038,-0.8038,-0.8038,-0.8038,-0.8038,-0.8038,-0.8038,-0.8038,-0.8038,-0.8038,-0.8038,-0.8038,-0.8038,-0.8038,-0.8038,-0.8038,-0.8038,-0.8038,-0.8038,-0.8038,-0.8038,-0.8038,-0.8038,-0.8038,-0.8038,-0.8038,-0.8038,-0.8069,-0.8133,-0.8136,-0.8136,-0.8136,-0.8072,-0.8038,-0.8038,-0.8038,-0.8072,-0.814,-0.8289,-0.8438,-0.4267,-0.4409,-0.4555,-0.3995,-0.407,-0.4216,-0.3734,-0.3609,-0.3581,-0.3581,-0.3588,0.0,0.0,0.0,-0.2008,-0.1117,0.0,0.1776,0.4081,0.3743,0.3632,0.4793,0.5722,0.6818,0.8285,0.9508,1.0118,0.971,1.0561,1.098,1.0585,1.0575,1.0611,1.0611,0.9492,0.889,0.889,0.7665,0.7139,0.7139,0.7058,0.7061,0.7061,0.7094,0.6195,0.4387,0.1345,-0.0,-0.0,-0.0,-0.0,-0.0,-0.0,-0.0,-0.0,-0.0,-0.0,-0.0,-0.0,-0.0899,-0.2425,-0.5216,-0.6563,-0.7115,-0.7302,-0.7458,-0.7621,-0.7726,-0.7892,-0.8038,-0.8038,-0.8038,-0.8038,-0.8038,-0.8038,-0.8038,-0.8038,-0.8038,-0.8038,-0.8038,-0.8038,-0.8038,-0.8038,-0.8038,-0.8038,-0.8038,-0.8038,-0.8038,-0.8038,-0.8038,-0.8038,-0.8038,-0.8038,-0.8038,-0.8038,-0.8038,-0.8038,-0.8038,-0.8038,-0.8038,-0.8038,-0.8038,-0.8038,-0.8038,-0.8038,-0.8038,-0.8038,-0.8038,-0.8038,-0.8041,-0.8153,-0.8306,-0.4745,-0.4568,-0.4582,-0.4124,-0.3914,-0.3809,-0.3788,-0.368,-0.3581,-0.3581,-0.3581,-0.3581,-0.3581,-0.3578,-0.3537,-0.3503,-0.1479,0.0,0.0,0.3407,0.3601,0.367,0.4931,0.6392,0.7806,0.7849,0.8151,0.905,0.9148,0.9521,1.033,1.0489,1.0611,1.0611,0.9492,0.889,0.889,0.7665,0.7139,0.7139,0.7074,0.7084,0.7084,0.7118,0.7045,0.6767,0.2066,-0.0,-0.0,-0.0,-0.0,-0.0,-0.0,-0.0,-0.0,-0.0,-0.0,-0.0,-0.0,-0.3056,-0.6493,-0.4385,-0.5275,-0.7081,-0.7064,-0.736,-0.76,-0.7604,-0.7818,-0.8038,-0.8038,-0.8038,-0.8038,-0.8038,-0.8038,-0.8038,-0.8038,-0.8038,-0.8038,-0.8038,-0.8038,-0.8038,-0.8038,-0.8038,-0.8038,-0.8038,-0.8038,-0.8038,-0.8038,-0.8038,-0.8038,-0.8038,-0.8038,-0.8038,-0.8038,-0.8038,-0.8038,-0.8038,-0.8038,-0.8038,-0.8038,-0.8038,-0.8038,-0.8038,-0.8038,-0.8038,-0.8038,-0.8038,-0.8038,-0.8038,-0.8045,-0.8201,-0.4847,-0.502,-0.5108,-0.4304,-0.4355,-0.4382,-0.3785,-0.3615,-0.3581,-0.3581,-0.3581,-0.3581,-0.3581,-0.3581,-0.3581,-0.3585,-0.2907,-0.1561,0.0,0.1164,0.1792,0.342,0.4021,0.4552,0.498,0.6397,0.7216,0.6911,0.7868,0.8354,0.8086,0.8178,0.8269,0.8269,0.7925,0.7753,0.7753,0.7316,0.7058,0.7074,0.7081,0.6269,0.4825,0.6391,0.7135,0.6863,0.2066,-0.0,-0.0,-0.0,-0.0,-0.0,-0.0,-0.0,-0.0,-0.0,-0.0,-0.0,-0.0,-0.3145,-0.6949,-0.6195,-0.6453,-0.7081,-0.7058,-0.7356,-0.76,-0.76,-0.7811,-0.8038,-0.8038,-0.8038,-0.8038,-0.8038,-0.8038,-0.8038,-0.8038,-0.8038,-0.8038,-0.8038,-0.8038,-0.8038,-0.8038,-0.8038,-0.8038,-0.8038,-0.8038,-0.8038,-0.8038,-0.8038,-0.8038,-0.8038,-0.8038,-0.8038,-0.8038,-0.8038,-0.8038,-0.8038,-0.8038,-0.8038,-0.8038,-0.8038,-0.8038,-0.8038,-0.8038,-0.8089,-0.8194,-0.8194,-0.8241,-0.8333,-0.8333,-0.8387,-0.5203,-0.5369,-0.5413,-0.4612,-0.4646,-0.4724,-0.3985,-0.3819,-0.3819,-0.3819,-0.369,-0.3676,-0.3999,-0.3795,-0.3632,-0.3792,-0.3683,-0.2768,0.0,-0.0,0.0582,0.2113,0.2685,0.315,0.3545,0.4994,0.5791,0.5698,0.6786,0.7215,0.6834,0.7034,0.7139,0.7139,0.7139,0.7139,0.7139,0.7139,0.7064,0.7084,0.6266,0.546,0.4839,0.4672,0.4589,0.4408,0.1347,-0.0,-0.0,-0.0,-0.0,-0.0,-0.0,-0.0,-0.0,-0.0,-0.0,-0.027,-0.1976,-0.3952,-0.6022,-0.6828,-0.7084,-0.7071,-0.7058,-0.7316,-0.7529,-0.7584,-0.7773,-0.797,-0.8024,-0.8038,-0.8038,-0.8038,-0.8038,-0.8038,-0.8038,-0.8038,-0.8038,-0.8038,-0.8038,-0.8038,-0.8038,-0.8038,-0.8038,-0.8038,-0.8038,-0.8038,-0.8038,-0.8038,-0.8038,-0.8038,-0.8038,-0.8038,-0.8038,-0.8038,-0.8038,-0.8038,-0.8038,-0.8065,-0.8119,-0.8123,-0.8147,-0.8194,-0.8197,-0.8248,-0.8347,-0.8347,-0.8391,-0.8482,-0.8537,-0.8564]},{"header":{"parameterUnit":"m.s-1","parameterCategory":1,"la1":30.6,"la2":29.2853,"lo1":-89.7004,"lo2":-87.6739,"dy":0.0162,"dx":0.0183,"nx":112,"ny":82,"refTime":"2023-04-24T18:00:00:Z","depth":0,"parameterNumber":3,"parameterNumberName":"V-component_of_WINDS"},"data":[0.0,0.0,0.0,0.0,0.0,0.0,0.0,0.0,0.0,0.0,0.0,0.0,0.0,0.0,0.0,0.0,0.0,0.0,0.0,0.0,0.0,0.0,0.0,0.0,0.0,0.0,0.0,0.0,0.0,0.0,0.0,0.0,0.0,0.0,0.0,0.0,0.0,0.0,0.0,0.0,0.0,0.0,0.0,0.0,0.0,0.0,0.0,0.0,0.0,0.0,0.0,0.0,0.0,0.0,0.0,0.0,0.0,0.0,0.0,0.0,0.0,0.0,0.0,0.0,0.0,0.0,0.0,0.0,0.0,0.0,0.0,0.0,0.0,0.0,0.0,0.0,0.0,0.0,0.0,0.0,0.0,0.0,0.0,0.0,0.0,0.0,0.0,0.0,0.0,0.0,-3.886,-3.9273,-4.239,-4.4766,-4.5551,-4.6373,-4.5807,-4.3521,0.0,0.0,0.0,0.0,0.0,0.0,0.0,0.0,0.0,0.0,0.0,0.0,0.0,0.0,0.0,0.0,0.0,0.0,0.0,0.0,0.0,0.0,0.0,0.0,0.0,0.0,0.0,0.0,0.0,0.0,0.0,0.0,0.0,0.0,0.0,0.0,0.0,0.0,0.0,0.0,0.0,0.0,0.0,0.0,0.0,0.0,0.0,0.0,0.0,0.0,0.0,0.0,0.0,0.0,0.0,0.0,0.0,0.0,0.0,0.0,0.0,0.0,0.0,0.0,0.0,0.0,0.0,0.0,0.0,0.0,0.0,0.0,0.0,0.0,0.0,0.0,0.0,0.0,0.0,0.0,0.0,0.0,0.0,0.0,0.0,0.0,0.0,0.0,0.0,0.0,0.0,0.0,0.0,0.0,0.0,0.0,0.0,0.0,0.0,0.0,0.0,0.0,0.0,0.0,-3.9557,-4.185,-4.2777,-4.3565,-4.4306,-4.5134,-4.4771,-4.2838,0.0,0.0,0.0,0.0,0.0,0.0,0.0,0.0,0.0,0.0,0.0,0.0,0.0,0.0,0.0,0.0,0.0,0.0,0.0,0.0,0.0,0.0,0.0,0.0,0.0,0.0,0.0,0.0,0.0,0.0,0.0,0.0,0.0,0.0,0.0,0.0,0.0,0.0,0.0,0.0,0.0,0.0,0.0,0.0,0.0,0.0,0.0,0.0,0.0,0.0,0.0,0.0,0.0,0.0,0.0,0.0,0.0,0.0,0.0,0.0,0.0,0.0,0.0,0.0,0.0,0.0,0.0,0.0,0.0,0.0,0.0,0.0,0.0,0.0,0.0,0.0,0.0,0.0,0.0,0.0,0.0,0.0,0.0,0.0,0.0,0.0,0.0,0.0,0.0,0.0,0.0,0.0,0.0,0.0,0.0,0.0,0.0,0.0,0.0,0.0,0.0,0.0,0.0,-3.725,-3.8757,-4.1868,-4.2299,-4.2686,-4.3465,-4.42,-4.3784,-4.1721,-4.2192,0.0,0.0,0.0,0.0,0.0,0.0,0.0,0.0,0.0,0.0,0.0,0.0,0.0,0.0,0.0,0.0,0.0,0.0,0.0,0.0,0.0,0.0,0.0,0.0,0.0,0.0,0.0,0.0,0.0,0.0,0.0,0.0,0.0,0.0,0.0,0.0,0.0,0.0,0.0,0.0,0.0,0.0,0.0,0.0,0.0,0.0,0.0,0.0,0.0,0.0,0.0,0.0,0.0,0.0,0.0,0.0,0.0,0.0,0.0,0.0,0.0,0.0,0.0,0.0,0.0,0.0,0.0,0.0,0.0,0.0,0.0,0.0,0.0,0.0,0.0,0.0,0.0,0.0,0.0,0.0,0.0,0.0,0.0,0.0,0.0,0.0,0.0,0.0,0.0,0.0,0.0,0.0,0.0,0.0,0.0,0.0,0.0,0.0,0.0,0.0,0.0,0.0,-3.7503,-3.8655,-4.1304,-4.1446,-4.1735,-4.2535,-4.3103,-4.257,-4.0599,-4.0979,0.0,0.0,0.0,0.0,0.0,0.0,0.0,0.0,0.0,0.0,0.0,0.0,0.0,0.0,0.0,0.0,0.0,0.0,0.0,0.0,0.0,0.0,0.0,0.0,0.0,0.0,0.0,0.0,0.0,0.0,0.0,0.0,0.0,0.0,0.0,0.0,0.0,0.0,0.0,0.0,0.0,0.0,0.0,0.0,0.0,0.0,0.0,0.0,0.0,0.0,0.0,0.0,0.0,0.0,0.0,0.0,0.0,0.0,0.0,0.0,0.0,0.0,0.0,0.0,0.0,0.0,0.0,0.0,0.0,0.0,0.0,0.0,0.0,0.0,0.0,0.0,0.0,0.0,0.0,0.0,0.0,0.0,0.0,0.0,0.0,0.0,0.0,0.0,0.0,0.0,0.0,0.0,0.0,0.0,0.0,0.0,0.0,0.0,0.0,0.0,0.0,0.0,-3.9394,-4.0683,-4.0915,-4.0497,-4.051,-4.1274,-4.1393,-4.0931,-3.9853,-3.9846,0.0,0.0,0.0,0.0,0.0,0.0,0.0,0.0,0.0,0.0,0.0,0.0,0.0,0.0,0.0,0.0,0.0,0.0,0.0,0.0,0.0,0.0,0.0,0.0,0.0,0.0,0.0,0.0,0.0,0.0,0.0,0.0,0.0,0.0,0.0,0.0,0.0,0.0,0.0,0.0,0.0,0.0,0.0,0.0,0.0,0.0,0.0,0.0,0.0,0.0,0.0,0.0,0.0,0.0,0.0,0.0,0.0,0.0,0.0,0.0,0.0,0.0,0.0,0.0,0.0,0.0,0.0,0.0,0.0,0.0,0.0,0.0,0.0,0.0,0.0,0.0,0.0,0.0,0.0,0.0,0.0,0.0,0.0,0.0,0.0,0.0,0.0,0.0,0.0,0.0,0.0,0.0,0.0,0.0,0.0,0.0,0.0,0.0,0.0,0.0,0.0,0.0,-3.7716,-3.9089,-4.0263,-4.0204,-4.0189,-4.0476,-4.0933,-4.0256,-3.803,0.0,0.0,0.0,0.0,0.0,0.0,0.0,0.0,0.0,0.0,0.0,0.0,0.0,0.0,0.0,0.0,0.0,0.0,0.0,0.0,0.0,0.0,0.0,0.0,0.0,0.0,0.0,0.0,0.0,0.0,0.0,0.0,0.0,0.0,0.0,0.0,0.0,0.0,0.0,0.0,0.0,0.0,0.0,0.0,0.0,0.0,0.0,0.0,0.0,0.0,0.0,0.0,0.0,0.0,0.0,0.0,0.0,0.0,0.0,0.0,0.0,0.0,0.0,0.0,0.0,0.0,0.0,0.0,0.0,0.0,0.0,0.0,0.0,0.0,0.0,0.0,0.0,0.0,0.0,0.0,0.0,0.0,0.0,0.0,0.0,0.0,0.0,0.0,0.0,0.0,0.0,0.0,0.0,0.0,0.0,0.0,0.0,0.0,0.0,0.0,0.0,0.0,-3.5736,-3.7222,-3.8679,-3.9952,-4.007,-4.007,-4.007,-4.0544,-3.9681,-3.6958,0.0,0.0,0.0,0.0,0.0,0.0,0.0,0.0,0.0,0.0,0.0,0.0,0.0,0.0,0.0,0.0,0.0,0.0,0.0,0.0,0.0,0.0,0.0,0.0,0.0,0.0,0.0,0.0,0.0,0.0,0.0,0.0,0.0,0.0,0.0,0.0,0.0,0.0,0.0,0.0,0.0,0.0,0.0,0.0,0.0,0.0,0.0,0.0,0.0,0.0,0.0,0.0,0.0,0.0,0.0,0.0,0.0,0.0,0.0,0.0,0.0,0.0,0.0,0.0,0.0,0.0,0.0,0.0,0.0,0.0,0.0,0.0,0.0,0.0,0.0,0.0,0.0,0.0,0.0,0.0,0.0,0.0,0.0,0.0,0.0,0.0,0.0,0.0,0.0,0.0,0.0,0.0,0.0,0.0,0.0,0.0,0.0,0.0,0.0,0.0,0.0,0.0,-3.6291,-3.8525,-4.007,-4.007,-4.007,-4.007,-4.007,-4.007,-3.9123,0.0,0.0,0.0,0.0,0.0,0.0,0.0,0.0,0.0,0.0,0.0,0.0,0.0,0.0,0.0,0.0,0.0,0.0,0.0,0.0,0.0,0.0,0.0,0.0,0.0,0.0,0.0,0.0,0.0,0.0,0.0,0.0,0.0,0.0,0.0,0.0,0.0,0.0,0.0,0.0,0.0,0.0,0.0,0.0,0.0,0.0,0.0,0.0,0.0,0.0,0.0,0.0,0.0,0.0,0.0,0.0,0.0,0.0,0.0,0.0,0.0,0.0,0.0,0.0,0.0,0.0,0.0,0.0,0.0,0.0,0.0,0.0,0.0,0.0,0.0,0.0,0.0,0.0,0.0,0.0,0.0,0.0,0.0,0.0,0.0,0.0,0.0,0.0,0.0,0.0,0.0,0.0,0.0,0.0,0.0,0.0,0.0,0.0,0.0,0.0,0.0,0.0,0.0,-3.5854,-3.8323,-4.007,-4.007,-4.007,-4.007,-4.007,-4.007,-3.8903,-3.6146,0.0,0.0,0.0,0.0,0.0,0.0,0.0,0.0,0.0,0.0,0.0,0.0,0.0,0.0,0.0,0.0,0.0,0.0,0.0,0.0,0.0,0.0,0.0,0.0,0.0,0.0,0.0,0.0,0.0,0.0,0.0,0.0,0.0,0.0,0.0,0.0,0.0,0.0,0.0,0.0,0.0,0.0,0.0,0.0,0.0,0.0,0.0,0.0,0.0,0.0,0.0,0.0,0.0,0.0,0.0,0.0,0.0,0.0,0.0,0.0,0.0,0.0,0.0,0.0,0.0,0.0,0.0,0.0,0.0,0.0,0.0,0.0,0.0,0.0,0.0,0.0,0.0,0.0,0.0,0.0,0.0,0.0,0.0,0.0,0.0,0.0,0.0,0.0,0.0,0.0,0.0,0.0,0.0,0.0,0.0,0.0,0.0,0.0,0.0,0.0,0.0,0.0,-3.5622,-3.8227,-4.007,-4.007,-4.007,-4.007,-4.007,-4.007,-3.9073,-3.6688,0.0,0.0,0.0,0.0,0.0,0.0,0.0,0.0,0.0,0.0,0.0,0.0,0.0,0.0,0.0,0.0,0.0,0.0,0.0,0.0,0.0,0.0,0.0,0.0,0.0,0.0,0.0,0.0,0.0,0.0,0.0,0.0,0.0,0.0,0.0,0.0,0.0,0.0,0.0,0.0,0.0,0.0,0.0,0.0,0.0,0.0,0.0,0.0,0.0,0.0,0.0,0.0,0.0,0.0,0.0,0.0,0.0,0.0,0.0,0.0,0.0,0.0,0.0,0.0,0.0,0.0,0.0,0.0,0.0,0.0,0.0,0.0,0.0,0.0,0.0,0.0,0.0,0.0,0.0,0.0,0.0,0.0,0.0,0.0,0.0,0.0,0.0,0.0,0.0,0.0,0.0,0.0,0.0,0.0,0.0,0.0,0.0,0.0,0.0,0.0,0.0,0.0,-3.5622,-3.8227,-4.007,-4.007,-4.007,-4.007,-4.007,-4.007,-3.9462,-3.799,0.0,0.0,0.0,0.0,0.0,0.0,0.0,0.0,0.0,0.0,0.0,0.0,0.0,0.0,0.0,0.0,0.0,0.0,0.0,0.0,0.0,0.0,0.0,0.0,0.0,0.0,0.0,0.0,0.0,0.0,0.0,0.0,0.0,0.0,0.0,0.0,0.0,0.0,0.0,0.0,0.0,0.0,0.0,0.0,0.0,0.0,0.0,0.0,0.0,0.0,0.0,0.0,0.0,0.0,0.0,0.0,0.0,0.0,0.0,0.0,-3.9059,-3.8474,0.0,0.0,0.0,0.0,0.0,0.0,0.0,0.0,0.0,0.0,0.0,0.0,0.0,0.0,0.0,0.0,0.0,0.0,0.0,0.0,0.0,0.0,0.0,0.0,0.0,0.0,0.0,0.0,0.0,0.0,0.0,0.0,0.0,0.0,0.0,0.0,0.0,0.0,0.0,0.0,-3.5622,-3.8227,-4.007,-4.007,-4.007,-4.007,-4.007,-4.007,-3.9462,-3.799,-3.7449,0.0,0.0,0.0,0.0,0.0,0.0,0.0,0.0,0.0,0.0,0.0,0.0,0.0,0.0,0.0,0.0,0.0,0.0,0.0,0.0,0.0,0.0,0.0,0.0,0.0,0.0,0.0,0.0,0.0,0.0,0.0,0.0,0.0,0.0,0.0,0.0,0.0,0.0,0.0,0.0,0.0,0.0,0.0,0.0,0.0,0.0,0.0,0.0,0.0,0.0,0.0,0.0,0.0,0.0,0.0,0.0,0.0,0.0,0.0,-3.8558,-3.8708,0.0,0.0,0.0,0.0,0.0,0.0,0.0,0.0,0.0,0.0,0.0,0.0,0.0,0.0,0.0,0.0,0.0,0.0,0.0,0.0,0.0,0.0,0.0,0.0,0.0,0.0,0.0,0.0,0.0,0.0,0.0,0.0,0.0,0.0,0.0,0.0,0.0,0.0,0.0,0.0,-3.5622,-3.8227,-4.007,-4.007,-4.007,-4.007,-4.007,-4.007,-3.9749,-3.9005,-3.7956,0.0,0.0,0.0,0.0,0.0,0.0,0.0,0.0,0.0,0.0,0.0,0.0,0.0,0.0,0.0,0.0,0.0,0.0,0.0,0.0,0.0,0.0,0.0,0.0,0.0,0.0,0.0,0.0,0.0,0.0,0.0,0.0,0.0,0.0,0.0,0.0,0.0,0.0,0.0,0.0,0.0,0.0,0.0,0.0,0.0,0.0,0.0,0.0,0.0,0.0,0.0,0.0,0.0,-3.7633,-3.7578,-3.7155,-3.602,-3.6266,-3.761,-3.7918,-3.8795,-3.9823,-3.74,0.0,0.0,0.0,0.0,0.0,0.0,0.0,0.0,0.0,0.0,0.0,0.0,0.0,0.0,0.0,0.0,0.0,0.0,0.0,0.0,0.0,0.0,-3.8064,-3.831,-3.8943,-3.935,-3.8678,0.0,0.0,0.0,0.0,0.0,0.0,0.0,0.0,0.0,0.0,0.0,-3.5994,-3.8396,-4.007,-4.007,-4.007,-4.007,-4.007,-4.007,-4.007,-4.007,-3.8362,-3.7246,0.0,0.0,0.0,0.0,0.0,0.0,0.0,0.0,0.0,0.0,0.0,0.0,0.0,0.0,0.0,0.0,0.0,0.0,0.0,0.0,0.0,0.0,0.0,0.0,0.0,0.0,0.0,0.0,0.0,0.0,0.0,0.0,-3.7759,-3.7465,0.0,0.0,0.0,0.0,0.0,0.0,0.0,0.0,0.0,0.0,0.0,0.0,0.0,-3.6174,-3.6303,-3.6653,-3.6823,-3.6823,-3.7149,-3.7248,-3.7173,-3.6539,-3.6728,-3.7482,-3.7175,0.0,-3.7668,-3.7895,0.0,0.0,0.0,0.0,0.0,0.0,0.0,0.0,0.0,0.0,0.0,0.0,0.0,0.0,0.0,0.0,0.0,0.0,0.0,0.0,0.0,0.0,-4.1047,-4.0612,-4.0225,-3.998,-3.9878,-3.8019,-3.6197,-3.5581,-3.5433,-3.4931,0.0,0.0,0.0,0.0,0.0,0.0,-3.7432,-3.9056,-4.007,-4.007,-4.007,-4.007,-4.007,-4.007,-4.007,-4.007,-3.98,-3.9073,-3.7821,-3.7567,0.0,0.0,0.0,0.0,0.0,0.0,0.0,0.0,0.0,0.0,0.0,0.0,0.0,0.0,0.0,0.0,0.0,0.0,0.0,0.0,0.0,0.0,0.0,0.0,0.0,0.0,0.0,0.0,0.0,-3.6843,-3.6931,-3.6653,-3.6151,-3.5606,0.0,0.0,0.0,0.0,0.0,0.0,0.0,0.0,0.0,-3.608,-3.6065,-3.6314,-3.6782,-3.6916,-3.697,-3.697,-3.6823,-3.6764,-3.6724,-3.6165,-3.6112,-3.642,-3.6186,-3.6205,-3.6308,-3.6654,-3.5956,-3.468,0.0,0.0,0.0,0.0,-3.4214,-3.4841,-3.669,-3.7976,-3.874,-3.8258,0.0,0.0,0.0,0.0,0.0,0.0,0.0,-3.745,-3.9263,-3.9673,-3.9824,-4.0712,-4.0497,-4.007,-4.007,-3.9217,-3.8138,-3.7106,-3.6214,-3.5148,-3.366,-3.3744,0.0,0.0,0.0,-3.5859,-3.6535,-3.7922,-3.8853,-3.8853,-3.8853,-3.8853,-3.8853,-3.8853,-3.9039,-3.9445,-3.9462,-3.9377,-3.914,-3.8345,-3.7127,0.0,0.0,0.0,0.0,0.0,0.0,0.0,0.0,0.0,0.0,0.0,0.0,0.0,0.0,0.0,0.0,0.0,0.0,0.0,0.0,0.0,0.0,0.0,0.0,0.0,0.0,0.0,0.0,-3.6596,-3.6652,-3.6158,-3.6119,-3.5758,0.0,0.0,0.0,0.0,0.0,0.0,-3.5836,-3.5687,-3.5809,-3.6215,-3.6233,-3.6534,-3.7173,-3.7058,-3.6999,-3.6999,-3.644,-3.6182,-3.6182,-3.5783,-3.5622,-3.5622,-3.5622,-3.5622,-3.5639,-3.5825,-3.5673,-3.525,-3.4336,-3.3744,-3.3457,-3.3829,-3.432,-3.5084,-3.6989,-3.8397,-3.934,-3.9248,-3.9409,-3.9538,-3.8896,0.0,0.0,0.0,0.0,-3.6951,-3.876,-3.8685,-3.8457,-3.9782,-3.9805,-3.9529,-3.9529,-3.9225,-3.8785,-3.8278,-3.7263,-3.596,-3.4269,-3.4421,0.0,-3.3305,-3.4556,-3.5757,-3.6163,-3.7195,-3.7905,-3.7905,-3.7905,-3.7905,-3.7905,-3.7905,-3.8142,-3.8684,-3.8717,-3.9039,-3.9766,-3.8751,-3.8007,-3.7635,0.0,0.0,0.0,0.0,0.0,0.0,0.0,0.0,0.0,0.0,0.0,0.0,0.0,0.0,0.0,0.0,0.0,0.0,0.0,0.0,0.0,0.0,0.0,0.0,0.0,0.0,0.0,0.0,0.0,-3.6771,-3.7317,0.0,0.0,0.0,0.0,-3.6229,-3.5817,-3.5872,-3.6597,-3.6185,-3.6288,-3.7102,-3.712,-3.7137,-3.719,-3.6684,-3.6457,-3.6416,-3.5898,-3.5667,-3.5667,-3.5622,-3.5622,-3.5622,-3.5622,-3.5622,-3.5673,-3.6417,-3.5859,-3.4624,-3.525,-3.4641,-3.3575,-3.4979,-3.5537,-3.5774,-3.736,-3.8254,-3.8495,-3.6988,-3.6158,-3.615,-3.8107,-3.7307,0.0,0.0,-3.7578,-3.7468,-3.8467,-3.8695,-3.857,-3.8146,-3.8007,-3.8024,-3.8024,-3.6874,-3.6451,-3.8531,-3.887,-3.8125,-3.5893,0.0,-3.5537,-3.547,-3.5554,-3.6146,-3.7601,-3.7855,-3.7905,-3.7905,-3.7905,-3.7905,-3.7905,-3.7905,-3.7922,-3.7956,-3.7973,-3.8294,-3.9005,-3.8971,-3.8278,-3.6857,-3.8016,0.0,0.0,0.0,0.0,0.0,0.0,0.0,0.0,0.0,0.0,0.0,0.0,0.0,0.0,0.0,0.0,0.0,0.0,0.0,0.0,0.0,0.0,0.0,0.0,0.0,0.0,0.0,0.0,-3.6582,-3.7156,0.0,-3.6405,-3.6468,-3.6554,-3.6554,-3.6572,-3.6575,-3.652,-3.6344,-3.6186,-3.6147,-3.6165,-3.6165,-3.6165,-3.5968,-3.5898,-3.5898,-3.5694,-3.5622,-3.5622,-3.5622,-3.5622,-3.5622,-3.5622,-3.5622,-3.5639,-3.591,-3.5707,-3.525,-3.552,-3.5301,-3.4895,-3.5436,-3.5943,-3.6451,-3.6992,-3.8084,-3.9224,-3.937,-3.9277,-3.9268,-4.0001,-3.9446,-3.8617,-3.8845,-3.8541,-3.8129,-3.818,-3.8213,-3.8138,-3.7953,-3.7905,-3.7905,-3.7905,-3.7483,-3.7178,-3.7499,-3.7161,-3.6569,-3.5757,-3.6028,-3.6045,-3.5047,-3.5318,-3.5825,-3.6366,-3.6434,-3.6434,-3.6434,-3.6434,-3.6434,-3.6434,-3.6434,-3.6654,-3.7144,-3.7178,-3.7516,-3.8261,-3.8751,-3.8911,-3.8717,-4.0036,-3.8906,0.0,0.0,0.0,0.0,0.0,0.0,0.0,0.0,0.0,0.0,0.0,0.0,0.0,0.0,0.0,0.0,0.0,0.0,0.0,0.0,0.0,0.0,0.0,0.0,0.0,-3.7374,-3.7717,-3.6462,-3.7239,-3.7588,-3.678,-3.7124,-3.7286,-3.7136,-3.7184,-3.696,-3.6416,-3.6224,-3.5985,-3.5622,-3.5622,-3.5622,-3.5622,-3.5622,-3.5622,-3.5622,-3.5622,-3.5622,-3.5622,-3.5622,-3.5622,-3.5622,-3.5622,-3.5622,-3.5622,-3.5622,-3.5694,-3.5854,-3.565,-3.5622,-3.5622,-3.581,-3.6195,-3.6666,-3.6869,-3.7701,-3.8869,-3.9728,-4.002,-4.0054,-4.0221,-4.0002,-3.9588,-3.9097,-3.8576,-3.8017,-3.7535,-3.7267,-3.7127,-3.7127,-3.7127,-3.7127,-3.7127,-3.7127,-3.6992,-3.6485,-3.618,-3.5926,-3.5673,-3.6045,-3.5876,-3.4353,-3.4979,-3.5436,-3.4928,-3.5318,-3.5622,-3.5622,-3.5622,-3.5622,-3.5622,-3.5165,-3.5301,-3.6315,-3.5926,-3.6214,-3.7483,-3.7499,-3.7636,-3.8006,-3.9498,-3.9053,-3.6534,0.0,0.0,0.0,0.0,0.0,0.0,0.0,0.0,0.0,0.0,0.0,0.0,0.0,0.0,0.0,0.0,0.0,0.0,0.0,0.0,0.0,0.0,0.0,-3.7213,-3.7609,-3.7559,-3.6507,-3.7753,-3.8395,-3.7606,-3.823,-3.8465,-3.7911,-3.7433,-3.696,-3.6416,-3.5898,-3.5622,-3.5622,-3.5622,-3.5622,-3.5622,-3.5622,-3.5622,-3.5622,-3.5622,-3.5622,-3.5622,-3.5622,-3.5622,-3.5622,-3.5622,-3.5622,-3.5605,-3.5605,-3.5941,-3.6374,-3.581,-3.5622,-3.5694,-3.6207,-3.6416,-3.6498,-3.7038,-3.721,-3.7285,-3.7755,-3.7928,-3.8013,-3.8546,-3.8707,-3.8578,-3.8065,-3.7578,-3.7097,-3.6539,-3.6011,-3.5622,-3.5622,-3.5622,-3.5622,-3.5622,-3.5622,-3.5622,-3.5622,-3.6231,-3.6502,-3.574,-3.5622,-3.5131,-3.3694,-3.4692,0.0,-3.366,-3.4742,-3.5605,-3.5554,-3.5554,-3.5554,-3.5554,-3.4235,-3.4032,-3.552,-3.4269,-3.4455,-3.6654,-3.5334,-3.4617,-3.4677,-3.6422,-3.815,-3.9845,0.0,0.0,0.0,0.0,0.0,0.0,0.0,0.0,0.0,0.0,0.0,0.0,0.0,0.0,0.0,0.0,0.0,0.0,0.0,0.0,0.0,-3.6546,-3.7718,-3.7923,-3.8644,-3.8864,-3.8136,-3.8432,-3.8615,-3.8395,-3.8223,-3.7911,-3.7433,-3.6904,-3.6374,-3.5854,-3.5694,-3.5622,-3.5622,-3.5622,-3.5622,-3.5622,-3.5622,-3.5622,-3.5622,-3.5622,-3.5622,-3.5622,-3.5622,-3.5622,-3.5622,-3.5622,-3.581,-3.6182,-3.6182,-3.6498,-3.6921,-3.6374,-3.6416,-3.6786,-3.6921,-3.6999,-3.7058,-3.7542,-3.772,-3.779,-3.83,-3.8465,-3.8496,-3.8676,-3.8707,-3.8578,-3.8065,-3.779,-3.7506,-3.6643,-3.6308,-3.6097,-3.5694,-3.5622,-3.5622,-3.5622,-3.5622,-3.5622,-3.5622,-3.5791,-3.5876,-3.5656,-3.5622,-3.5487,-3.5081,-3.5368,-3.547,-3.5064,-3.5368,-3.5216,-3.4134,-3.4015,-3.4015,-3.4015,-3.3643,-3.4032,-3.552,-3.5233,-3.5301,-3.591,-3.6079,-3.6781,-3.8117,-3.7952,-3.8259,0.0,0.0,0.0,0.0,0.0,0.0,0.0,0.0,0.0,0.0,0.0,0.0,0.0,0.0,0.0,0.0,0.0,0.0,0.0,0.0,0.0,0.0,-3.7785,-3.8765,-3.8852,-3.9161,-3.9223,-3.875,-3.8707,-3.8707,-3.8707,-3.8415,-3.7964,-3.7248,-3.6921,-3.6399,-3.5667,-3.5622,-3.5622,-3.5622,-3.5622,-3.5622,-3.5622,-3.5622,-3.5622,-3.5622,-3.5622,-3.5622,-3.5622,-3.5622,-3.5739,-3.5941,-3.5941,-3.6249,-3.6724,-3.6724,-3.702,-3.7433,0.0,0.0,0.0,0.0,-3.7632,-3.7861,-3.815,-3.8234,-3.83,-3.8596,-3.8707,-3.8707,-3.8707,-3.8707,-3.8627,-3.8332,-3.8065,-3.7755,-3.7193,-3.6724,-3.6291,-3.6028,-3.5783,-3.5622,-3.5622,-3.5622,-3.5622,-3.5622,-3.5622,0.0,-3.5622,-3.5622,-3.5402,-3.4793,-3.5216,-3.5402,-3.4776,-3.5233,-3.5284,-3.4421,-3.4336,-3.4336,-3.4336,-3.3761,0.0,0.0,0.0,-3.4762,-3.5002,-3.5356,0.0,0.0,0.0,-3.8482,-4.0212,-3.936,0.0,0.0,-3.8615,-3.8109,0.0,0.0,0.0,0.0,0.0,0.0,0.0,0.0,0.0,0.0,0.0,0.0,0.0,0.0,0.0,0.0,-3.9377,-4.0266,-3.9735,-3.9358,-3.8999,-3.8719,-3.8707,-3.8707,-3.8707,-3.8707,-3.8318,-3.736,-3.7285,-3.6825,-3.5739,-3.5694,0.0,0.0,0.0,-3.5622,-3.5622,-3.5622,-3.5622,-3.5622,-3.5622,-3.5622,-3.5622,-3.565,-3.5941,-3.6416,-3.6457,-3.6803,-3.7285,-3.7285,-3.7542,-3.7946,-3.7506,-3.7377,-3.7414,-3.7843,-3.83,-3.8707,-3.8707,0.0,0.0,-3.8707,-3.8707,-3.8707,-3.8707,-3.8762,-3.8836,-3.8836,-3.8478,-3.8106,-3.8072,-3.7301,-3.658,-3.6498,-3.6139,-3.5766,-3.5766,-3.5766,-3.5783,-3.5694,-3.5694,-3.565,-3.5622,-3.5622,-3.5182,-3.3863,-3.4776,-3.5148,-3.3829,-3.481,-3.5554,-3.5385,-3.5368,0.0,-3.5368,-3.4167,-3.4032,-3.552,-3.443,-3.4001,-3.4523,-3.4359,-3.5178,-3.7123,-3.7366,-3.9039,-4.2304,-4.3112,-4.3497,-4.3387,-3.8733,-3.7927,0.0,0.0,0.0,0.0,0.0,0.0,0.0,0.0,0.0,0.0,0.0,0.0,0.0,0.0,0.0,-3.795,-3.9229,-4.0139,-4.0022,-3.9462,-3.8999,-3.8719,-3.8707,-3.8707,-3.8707,-3.8707,-3.8433,-3.779,-3.7755,-3.7305,-3.6291,-3.6266,-3.6071,-3.5622,-3.5622,-3.5622,-3.5622,-3.5622,-3.5622,-3.5622,-3.5622,0.0,-3.5622,-3.6054,-3.6308,-3.6416,-3.6843,-3.7323,-3.7755,-3.7755,-3.8065,-3.8546,-3.8451,-3.8401,-3.8433,-3.8515,-3.8627,-3.8707,-3.8707,-3.8707,-3.8707,-3.8707,-3.8707,-3.8707,-3.8707,-3.9148,0.0,-3.9662,-3.958,-3.9414,-3.8954,-3.8258,-3.7488,-3.7135,-3.696,-3.6904,-3.6904,-3.6904,-3.6746,-3.6333,-3.6266,-3.6097,-3.565,-3.5622,-3.552,-3.5233,-3.5436,-3.552,-3.5233,-3.5436,-3.5165,-3.3964,-3.3846,-3.3846,-3.3846,-3.3575,-3.4032,-3.552,-3.5754,-3.6047,-3.6579,-3.6934,-3.7607,-3.8667,-3.975,-4.0954,-4.2304,-4.3112,-4.3497,-4.3479,-4.2472,-4.2289,0.0,0.0,0.0,0.0,0.0,0.0,0.0,0.0,0.0,0.0,0.0,-3.5757,-3.6603,0.0,-3.8277,-3.9104,-3.9852,-4.025,-4.012,-3.9668,-3.9231,-3.8952,-3.8773,-3.8707,-3.8707,-3.8707,-3.8465,-3.7946,-3.7893,-3.7578,-3.6843,-3.6803,-3.6684,-3.6399,-3.6399,-3.6291,-3.6011,-3.6291,-3.6291,-3.6011,-3.6291,-3.6399,-3.6399,-3.6684,-3.6943,-3.7173,-3.7433,-3.7843,-3.83,-3.83,-3.8465,-3.8707,-3.8707,-3.8707,-3.8707,-3.8707,-3.8707,-3.8707,-3.8707,-3.8707,-3.8781,-3.9166,-3.9294,-3.9386,-3.979,-4.0194,-4.0506,-4.0506,-4.0506,-4.0423,-4.0169,-3.9585,-3.9049,-3.8833,-3.8572,-3.8419,-3.8419,-3.8079,-3.7736,-3.7461,-3.7066,-3.6724,-3.644,-3.6399,-3.6207,-3.5694,-3.5622,-3.5622,-3.5622,-3.5622,-3.5334,-3.459,-3.4506,-3.4506,-3.4506,-3.4746,-3.5332,-3.6364,-3.6847,-3.7268,-3.7542,-3.8411,-3.9082,-3.9498,-4.0958,-4.1901,-4.2304,-4.3112,-4.3497,-4.3497,-4.3497,-4.3497,0.0,0.0,0.0,0.0,0.0,0.0,0.0,0.0,-3.4684,-3.6358,-3.6584,-3.6911,-3.8238,-3.8488,-3.8931,-4.0277,-4.0489,-4.0422,-4.0195,-3.984,-3.9505,-3.9212,-3.8913,-3.8707,-3.8707,-3.8707,-3.8515,-3.8099,-3.8065,-3.7843,-3.736,-3.7323,-3.7285,-3.721,-3.719,-3.6981,-3.658,-3.6981,-3.6981,-3.658,-3.6981,-3.719,-3.721,-3.7285,-3.7542,-3.7911,-3.8013,-3.83,-3.8707,-3.8707,-3.8799,-3.8927,-3.8927,-3.9038,-3.9129,-3.8817,-3.8707,-3.8726,-3.8891,-3.8927,-3.9074,-3.9863,-4.012,-4.0249,-4.091,-4.1222,-4.135,-4.135,-4.135,-4.135,-4.135,-4.0899,-4.0473,-4.0473,-4.0165,-3.9902,-3.9902,-3.9381,-3.8843,-3.8569,-3.8018,-3.75,-3.7246,-3.719,-3.6921,-3.6054,-3.581,-3.5739,-3.5739,-3.565,-3.5622,-3.5622,-3.5694,-3.5827,-3.5898,-3.6291,-3.6764,-3.7285,-3.7685,-3.7946,-3.8065,-3.9232,-3.9955,-4.012,-4.1552,-4.2378,-4.2525,-4.3167,-4.3497,-4.3497,-4.3497,-4.3571,-3.0229,-3.1001,-3.3027,-3.5098,-3.5664,-3.6523,0.0,0.0,-3.8284,-3.9901,-4.0162,-4.0138,-4.02,-4.0219,-4.0277,-4.0469,-4.0489,-4.0489,-4.0457,-3.9964,-3.9599,-3.9552,-3.9036,-3.8707,-3.8707,-3.8707,-3.8676,-3.8627,-3.8627,-3.8382,-3.7859,-3.7825,-3.7614,-3.721,-3.719,-3.7173,-3.7097,-3.7173,-3.7173,-3.7097,-3.7173,-3.719,-3.721,-3.7649,-3.7859,-3.7946,-3.8415,-3.8627,-3.8707,-3.8707,-3.9129,-3.9772,-3.9772,-4.0194,-4.0671,-3.9239,-3.8707,-3.8799,-3.9515,-3.9772,-3.99,-4.0708,-4.0983,-4.0983,-4.1075,-4.1607,-4.2176,-4.2176,-4.2176,-4.2176,-4.2176,-4.1592,-4.1027,-4.1027,-4.0961,-4.0909,-4.0909,-4.0836,-4.0443,-3.9246,-3.8959,-3.8528,-3.741,-3.719,-3.7135,-3.702,-3.6603,-3.6291,-3.6291,-3.5898,-3.5622,-3.5622,-3.6028,-3.6481,-3.6981,-3.7076,-3.7323,-3.779,-3.7859,-3.8099,-3.8578,-3.9428,-4.023,-4.0965,-4.1846,-4.2653,-4.3369,-4.3442,-4.3497,-4.3497,-4.3497,-4.3883,-3.3749,-3.3633,-3.4121,-3.6713,-3.7383,-3.7793,-3.9336,-3.9023,-3.8882,-4.0563,-4.0804,-4.0677,-4.0639,-4.0562,-4.0489,-4.0489,-4.0489,-4.0489,-4.0489,-4.0157,-3.9819,-3.9622,-3.9197,-3.8884,-3.8738,-3.8707,-3.8707,-3.8707,-3.8707,-3.8596,-3.8382,-3.8382,-3.8267,-3.8083,-3.805,-3.7929,-3.7614,-3.7929,-3.7929,-3.7614,-3.7929,-3.805,-3.8083,-3.8267,-3.8382,-3.8382,-3.8578,-3.8707,-3.8744,-3.9203,-3.9588,-3.9937,-4.0414,-4.0818,-4.1038,-4.0359,-4.0102,-4.0157,-4.0487,-4.0598,-4.0726,-4.1552,-4.1809,-4.1901,-4.2359,-4.2727,-4.3002,-4.3002,-4.3002,-4.3002,-4.3002,-4.2745,-4.2506,-4.2506,-4.2506,-4.2506,-4.2506,-4.2139,-4.1614,-4.1061,-4.0206,-3.9392,-3.886,-3.8391,-3.805,-3.805,-3.7377,-3.6882,-3.6882,-3.6684,-3.6522,-3.6522,-3.6724,-3.7058,-3.7578,-3.7614,-3.7808,-3.8332,-3.8382,-3.8684,-3.9368,-4.0175,-4.0983,-4.1791,-4.2598,-4.3149,-4.3497,-4.3497,-4.3497,-4.3497,-4.3975,-4.4635,-3.486,-3.4801,-3.4788,-3.7648,-3.8739,-3.9141,-3.9238,-3.9219,-3.9512,-4.0742,-4.0883,-4.0776,-4.0723,-4.062,-4.0543,-4.0508,-4.0489,-4.0489,-4.0489,-4.0286,-4.0002,-3.9775,-3.9438,-3.9117,-3.8844,-3.8732,-3.8707,-3.8707,-3.8707,-3.8707,-3.8707,-3.8707,-3.8707,-3.8707,-3.8707,-3.8496,-3.8132,-3.8515,-3.8515,-3.815,-3.8496,-3.8707,-3.8707,-3.8707,-3.8707,-3.8707,-3.8707,-3.8732,-3.884,-3.946,-4.0018,-4.0552,-4.1163,-4.1662,-4.2051,-4.2051,-4.1654,-4.1148,-4.1368,-4.1442,-4.157,-4.2378,-4.2635,-4.2745,-4.3314,-4.3497,-4.3497,-4.3497,-4.3497,-4.3497,-4.3497,-4.3497,-4.3497,-4.3497,-4.3497,-4.3497,-4.3497,-4.3039,-4.2561,-4.2341,-4.135,-4.0414,-3.9974,-3.9423,-3.8964,-3.8726,-3.8083,-3.756,-3.7396,-3.7285,-3.7248,-3.736,-3.7396,-3.7578,-3.8065,-3.8099,-3.83,-3.8676,-3.8707,-3.9056,-3.9863,-4.0671,-4.1497,-4.2286,-4.3075,-4.3497,-4.3497,-4.3497,-4.3497,-4.3516,-4.4323,-4.5131,-3.0948,-3.2487,-3.3972,-3.7362,-3.9558,-4.0918,-4.0937,-4.1016,-4.1094,-4.1016,-4.0996,-4.0925,-4.0731,-4.0696,-4.0658,-4.0508,-4.0489,-4.0489,-4.0489,-4.0286,-4.0101,-4.0081,-3.9797,-3.9438,-3.9125,-3.8855,-3.8707,-3.8707,-3.8707,-3.8707,-3.8707,-3.8707,-3.8707,-3.8707,-3.8707,-3.8707,-3.8676,-3.8707,-3.8707,-3.8676,-3.8707,-3.8707,-3.8707,-3.8707,-3.8707,-3.8707,-3.8707,-3.8844,-3.9099,-3.9117,-4.0255,-4.2046,-4.2065,-4.3064,-4.4478,-4.4478,-4.3042,-4.1222,-4.1992,-4.2268,-4.2396,-4.3185,-4.3442,-4.3461,-4.3479,-4.3497,-4.3497,-4.3497,-4.3497,-4.3497,-4.3497,-4.3497,-4.3497,-4.3497,-4.3497,-4.3497,-4.3497,-4.3461,-4.3222,-4.2451,-4.2268,-4.1735,-4.0157,-3.9863,-3.9588,-3.8817,-3.8658,-3.8465,-3.7946,-3.747,-3.736,-3.7825,-3.7859,-3.8099,-3.8627,-3.8676,-3.8658,-3.8707,-3.8707,-3.9056,-3.9863,-4.0671,-4.1497,-4.2286,-4.3075,-4.3497,-4.3497,-4.3497,-4.3497,-4.3516,-4.4323,-4.5131,-3.1891,-3.3955,-3.619,-3.9138,-4.032,-4.081,-4.0863,-4.096,-4.1055,-4.1016,-4.0078,-3.9254,-3.9184,-3.906,-3.8962,-3.8904,-3.98,-4.0489,-4.0489,-4.0406,-4.0304,-4.012,-4.0002,-3.9797,-3.9462,-3.9144,-3.8894,-3.8719,-3.8707,-3.8707,-3.8707,-3.9203,-3.9496,-3.9496,-3.9496,-3.9496,-3.9496,-3.8964,-3.8707,-3.8707,-3.8707,-3.8803,-3.8961,-3.8961,-3.9082,-3.932,-3.932,-3.9352,-3.947,-4.0015,-4.0967,-4.2165,-4.2687,-4.3599,-4.458,-4.458,-4.4108,-4.3456,-4.3736,-4.383,-4.3867,-4.4148,-4.4065,-4.3818,-4.3818,-4.3679,-4.3497,-4.3497,-4.3497,-4.3497,-4.3497,-4.3497,-4.3497,-4.3497,-4.3497,-4.3497,-4.3497,-4.3497,-4.3406,-4.3149,-4.2671,-4.2139,-4.1589,-4.0598,-3.9625,-3.8817,-3.8707,-3.8627,-3.8465,-3.8285,-3.8252,-3.8415,-3.8433,-3.8496,-3.8658,-3.8707,-3.8707,-3.8707,-3.9203,-3.9863,-4.0671,-4.1479,-4.2268,-4.3075,-4.3351,-4.3497,-4.3497,-4.3497,-4.3497,-4.3516,-4.4874,-4.5645,-3.3389,-3.5315,-3.7226,-3.9954,-4.0658,-4.0699,-4.0746,-4.0852,-4.0944,-4.0994,-3.9375,-3.7949,-3.7949,-3.7829,-3.7525,-3.6872,-3.8405,-3.9662,-3.9646,-3.9623,-3.9769,-4.0192,-4.0232,-4.012,-3.9797,-3.9576,-3.9352,-3.9036,-3.9008,-3.9008,-3.9008,-3.9509,-3.9787,-3.9787,-3.9787,-3.9787,-3.9787,-3.9268,-3.9008,-3.9008,-3.9008,-3.9109,-3.9264,-3.9264,-3.9389,-3.9599,-3.9599,-3.9668,-3.9813,-4.034,-4.1298,-4.2509,-4.3042,-4.3935,-4.4966,-4.4966,-4.4966,-4.4919,-4.4682,-4.458,-4.458,-4.458,-4.4419,-4.4204,-4.4204,-4.4046,-4.3899,-4.3899,-4.3791,-4.3679,-4.3679,-4.3597,-4.3497,-4.3497,-4.3497,-4.3497,-4.3497,-4.3497,-4.3497,-4.3497,-4.3075,-4.2635,-4.2359,-4.1203,-4.0065,-3.9258,-3.9129,-3.9019,-3.8744,-3.8707,-3.8707,-3.8707,-3.8707,-3.8707,-3.8707,-3.8707,-3.8817,-3.9111,-3.9606,-4.0377,-4.1497,-4.2029,-4.2671,-4.3461,-4.3497,-4.3497,-4.3497,-4.3497,-4.3497,-4.3534,-4.5149,-4.5902,-3.5115,-3.6385,-3.7142,-3.981,-4.0585,-4.0696,-4.0696,-4.0735,-4.0797,-4.0782,-3.875,-3.6934,0.0,0.0,-3.6414,-3.4693,-3.6628,-3.8306,-3.8251,-3.817,-3.8719,-4.0296,-4.0489,-4.0389,-4.0139,-4.012,-4.0002,-3.9668,-3.9622,-3.9599,-3.9599,-3.9637,-3.9656,-3.9656,-3.9656,-3.9656,-3.9656,-3.9618,-3.9599,-3.9599,-3.9599,-3.9599,-3.9622,-3.9622,-3.9622,-3.9645,-3.9645,-3.9819,-4.012,-4.0177,-4.134,-4.3104,-4.3143,-4.4162,-4.5586,-4.5586,-4.5586,-4.5513,-4.4853,-4.4657,-4.4657,-4.4657,-4.4631,-4.465,-4.465,-4.4606,-4.458,-4.458,-4.4337,-4.4028,-4.4028,-4.3804,-4.3548,-4.3513,-4.3513,-4.3513,-4.3479,-4.3497,-4.3497,-4.3497,-4.3497,-4.3222,-4.2433,-4.168,-4.0891,-4.0084,-3.9955,-3.9662,-3.8817,-3.8707,-3.8707,-3.8707,-3.8707,-3.8726,-3.8762,-3.8762,-3.9111,-3.99,-3.9992,-4.0708,-4.2249,-4.2341,-4.2708,-4.3479,-4.3497,-4.3497,-4.3497,-4.3497,-4.3497,-4.3534,-4.5149,-4.5902,-3.562,-3.7508,-3.93,-4.0024,-4.0375,-4.0562,-4.0562,-4.0639,-4.0198,-3.8322,-3.6499,-3.4668,-3.2754,-3.3965,-3.5095,-3.4612,-3.7695,-4.0109,-4.0039,-4.0019,0.0,-4.045,0.0,-4.0473,-4.0406,-4.0389,-4.0372,-4.0266,-3.9863,-3.9599,-3.9599,-4.016,-4.05,-4.05,-4.05,-4.05,-4.05,-3.9901,-3.9599,-3.9599,-3.9599,-3.9731,-3.9982,-3.9982,-4.0062,-4.0266,-4.0266,-4.0319,-4.0447,-4.1099,-4.2055,-4.3162,-4.3758,-4.4643,-4.5586,-4.5586,-4.5586,-4.5568,-4.54,-4.5342,-4.5342,-4.5342,-4.518,-4.4966,-4.4966,-4.48,-4.458,-4.458,-4.4527,-4.4447,-4.4447,-4.4392,-4.4252,-4.3943,-4.3881,-4.3804,-4.3529,-4.3497,-4.3497,-4.3497,-4.3497,-4.3222,-4.2433,-4.2139,-4.1717,-4.0928,-4.0799,-4.0304,-3.8891,-3.8707,-3.8707,-3.8707,-3.8707,-3.8946,-3.9533,-3.9588,-3.9937,-4.0744,-4.1368,-4.1864,-4.2286,-4.2873,-4.3277,-4.3497,-4.3497,-4.3497,-4.3497,-4.3497,-4.3497,-4.3534,-4.5149,-4.5902,-3.7018,-3.8432,-3.9731,-4.0022,-4.0213,-4.0068,-3.9069,-3.8892,-3.8238,-3.5743,-3.3625,-3.182,-3.0487,-3.2305,-3.3809,0.0,0.0,0.0,-3.9704,-3.9661,-3.9884,0.0,-4.06,0.0,-4.0508,-4.0489,-4.0489,-4.0489,-4.0175,-3.9985,-3.9985,-4.0422,-4.0668,-4.0668,-4.0668,-4.0668,-4.0668,-4.0213,-3.9985,-3.9985,-3.9985,-4.0101,-4.0286,-4.0286,-4.0356,-4.0489,-4.0489,-4.0489,-4.0527,-4.1027,-4.197,-4.3143,-4.3605,-4.4509,-4.5586,-4.5586,-4.5586,-4.5586,-4.5586,-4.5586,-4.5586,-4.5586,-4.5457,-4.5322,-4.5322,-4.5201,-4.5033,-4.5033,-4.4943,-4.4825,-4.4825,-4.4707,-4.4553,-4.4318,-4.4261,-4.4223,-4.4035,-4.3992,-4.3931,-4.3758,-4.3597,-4.3351,-4.2892,-4.2818,-4.2543,-4.1754,-4.1644,-4.1185,-3.9918,-3.9753,-3.9753,-3.9753,-3.9753,-3.9955,-4.0396,-4.0432,-4.0781,-4.1589,-4.2047,-4.2451,-4.28,-4.3259,-4.3497,-4.3497,-4.3497,-4.3497,-4.3497,-4.3497,-4.3497,-4.3534,-4.5149,-4.5902,-3.8609,-3.9072,-3.9238,-3.9819,-4.0022,-3.9489,-3.7168,-3.6671,-3.5916,-3.3133,-3.0772,-2.9159,-2.8998,-3.1073,-3.2441,-3.1406,0.0,-3.8437,-3.8711,-3.8682,-3.9168,-4.0554,-4.0708,-4.0658,-4.0543,-4.0508,-4.0489,-4.0489,-4.0489,-4.0489,-4.0489,-4.0489,-4.0489,-4.0489,-4.0489,-4.0489,-4.0489,-4.0489,-4.0489,-4.0489,-4.0489,-4.0489,-4.0489,-4.0489,-4.0489,-4.0489,-4.0489,-4.0489,-4.0508,-4.0623,-4.1623,-4.3104,-4.322,-4.422,-4.5586,-4.5586,-4.5586,-4.5586,-4.5586,-4.5586,-4.5586,-4.5586,-4.5586,-4.5586,-4.5586,-4.5586,-4.5586,-4.5586,-4.54,-4.518,-4.518,-4.4943,-4.4707,-4.4676,-4.4676,-4.4657,-4.4606,-4.458,-4.4501,-4.4146,-4.3836,-4.3631,-4.3582,-4.3582,-4.3309,-4.2561,-4.2451,-4.2213,-4.1515,-4.124,-4.1111,-4.1111,-4.1111,-4.1148,-4.1258,-4.1277,-4.1607,-4.2415,-4.2451,-4.2763,-4.3461,-4.3497,-4.3497,-4.3497,-4.3497,-4.3497,-4.3497,-4.3497,-4.3497,-4.3534,-4.5149,-4.5902,-3.8688,-3.8933,-3.9125,-3.9238,-3.969,-3.9433,-3.6951,-3.6546,0.0,-3.0744,-2.9483,-2.8582,-2.6569,-2.8369,-3.0781,-3.2656,-3.5527,-3.8223,-4.0254,-4.0542,-4.0582,0.0,-4.0726,-4.0696,-4.0677,-4.0581,-4.0489,-4.0489,-4.0489,-4.0489,-4.0489,-4.0489,-4.0489,-4.0489,-4.0489,-4.0489,-4.0489,-4.0489,-4.0489,-4.0489,-4.0489,-4.0489,-4.0489,-4.0489,-4.0489,-4.0489,-4.0489,-4.0489,-4.0546,-4.1277,-4.2181,-4.3162,-4.3835,-4.4701,-4.5586,-4.5586,-4.5586,-4.5586,-4.5586,-4.5586,-4.5586,-4.5586,-4.5586,-4.5586,-4.5586,-4.5586,-4.5586,-4.5586,-4.5568,-4.5513,-4.5513,-4.5457,-4.5362,-4.5074,-4.5011,-4.4943,-4.4657,-4.458,-4.458,-4.4501,-4.4447,-4.4308,-4.3955,-4.3893,-4.3781,-4.3364,-4.3277,-4.3222,-4.3094,-4.1919,-4.1111,-4.1111,-4.1111,-4.1387,-4.2047,-4.2084,-4.2433,-4.3222,-4.3277,-4.3332,-4.3479,-4.3497,-4.3497,-4.3497,-4.3497,-4.3497,-4.3497,-4.3497,-4.3497,-4.3534,-4.5149,-4.5902,-3.8707,-3.8803,-3.8923,-3.9063,-3.9339,-3.8663,-3.5133,0.0,0.0,-2.8137,-2.7149,-2.6811,-2.5659,-2.7646,0.0,-3.1152,-3.4707,-3.7715,-3.8906,-4.0254,-4.1052,-4.0925,-4.0889,-4.082,-4.0761,-4.0696,-4.0639,-4.062,-4.06,-4.0581,-4.0489,-4.0489,-4.0489,-4.0489,-4.0489,-4.0489,-4.0489,-4.0489,-4.0489,-4.0489,-4.0489,-4.0489,-4.0489,-4.0489,-4.0489,-4.0489,-4.0489,-4.0489,-4.0527,-4.095,-4.1643,-4.247,-4.2854,-4.3797,-4.4913,-4.4913,-4.5201,-4.5586,-4.5586,-4.5586,-4.5586,-4.5586,-4.5586,-4.5586,-4.5586,-4.5586,-4.5586,-4.5586,-4.5586,-4.5586,-4.5586,-4.5586,-4.5568,-4.54,-4.5362,-4.5322,-4.5161,-4.4988,-4.4872,-4.4872,-4.4726,-4.4527,-4.4364,-4.4318,-4.4252,-4.4095,-4.3881,-4.374,-4.374,-4.2916,-4.2359,-4.2359,-4.2359,-4.2506,-4.2892,-4.291,-4.3075,-4.3461,-4.3497,-4.3497,-4.3497,-4.3497,-4.3497,-4.3497,-4.3497,-4.3497,-4.3497,-4.3497,-4.3497,-4.3534,-4.5149,-4.5902,-3.8615,-3.8707,-3.8732,-3.8961,-3.9063,-3.7922,-3.3412,-3.2435,0.0,-2.6299,-2.5303,-2.5322,-2.539,-2.7117,-2.8753,0.0,-3.3105,-3.623,-3.7168,-3.9238,-4.0742,-4.1016,-4.1016,0.0,-4.0842,-4.0814,-4.0775,-4.0737,-4.0723,-4.0658,-4.0508,-4.0489,-4.0489,-4.0489,-4.0489,-4.0489,-4.0489,-4.0489,-4.0489,-4.0489,-4.0489,-4.0489,-4.0489,-4.0489,-4.0489,-4.0489,-4.0489,-4.0489,-4.0489,-4.0489,-4.1008,-4.1797,-4.1797,-4.272,-4.4047,-4.4047,-4.4586,-4.5316,-4.5316,-4.5432,-4.5586,-4.5586,-4.5586,-4.5586,-4.5586,-4.5586,-4.5586,-4.5586,-4.5586,-4.5586,-4.5586,-4.5586,-4.5586,-4.5586,-4.5586,-4.5586,-4.5586,-4.54,-4.5201,-4.5201,-4.4988,-4.4781,-4.4707,-4.4726,-4.4682,-4.4606,-4.4318,-4.4117,-4.4117,-4.3899,-4.3744,-4.3744,-4.3597,-4.3497,-4.3497,-4.3497,-4.3497,-4.3497,-4.3497,-4.3497,-4.3497,-4.3497,-4.3497,-4.3497,-4.3497,-4.3497,-4.3497,-4.3497,-4.3497,-4.3534,-4.5149,-4.5902,-3.8303,-3.8707,-3.8707,-3.8719,-3.8923,-3.7846,-3.3114,0.0,-3.1138,-2.6299,-2.5303,-2.5322,-2.539,-2.5601,-2.659,0.0,0.0,-3.2773,-3.6738,-3.8184,-3.9414,-4.0996,0.0,0.0,-4.0988,-4.0866,-4.0807,-4.0788,-4.0784,-4.0716,-4.0508,-4.0489,-4.0489,-4.0489,-4.0489,-4.0489,-4.0489,-4.0489,-4.0489,-4.0489,-4.0489,-4.0489,-4.0489,-4.0489,-4.0489,-4.0489,-4.0489,-4.0489,-4.0489,-4.0489,-4.1008,-4.1797,-4.1797,-4.2374,-4.3201,-4.3201,-4.372,-4.4412,-4.4412,-4.4932,-4.5586,-4.5586,-4.5586,-4.5586,-4.5586,-4.5586,-4.5586,-4.5586,-4.5586,-4.5586,-4.5586,-4.5586,-4.5586,-4.5586,-4.5586,-4.5586,-4.5586,-4.5568,-4.5568,-4.5568,-4.5531,-4.5419,-4.5096,-4.5052,-4.4943,-4.465,-4.4553,-4.4553,-4.4553,-4.4501,-4.4501,-4.4501,-4.3899,-4.3497,-4.3497,-4.3497,-4.3497,-4.3497,-4.3497,-4.3497,-4.3497,-4.3497,-4.3497,-4.3497,-4.3497,-4.3497,-4.3497,-4.3497,-4.3497,-4.3534,-4.5149,-4.5902,-3.812,-3.8707,-3.8707,-3.8707,-3.8055,-3.647,-3.2844,0.0,-2.9731,-2.6047,-2.5303,-2.5303,-2.5322,-2.537,-2.5772,-2.6857,-2.8706,-3.0625,-3.2363,-3.5605,-3.8066,-3.8769,-4.0195,-4.1112,-4.1111,-4.1069,-4.1011,-4.0924,-4.0851,-4.0768,-4.0671,-4.064,-4.062,-4.062,-4.0543,-4.0489,-4.0489,-4.0489,-4.0489,-4.0489,-4.0489,-4.0489,-4.0489,-4.0489,-4.0489,-4.0489,-4.0489,-4.0489,-4.0489,-4.0489,-4.07,-4.1008,-4.1008,-4.1546,-4.2316,-4.2316,-4.2854,-4.3585,-4.3585,-4.4124,-4.4816,-4.4816,-4.5163,-4.5586,-4.5586,-4.5586,-4.5586,-4.5586,-4.5586,-4.5586,-4.5586,-4.5586,-4.5586,-4.5586,-4.5586,-4.5586,-4.5586,-4.5586,-4.5586,-4.5586,-4.5586,-4.5568,-4.5419,-4.54,-4.5362,-4.5222,-4.5033,-4.4896,-4.4896,-4.4707,-4.458,-4.458,-4.4337,-4.4154,-4.4154,-4.4154,-4.4154,-4.4154,-4.4154,-4.4154,-4.4154,-4.4154,-4.4154,-4.4154,-4.3912,-4.3804,-4.3804,-4.3597,-4.3497,-4.3534,-4.5149,-4.5902,-3.7331,-3.834,-3.8707,-3.8707,-3.7312,-3.5247,0.0,0.0,-2.8485,-2.5844,-2.5303,-2.5303,-2.5303,-2.5341,-2.539,-2.5428,-2.7264,-2.8908,-2.9453,-3.293,-3.5586,-3.6094,-3.7773,-3.9199,-3.9961,-4.0742,-4.1169,-4.1071,-4.0965,-4.0918,-4.0918,-4.0843,-4.0775,-4.0735,-4.0639,-4.06,-4.06,-4.06,-4.06,-4.06,-4.06,-4.06,-4.06,-4.06,-4.06,-4.06,-4.06,-4.0581,-4.0562,-4.0562,-4.0543,-4.0489,-4.0489,-4.0873,-4.1412,-4.1412,-4.197,-4.272,-4.272,-4.3258,-4.397,-4.422,-4.472,-4.5259,-4.5509,-4.5586,-4.5586,-4.5586,-4.5586,-4.5586,-4.5586,-4.5586,-4.5586,-4.5586,-4.5586,-4.5586,-4.5586,-4.5586,-4.5586,-4.5586,-4.5586,-4.5586,-4.5586,-4.5586,-4.5586,-4.5586,-4.54,-4.5243,-4.5243,-4.5033,-4.4896,-4.4896,-4.4896,-4.4825,-4.4606,-4.458,-4.458,-4.458,-4.458,-4.458,-4.458,-4.458,-4.458,-4.458,-4.4204,-4.4016,-4.4016,-4.3679,-4.3608,-4.3883,-4.5259,-4.6159,-3.5642,-3.7496,-3.8707,-3.8707,-3.6853,-3.4465,-3.2465,-3.0133,-2.7821,-2.5729,-2.5303,-2.5303,-2.5303,-2.5303,-2.5341,-2.5486,-2.6246,-2.7481,-2.9332,-3.0391,-3.1582,0.0,-3.3457,-3.4492,-3.709,-3.9687,-4.1191,-4.1191,-4.1208,-4.119,-4.119,-4.1073,-4.0946,-4.0808,-4.0793,-4.0793,-4.0793,-4.0793,-4.0793,-4.0793,-4.0793,-4.0793,-4.0793,-4.0793,-4.0793,-4.0793,-4.0793,-4.0754,-4.0696,-4.0696,-4.062,-4.0489,-4.0489,-4.0508,-4.0508,-4.0508,-4.1066,-4.1816,-4.1816,-4.2374,-4.3239,-4.4047,-4.4316,-4.447,-4.5336,-4.5586,-4.5586,-4.5586,-4.5586,-4.5586,-4.5586,-4.5586,-4.5586,-4.5586,-4.5586,-4.5586,-4.5586,-4.5586,-4.5586,-4.5586,-4.5586,-4.5586,-4.5586,-4.5586,-4.5586,-4.5586,-4.5586,-4.5586,-4.5586,-4.5586,-4.5586,-4.5586,-4.5586,-4.5322,-4.4657,-4.458,-4.458,-4.458,-4.458,-4.458,-4.458,-4.458,-4.458,-4.458,-4.4204,-4.4016,-4.4016,-4.3679,-4.3901,-4.4727,-4.5516,-4.6746,-3.2963,-3.3733,-3.3844,-3.4394,-3.2815,-3.0828,-2.9776,-2.8164,-2.6591,-2.5512,-2.5303,-2.5303,-2.5303,-2.5303,-2.5524,-2.6217,-2.6099,-2.634,-2.7582,0.0,0.0,-3.334,-3.6562,-3.9062,-3.9883,-4.0703,-4.1191,-4.1191,-4.1205,-4.1194,-4.1194,-4.1155,-4.1085,-4.0935,-4.0855,-4.08,-4.08,-4.08,-4.08,-4.08,-4.08,-4.08,-4.08,-4.08,-4.08,-4.08,-4.08,-4.078,-4.077,-4.0761,-4.0735,-4.0716,-4.0716,-4.0677,-4.0639,-4.0639,-4.0739,-4.0912,-4.0912,-4.1489,-4.2258,-4.2508,-4.3374,-4.4355,-4.4624,-4.5124,-4.5586,-4.5586,-4.5586,-4.5586,-4.5586,-4.5586,-4.5586,-4.5586,-4.5586,-4.5586,-4.5586,-4.5586,-4.5586,-4.5586,-4.5586,-4.5586,-4.5586,-4.5586,-4.5586,-4.5586,-4.5586,-4.5586,-4.5586,-4.5586,-4.5586,-4.5586,-4.5586,-4.5513,-4.5303,-4.5283,-4.5283,-4.5283,-4.5283,-4.5283,-4.5283,-4.5283,-4.5283,-4.5283,-4.4707,-4.4419,-4.4419,-4.3791,-4.4195,-4.5535,-4.6361,-4.7297,0.0,-3.1329,-3.1538,-3.2109,-3.0539,0.0,-2.855,-2.7077,-2.5652,-2.5349,-2.5303,-2.5303,-2.5303,-2.5303,-2.5505,-2.614,-2.5834,-2.6067,-2.7698,0.0,0.0,-3.3281,-3.7148,-3.9726,-3.9726,-4.0625,-4.1191,-4.1191,-4.1191,-4.1191,-4.1191,-4.1191,-4.1152,-4.1074,-4.0991,-4.0955,-4.0955,-4.0955,-4.0955,-4.0955,-4.0955,-4.0955,-4.0955,-4.0955,-4.0955,-4.0955,-4.0955,-4.0916,0.0,-4.0874,-4.0856,-4.081,-4.081,-4.0759,-4.0726,-4.0703,-4.0658,-4.0581,-4.0508,-4.0854,-4.1354,-4.17,-4.2931,-4.4355,-4.4682,-4.5163,-4.5586,-4.5586,-4.5586,-4.5586,-4.5586,-4.5586,-4.5586,-4.5586,-4.5586,-4.5586,-4.5586,-4.5586,-4.5586,-4.5586,-4.5586,-4.5586,-4.5586,-4.5586,-4.5586,-4.5586,-4.5586,-4.5586,-4.5586,-4.5586,-4.5586,-4.5586,-4.5586,-4.5586,-4.5586,-4.5586,-4.5586,-4.5586,-4.5586,-4.5586,-4.5586,-4.5586,-4.5586,-4.5586,-4.5074,-4.48,-4.48,-4.4649,-4.5049,-4.592,-4.7058,-4.7829,0.0,-2.9848,-3.0986,-3.1214,-2.9576,-2.7979,-2.8351,-2.6675,0.0,-2.5264,-2.5341,-2.536,-2.5303,-2.5341,-2.5447,-2.5563,-2.5543,-2.649,-2.9296,-2.9961,0.0,-3.3398,-3.5996,-3.75,-3.7324,-3.9668,-4.1191,-4.1191,-4.1191,-4.1191,-4.1191,-4.1191,-4.1191,-4.1191,-4.1191,-4.1191,-4.1191,-4.1191,-4.1191,-4.1191,-4.1191,-4.1191,-4.1191,-4.1191,-4.1191,-4.1191,-4.1191,-4.1133,-4.1016,-4.1016,-4.0935,-4.0824,-4.0824,-4.0824,-4.0813,-4.0745,-4.0716,-4.0696,-4.0562,-4.0508,-4.0662,-4.1585,-4.2951,-4.4393,-4.5316,-4.5586,-4.5586,-4.5586,-4.5586,-4.5586,-4.5586,-4.5586,-4.5586,-4.5586,-4.5586,-4.5586,-4.5586,-4.5586,-4.5586,-4.5586,-4.5586,-4.5586,-4.5586,-4.5586,-4.5586,-4.5586,-4.5586,-4.5586,-4.5586,-4.5586,-4.5586,-4.5586,-4.5586,-4.5586,-4.5586,-4.5586,-4.5586,-4.5586,-4.5586,-4.5586,-4.5586,-4.5586,-4.5586,-4.5586,-4.5263,-4.5096,-4.5074,-4.595,-4.6246,-4.5956,-4.7553,-4.8306,-2.721,0.0,-2.6284,-2.6935,-2.6414,-2.5758,0.0,-2.5539,-2.5234,0.0,0.0,0.0,-2.5418,-2.5851,-2.6332,-2.6477,-2.5938,-2.6685,-3.0116,-3.3418,0.0,-3.6309,-3.8691,-3.9492,-3.748,-3.9668,-4.1191,-4.1191,-4.1191,-4.1191,-4.1191,-4.1191,-4.1191,-4.1191,-4.1191,-4.1191,-4.1191,-4.1191,-4.1191,-4.1191,-4.1191,-4.1191,-4.1191,-4.1191,-4.1191,-4.1191,-4.1191,-4.1172,-4.1152,-4.1152,-4.1131,-4.1105,-4.1105,-4.1047,-4.0955,-4.0931,-4.085,-4.0773,-4.0735,-4.0696,-4.0889,-4.2335,-4.3066,-4.3662,-4.5143,-4.5586,-4.5586,-4.5586,-4.5586,-4.5586,-4.5586,-4.5586,-4.5586,-4.5586,-4.5586,-4.5586,-4.5586,-4.5586,-4.5586,-4.5586,-4.5586,-4.5586,-4.5586,-4.5586,-4.5586,-4.5586,-4.5586,-4.5586,-4.5586,-4.5586,-4.5586,-4.5586,-4.5586,-4.5586,-4.5586,-4.5586,-4.5586,-4.5586,-4.5586,-4.5586,-4.5586,-4.5586,-4.5586,-4.5586,-4.5263,-4.4966,-4.4726,-4.5851,-4.6359,-4.6316,-4.7666,-4.8306,-2.6972,-2.6191,-2.5634,-2.6392,-2.6298,-2.6064,-2.6285,0.0,0.0,0.0,0.0,0.0,0.0,0.0,-2.7852,-2.641,-2.7782,-2.9727,-3.1729,-3.3971,-3.587,-3.7109,-3.8496,-3.9297,-3.9101,-4.0371,-4.1191,-4.1191,-4.1191,-4.1191,-4.1191,-4.1191,-4.1191,-4.1191,-4.1191,-4.1191,-4.1191,-4.1191,-4.1191,-4.1191,-4.1191,-4.1191,-4.1191,-4.1191,-4.1191,-4.1191,-4.1191,-4.1191,-4.1191,-4.1191,-4.1191,-4.1191,-4.1191,-4.1152,-4.1073,-4.1013,-4.0956,-4.0885,-4.0827,-4.0764,-4.0966,-4.2585,-4.3104,-4.3412,-4.5086,-4.5586,-4.5586,-4.5586,-4.5586,-4.5586,-4.5586,-4.5586,-4.5586,-4.5586,-4.5586,-4.5586,-4.5586,-4.5586,-4.5586,-4.5586,-4.5586,-4.5586,-4.5586,-4.5586,-4.5586,-4.5586,-4.5586,-4.5586,-4.5586,-4.5586,-4.5586,-4.5586,-4.5586,-4.5586,-4.5586,-4.5586,-4.5586,-4.5586,-4.5586,-4.5586,-4.5586,-4.5586,-4.5586,-4.5586,-4.5419,-4.5161,-4.4825,-4.5707,-4.6209,-4.6411,-4.7316,-4.7957,-2.7548,-2.7399,-2.7472,-2.7528,-2.739,-2.7361,-2.7796,0.0,0.0,0.0,0.0,0.0,0.0,-2.864,0.0,0.0,0.0,-3.3379,-3.3829,-3.4171,-3.5095,-3.6962,-3.7538,-3.8515,-4.0398,-4.0954,-4.1191,-4.1172,-4.1191,-4.1191,-4.1191,-4.1191,-4.1191,-4.1191,-4.1191,-4.1191,-4.1191,-4.1191,-4.1191,-4.1191,-4.1191,-4.1191,-4.1191,-4.1191,-4.1191,-4.1191,-4.1191,-4.1191,-4.1191,-4.1191,-4.1191,-4.1191,-4.1191,-4.1191,-4.1191,-4.1074,-4.1035,-4.102,-4.0883,-4.0789,-4.0966,-4.2447,-4.3008,-4.3393,-4.4932,-4.5509,-4.5624,-4.5605,-4.5586,-4.5586,-4.5586,-4.5586,-4.5586,-4.5586,-4.5586,-4.5586,-4.5586,-4.5586,-4.5586,-4.5586,-4.5586,-4.5586,-4.5586,-4.5586,-4.5586,-4.5586,-4.5586,-4.5586,-4.5586,-4.5586,-4.5586,-4.5586,-4.5586,-4.5586,-4.5586,-4.5586,-4.5586,-4.5586,-4.5586,-4.5586,-4.5586,-4.5586,-4.5586,-4.5586,-4.5586,-4.5457,-4.518,-4.5659,-4.6111,-4.6582,-4.6997,-4.7629,-2.9516,-3.0404,-3.0677,-2.7935,-2.7361,-2.7535,-2.7838,0.0,0.0,0.0,0.0,0.0,0.0,-2.8371,-2.7522,0.0,0.0,-3.4109,-3.6234,-3.8416,-3.9141,-3.7325,-3.9071,-3.9715,-3.7912,-3.9833,-4.1152,-4.1035,-4.1133,-4.1191,-4.1191,-4.1191,-4.1191,-4.1191,-4.1191,-4.1191,-4.1191,-4.1191,-4.1191,-4.1191,-4.1191,-4.1191,-4.1191,-4.1191,-4.1191,-4.1191,-4.1191,-4.1191,-4.1191,-4.1191,-4.1191,-4.1191,-4.1191,-4.1191,-4.1191,-4.1172,-4.1171,-4.1149,-4.1012,-4.0894,-4.0927,-4.1867,-4.2618,-4.3349,-4.4237,-4.5086,-4.5757,-4.5624,-4.5586,-4.5586,-4.5586,-4.5586,-4.5586,-4.5586,-4.5586,-4.5586,-4.5586,-4.5586,-4.5586,-4.5586,-4.5586,-4.5586,-4.5586,-4.5586,-4.5586,-4.5586,-4.5586,-4.5586,-4.5586,-4.5586,-4.5586,-4.5586,-4.5586,-4.5586,-4.5586,-4.5586,-4.5586,-4.5586,-4.5586,-4.5586,-4.5586,-4.5586,-4.5586,-4.5586,-4.5586,-4.5568,-4.5513,-4.6001,-4.662,-4.7346,-4.7517,-4.8036,-2.9984,-3.0411,-3.0729,-3.0238,-3.0883,-3.1675,-3.1949,0.0,0.0,0.0,0.0,0.0,0.0,0.0,-3.1845,-3.4999,-3.4253,-3.4174,-3.6698,-3.6887,-3.6871,-3.7113,-3.8221,-3.9032,-3.9286,-4.0385,-4.1069,-4.0991,-4.1069,-4.1094,-4.1094,-4.1152,-4.1191,-4.1191,-4.1191,-4.1191,-4.1191,-4.1191,-4.1191,-4.1191,-4.1191,-4.1191,-4.1191,-4.1191,-4.1191,-4.1191,-4.1191,-4.1191,-4.1191,-4.1191,-4.1191,-4.1191,-4.1191,-4.1191,-4.1191,-4.1191,-4.1191,-4.1172,-4.1055,-4.0911,-4.0936,-4.1731,-4.2521,-4.3294,-4.4066,-4.4951,-4.568,-4.5605,-4.5586,-4.5586,-4.5586,-4.5586,-4.5586,-4.5586,-4.5586,-4.5586,-4.5586,-4.5586,-4.5586,-4.5586,-4.5586,-4.5586,-4.5586,-4.5586,-4.5586,-4.5586,-4.5586,-4.5586,-4.5586,-4.5586,-4.5586,-4.5586,-4.5586,-4.5586,-4.5586,-4.5586,-4.5586,-4.5586,-4.5586,-4.5586,-4.5586,-4.5586,-4.5586,-4.5586,-4.5586,-4.5586,-4.5586,-4.5625,-4.6294,-4.7491,-4.7151,-4.7671,-3.0089,-3.0274,-3.0804,-3.229,-3.3299,-3.4194,-3.5254,0.0,0.0,0.0,0.0,0.0,0.0,-3.3003,-3.4901,-3.8202,-3.6164,-3.5049,-3.7579,-3.6251,-3.5795,-3.7846,-3.8098,-3.8877,-4.0901,-4.1073,-4.101,-4.0943,-4.096,-4.0999,-4.0996,-4.1094,-4.1172,-4.1191,-4.1191,-4.1191,-4.1191,-4.1191,-4.1191,-4.1191,-4.1191,-4.1191,-4.1191,-4.1191,-4.1191,-4.1191,-4.1191,-4.1191,-4.1191,-4.1191,-4.1191,-4.1191,-4.1191,-4.1191,-4.1191,-4.1191,-4.1191,-4.1191,-4.1074,-4.0945,-4.0896,-4.1517,-4.2233,-4.2986,-4.3778,-4.4643,-4.5391,-4.5547,-4.5586,-4.5586,-4.5586,-4.5586,-4.5586,-4.5586,-4.5586,-4.5586,-4.5586,-4.5586,-4.5586,-4.5586,-4.5586,-4.5586,-4.5586,-4.5586,-4.5586,-4.5586,-4.5586,-4.5586,-4.5586,-4.5586,-4.5586,-4.5586,-4.5586,-4.5586,-4.5586,-4.5586,-4.5586,-4.5586,-4.5586,-4.5586,-4.5586,-4.5586,-4.5586,-4.5586,-4.5586,-4.5586,-4.5586,-4.5342,-4.6042,-4.7624,-4.6967,-4.7517,-3.0367,-3.1501,-3.2712,-3.2827,-3.1613,0.0,-3.4716,-3.4257,0.0,-3.5007,0.0,0.0,0.0,-3.2415,-3.2198,-3.2563,-3.5085,-3.7881,-4.0357,-4.0544,-4.0515,-4.0698,-4.0727,-4.0752,-4.0821,-4.1042,-4.1067,-4.0737,-4.0892,-4.1004,-4.0995,-4.1016,-4.1074,-4.1191,-4.1191,-4.1191,-4.1191,-4.1191,-4.1191,-4.1191,-4.1191,-4.1191,-4.1191,-4.1191,-4.1191,-4.1191,-4.1191,-4.1191,-4.1191,-4.1191,-4.1191,-4.1191,-4.1191,-4.1191,-4.1191,-4.1191,-4.1191,-4.1191,-4.1191,-4.1023,-4.0799,-4.0872,-4.1424,-4.2229,-4.2967,-4.3852,-4.4718,-4.5411,-4.5586,-4.5586,-4.5586,-4.5586,-4.5586,-4.5586,-4.5586,-4.5586,-4.5586,-4.5586,-4.5586,-4.5586,-4.5586,-4.5586,-4.5586,-4.5586,-4.5586,-4.5586,-4.5586,-4.5586,-4.5586,-4.5586,-4.5586,-4.5586,-4.5586,-4.5586,-4.5586,-4.5586,-4.5586,-4.5586,-4.5586,-4.5586,-4.5586,-4.5586,-4.5586,-4.5586,-4.5586,-4.5586,-4.5586,-4.5568,-4.6433,-4.8049,-4.7624,-4.8143,-3.0398,-3.1621,-3.2776,-3.2275,0.0,0.0,0.0,-3.5738,-3.441,-3.3968,-3.3795,0.0,0.0,0.0,-3.5374,-3.3863,-3.6142,-3.8604,-4.0005,-4.027,-4.0521,-4.1056,-4.1123,-4.1106,-4.1049,-4.0986,-4.0898,-4.0759,-4.0789,-4.0808,-4.0811,-4.0925,-4.1016,-4.1074,-4.1152,-4.1191,-4.1191,-4.1191,-4.1191,-4.1191,-4.1191,-4.1191,-4.1191,-4.1191,-4.1191,-4.1191,-4.1191,-4.1191,-4.1191,-4.1191,-4.1191,-4.1191,-4.1191,-4.1191,-4.1191,-4.1191,-4.1191,-4.1191,-4.1191,-4.1023,-4.0799,-4.0795,-4.1293,-4.2024,-4.2854,-4.3701,-4.4564,-4.5355,-4.5586,-4.5586,-4.5586,-4.5586,-4.5586,-4.5586,-4.5586,-4.5586,-4.5586,-4.5586,-4.5586,-4.5586,-4.5586,-4.5586,-4.5586,-4.5586,-4.5586,-4.5586,-4.5586,-4.5586,-4.5586,-4.5586,-4.5586,-4.5586,-4.5586,-4.5586,-4.5586,-4.5586,-4.5586,-4.5586,-4.5586,-4.5586,-4.5586,-4.5586,-4.5586,-4.5586,-4.5586,-4.5586,-4.5586,-4.5586,-4.6451,-4.8087,-4.7462,-4.8029,-3.1198,-3.1833,-3.2583,0.0,0.0,0.0,-3.6622,-3.6084,-3.4661,-3.4526,-3.4122,-3.3217,-3.1322,0.0,-3.6153,-3.4498,-3.6676,-3.8773,-3.9287,-3.9438,-3.9707,-4.0312,-4.0625,-4.0762,-4.0723,-4.0851,-4.0886,-4.078,-4.0745,-4.0716,-4.0696,-4.0857,-4.0968,-4.0996,-4.1133,-4.1191,-4.1191,-4.1191,-4.1191,-4.1191,-4.1191,-4.1191,-4.1191,-4.1191,-4.1191,-4.1191,-4.1191,-4.1191,-4.1191,-4.1191,-4.1191,-4.1191,-4.1191,-4.1191,-4.1191,-4.1191,-4.1191,-4.1191,-4.1191,-4.1041,-4.087,-4.0816,-4.1101,-4.1662,-4.2777,-4.347,-4.4162,-4.5278,-4.5586,-4.5586,-4.5586,-4.5586,-4.5586,-4.5586,-4.5586,-4.5586,-4.5586,-4.5586,-4.5586,-4.5586,-4.5586,-4.5586,-4.5586,-4.5586,-4.5586,-4.5586,-4.5586,-4.5586,-4.5586,-4.5586,-4.5586,-4.5586,-4.5586,-4.5586,-4.5586,-4.5586,-4.5586,-4.5586,-4.5586,-4.5586,-4.5586,-4.5586,-4.5586,-4.5586,-4.5586,-4.5586,-4.5586,-4.5874,-4.6684,-4.7913,-4.768,-4.8192,-3.2872,-3.2314,-3.2333,0.0,0.0,0.0,-3.5718,-3.4718,-3.3872,-3.7276,-3.5257,-3.2673,-3.1934,-3.2574,-3.3264,-3.3366,-3.6313,-3.8574,-3.8594,-3.8594,-3.8594,-3.8594,-3.9375,-3.9844,-3.9707,-4.0605,-4.1066,-4.0737,-4.0754,-4.0773,-4.0696,-4.0754,-4.0856,-4.0996,-4.1133,-4.1191,-4.1191,-4.1191,-4.1191,-4.1191,-4.1191,-4.1191,-4.1191,-4.1191,-4.1191,-4.1191,-4.1191,-4.1191,-4.1191,-4.1191,-4.1191,-4.1191,-4.1191,-4.1191,-4.1191,-4.1191,-4.1191,-4.1191,-4.1191,-4.1113,-4.0988,-4.0834,-4.0754,-4.1004,-4.2604,-4.3104,-4.3451,-4.5124,-4.5586,-4.5586,-4.5586,-4.5586,-4.5586,-4.5586,-4.5586,-4.5586,-4.5586,-4.5586,-4.5586,-4.5586,-4.5586,-4.5586,-4.5586,-4.5586,-4.5586,-4.5586,-4.5586,-4.5586,-4.5586,-4.5586,-4.5586,-4.5586,-4.5586,-4.5586,-4.5586,-4.5586,-4.5586,-4.5586,-4.5586,-4.5586,-4.5586,-4.5586,-4.5586,-4.5586,-4.5586,-4.5586,-4.5586,-4.6471,-4.7106,-4.7533,-4.8391,-4.8832,-3.039,-3.2256,0.0,0.0,0.0,0.0,0.0,-3.4353,0.0,0.0,-3.4058,-3.2064,-3.1904,-3.3639,-3.4544,-3.2837,-3.4938,-3.6992,-3.7598,-3.7695,-3.791,-3.8535,-3.9375,-3.9842,-3.9703,-4.0431,-4.0855,-4.0708,-4.0639,-4.0581,-4.0562,-4.0716,-4.081,-4.0855,-4.1084,-4.1191,-4.1191,-4.1191,-4.1191,-4.1191,-4.1191,-4.1191,-4.1191,-4.1191,-4.1191,-4.1191,-4.1191,-4.1191,-4.1191,-4.1191,-4.1191,-4.1191,-4.1191,-4.1191,-4.1191,-4.1191,-4.1191,-4.1191,-4.1191,-4.1113,-4.0973,-4.0832,-4.0752,-4.1004,-4.2604,-4.3104,-4.3451,-4.5124,-4.5586,-4.5586,-4.5586,-4.5586,-4.5586,-4.5586,-4.5586,-4.5586,-4.5586,-4.5586,-4.5586,-4.5586,-4.5586,-4.5586,-4.5586,-4.5586,-4.5586,-4.5586,-4.5586,-4.5586,-4.5586,-4.5586,-4.5586,-4.5586,-4.5586,-4.5586,-4.5586,-4.5586,-4.5586,-4.5586,-4.5586,-4.5586,-4.5586,-4.5586,-4.5586,-4.5586,-4.5586,-4.5586,-4.5586,-4.6471,-4.7261,-4.7932,-4.8251,-4.8721,-3.241,-3.3776,0.0,0.0,-3.4968,-3.5449,-3.5238,0.0,0.0,0.0,-3.4327,-3.3326,-3.3396,-3.4764,-3.5424,-3.3958,-3.5,-3.6172,-3.6719,-3.6777,-3.6973,-3.75,-3.8596,-3.9274,-3.9196,-4.0166,-4.0776,-4.0712,-4.0639,-4.0562,-4.0489,-4.0696,-4.081,-4.0793,-4.1055,-4.1191,-4.1191,-4.1191,-4.1191,-4.1191,-4.1191,-4.1191,-4.1191,-4.1191,-4.1191,-4.1191,-4.1191,-4.1191,-4.1191,-4.1191,-4.1191,-4.1191,-4.1191,-4.1191,-4.1191,-4.1191,-4.1191,-4.1191,-4.1191,-4.1152,-4.1054,-4.0922,-4.082,-4.1043,-4.2659,-4.3104,-4.3451,-4.5124,-4.5586,-4.5586,-4.5586,-4.5586,-4.5586,-4.5586,-4.5586,-4.5586,-4.5586,-4.5586,-4.5586,-4.5586,-4.5586,-4.5586,-4.5586,-4.5586,-4.5586,-4.5586,-4.5586,-4.5586,-4.5586,-4.5586,-4.5586,-4.5586,-4.5586,-4.5586,-4.5586,-4.5586,-4.5586,-4.5586,-4.5586,-4.5586,-4.5586,-4.5586,-4.5586,-4.5586,-4.5586,-4.5759,-4.6124,-4.6971,-4.7722,-4.839,-4.877,-4.907,-3.6603,0.0,0.0,0.0,-3.7815,0.0,-3.6449,-3.6026,-3.5493,-3.5493,0.0,-3.563,-3.5687,-3.5805,-3.5931,-3.5991,-3.5996,-3.5996,-3.5996,-3.5996,-3.5996,-3.5992,-3.7356,-3.8308,-3.837,-3.9762,-4.0677,-4.0677,-4.0677,-4.0639,-4.0508,-4.0696,-4.081,-4.0793,-4.1055,-4.1191,-4.1191,-4.1191,-4.1191,-4.1191,-4.1191,-4.1191,-4.1191,-4.1191,-4.1191,-4.1191,-4.1191,-4.1191,-4.1191,-4.1191,-4.1191,-4.1191,-4.1191,-4.1191,-4.1191,-4.1191,-4.1191,-4.1191,-4.1191,-4.1191,-4.1172,-4.1034,-4.0909,-4.1089,-4.271,-4.314,-4.3451,-4.5124,-4.5586,-4.5586,-4.5586,-4.5586,-4.5586,-4.5586,-4.5586,-4.5586,-4.5586,-4.5586,-4.5586,-4.5586,-4.5586,-4.5586,-4.5586,-4.5586,-4.5586,-4.5586,-4.5586,-4.5586,-4.5586,-4.5586,-4.5586,-4.5586,-4.5586,-4.5586,-4.5586,-4.5586,-4.5586,-4.5586,-4.5586,-4.5586,-4.5586,-4.5586,-4.5586,-4.5586,-4.5586,-4.6028,-4.6913,-4.7721,-4.8354,-4.8876,-4.9668,-4.9645,-3.3026,-3.5084,0.0,0.0,-3.6507,-3.6334,-3.5872,-3.5608,-3.5493,-3.5493,-3.5603,-3.5688,-3.5706,-3.5856,-3.5982,-3.5996,-3.5996,-3.5996,-3.5996,-3.5996,-3.5974,-3.5921,-3.6826,-3.7637,-3.8127,-3.9104,-3.9927,-4.0504,-4.0543,-4.0543,-4.0489,-4.0696,-4.081,-4.0793,-4.1055,-4.1191,-4.1191,-4.1191,-4.1191,-4.1191,-4.1191,-4.1191,-4.1191,-4.1191,-4.1191,-4.1191,-4.1191,-4.1191,-4.1191,-4.1191,-4.1191,-4.1191,-4.1191,-4.1191,-4.1191,-4.1191,-4.1191,-4.1191,-4.1191,-4.1191,-4.1151,-4.0916,-4.0828,-4.1091,-4.2641,-4.3104,-4.3451,-4.5124,-4.5586,-4.5586,-4.5586,-4.5586,-4.5586,-4.5586,-4.5586,-4.5586,-4.5586,-4.5586,-4.5586,-4.5586,-4.5586,-4.5586,-4.5586,-4.5586,-4.5586,-4.5586,-4.5586,-4.5586,-4.5586,-4.5586,-4.5586,-4.5586,-4.5586,-4.5586,-4.5586,-4.5586,-4.5586,-4.5586,-4.5586,-4.5586,-4.5586,-4.5586,-4.5586,-4.5586,-4.5586,-4.6028,-4.6913,-4.7721,-4.8491,-4.9277,-4.9524,-4.9532,0.0,0.0,0.0,-3.6603,0.0,-3.6488,-3.568,-3.5493,-3.5493,-3.5493,-3.5622,-3.5707,-3.5706,-3.5851,-3.5996,-3.5996,-3.5996,-3.5989,-3.595,-3.595,-3.5927,-3.5814,-3.6884,-3.7752,-3.807,-3.92,-4.01,-4.0469,-4.0489,-4.0489,-4.0489,-4.0696,-4.081,-4.0793,-4.1055,-4.0996,-4.0586,-4.0996,-4.0996,-4.0586,-4.0996,-4.1191,-4.1191,-4.1191,-4.1191,-4.1191,-4.1191,-4.1191,-4.1191,-4.1191,-4.1191,-4.1191,-4.1191,-4.1191,-4.1191,-4.1191,-4.1191,-4.1191,-4.1191,-4.1191,-4.1171,-4.1049,-4.0894,-4.1105,-4.2745,-4.3181,-4.3451,-4.5124,-4.5586,-4.5586,-4.5586,-4.5586,-4.5586,-4.5586,-4.5586,-4.5586,-4.5586,-4.5586,-4.5586,-4.5586,-4.5586,-4.5586,-4.5586,-4.5586,-4.5586,-4.5586,-4.5586,-4.5586,-4.5586,-4.5586,-4.5586,-4.5586,-4.5586,-4.5586,-4.5586,-4.5586,-4.5586,-4.5586,-4.5586,-4.5586,-4.5586,-4.599,-4.622,-4.622,-4.622,-4.6836,-4.8105,-4.8529,-4.9163,-5.0029,-5.0061,-4.9974,0.0,0.0,0.0,-3.718,-3.7142,0.0,-3.5661,-3.5493,-3.5493,-3.5493,-3.5603,-3.5688,-3.5671,-3.5834,-3.5953,-3.5953,-3.5953,-3.5935,-3.5863,-3.5874,-3.5823,-3.5713,-3.6868,-3.7781,-3.805,-3.9296,-4.0181,-4.0469,-4.0489,-4.0489,-4.0489,-4.0543,-4.0578,-4.0599,-4.0652,-4.0369,-3.9687,-4.0371,-4.0449,-3.9902,-4.0781,-4.1191,-4.1191,-4.1191,-4.1191,-4.1191,-4.1191,-4.1191,-4.1191,-4.1191,-4.1191,-4.1191,-4.1191,-4.1191,-4.1191,-4.1191,-4.1191,-4.1191,-4.1191,-4.1191,-4.1191,-4.1172,-4.1007,-4.1133,-4.2829,-4.3239,-4.3451,-4.5124,-4.5586,-4.5586,-4.5586,-4.5586,-4.5586,-4.5586,-4.5586,-4.5586,-4.5586,-4.5586,-4.5586,-4.5586,-4.5586,-4.5586,-4.5586,-4.5586,-4.5586,-4.5586,-4.5586,-4.5586,-4.5586,-4.5586,-4.5586,-4.5586,-4.572,-4.5817,-4.5817,-4.5951,-4.6028,-4.6028,-4.6028,-4.6028,-4.6028,-4.6721,-4.7182,-4.7336,-4.7182,-4.7855,-4.9394,-4.9394,-4.9856,-5.0702,-5.0624,-5.038,0.0,0.0,-3.4622,0.0,-3.6257,-3.5641,0.0,0.0,-3.5493,-3.5493,-3.5565,-3.5612,-3.5621,-3.5689,-3.5741,-3.5741,-3.5741,-3.5743,-3.5733,-3.5731,-3.5694,-3.5631,-3.5803,-3.6488,-3.7873,-3.8219,-3.8931,-4.0392,-4.0489,-4.0489,-4.0489,-3.9927,-3.9651,-3.9754,-3.9065,-3.8725,-3.8769,-3.8769,-3.9141,-3.9902,-4.0781,-4.1191,-4.1191,-4.1191,-4.1191,-4.1191,-4.1191,-4.1191,-4.1191,-4.1191,-4.1191,-4.1191,-4.1191,-4.1191,-4.1191,-4.1191,-4.1191,-4.1191,-4.1191,-4.1191,-4.1172,-4.1055,-4.0914,-4.1102,-4.2729,-4.3159,-4.3451,-4.5124,-4.5586,-4.5586,-4.5586,-4.5586,-4.5586,-4.5586,-4.5586,-4.5586,-4.5586,-4.5586,-4.5586,-4.5586,-4.5586,-4.5586,-4.5586,-4.5586,-4.5586,-4.5586,-4.5586,-4.5586,-4.5586,-4.5586,-4.5586,-4.5586,-4.6278,-4.674,-4.674,-4.7375,-4.7778,-4.7778,-4.7778,-4.7778,-4.7778,-4.7875,-4.8298,-4.9048,-4.8317,-4.8413,-4.9394,-4.9394,-4.9856,-5.0683,-5.0336,-4.9949,-3.1437,-3.2972,-3.4603,0.0,-3.6103,-3.5493,-3.5493,-3.5493,-3.5493,-3.5493,-3.5526,-3.5553,-3.5596,-3.5654,-3.5706,-3.5706,-3.5706,-3.5687,-3.5637,-3.5637,-3.5622,-3.5565,-3.5949,-3.6488,-3.7199,-3.8161,-3.9027,-3.9758,-3.9815,-3.9815,-3.9815,-3.9123,-3.8747,-3.8822,-3.8477,-3.8143,-3.7821,-3.8205,-3.8906,-3.9902,-4.0781,-4.1191,-4.1191,-4.1191,-4.1191,-4.1191,-4.1191,-4.1191,-4.1191,-4.1191,-4.1191,-4.1191,-4.1191,-4.1191,-4.1191,-4.1191,-4.1191,-4.1191,-4.1191,-4.1191,-4.1191,-4.1133,-4.1029,-4.1203,-4.282,-4.3239,-4.3508,-4.5143,-4.5586,-4.5586,-4.5586,-4.5586,-4.5586,-4.5586,-4.5586,-4.5586,-4.5586,-4.5586,-4.5586,-4.5586,-4.5586,-4.5586,-4.5586,-4.5586,-4.5586,-4.5586,-4.5586,-4.5586,-4.5586,-4.5586,-4.5778,-4.6278,-4.6682,-4.7086,-4.7528,-4.7894,-4.8105,-4.8105,-4.8105,-4.8105,-4.8105,-4.8567,-4.9009,-4.9394,-4.9029,-4.926,-5.0125,-5.0125,-5.0317,-5.0702,-5.0523,-5.0336,0.0,0.0,-3.2814,-3.4903,-3.4993,-3.4699,0.0,0.0,-3.5493,-3.5493,-3.5446,-3.5417,-3.5456,-3.5575,-3.5661,-3.5661,-3.5661,-3.5641,-3.5584,-3.5584,-3.5565,-3.5526,-3.6045,-3.6488,-3.668,-3.7873,-3.8719,-3.895,-3.8969,-3.8969,-3.8969,-3.8238,-3.7834,-3.7868,-3.7693,-3.7346,-3.6818,-3.7674,-3.8574,-3.9531,-4.0449,-4.0996,-4.1191,-4.1191,-4.1191,-4.1191,-4.1191,-4.1191,-4.1191,-4.1191,-4.1191,-4.1191,-4.1191,-4.1191,-4.1191,-4.1191,-4.1191,-4.1191,-4.1191,-4.1191,-4.1191,-4.1191,-4.1091,-4.1257,-4.2904,-4.3281,-4.3528,-4.5143,-4.5586,-4.5586,-4.5586,-4.5586,-4.5586,-4.5586,-4.5586,-4.5586,-4.5586,-4.5586,-4.5586,-4.5586,-4.5586,-4.5586,-4.5586,-4.5586,-4.5586,-4.5586,-4.5586,-4.5586,-4.5586,-4.5586,-4.5836,-4.6509,-4.6951,-4.7451,-4.8048,-4.8509,-4.8759,-4.8759,-4.8759,-4.8759,-4.8759,-4.9394,-4.9721,-4.9721,-4.9721,-5.0048,-5.0702,-5.0702,-5.0702,-5.0702,-5.0702,-5.0663,0.0,-2.7112,0.0,-3.1136,-3.1924,0.0,0.0,-3.5493,-3.5493,-3.5493,-3.5304,-3.5122,-3.5141,-3.5339,-3.5526,-3.5526,-3.5526,-3.5526,-3.5526,-3.5526,-3.5493,-3.5493,-3.5545,-3.5872,-3.6642,-3.6776,-3.718,-3.8007,-3.8065,-3.8065,-3.8065,-3.7257,-3.6839,-3.6954,-3.6117,-3.5694,-3.5776,-3.6777,-3.7676,-3.8496,-3.9492,-4.0391,-4.1191,-4.1191,-4.1191,-4.1191,-4.1191,-4.1191,-4.1191,-4.1191,-4.1191,-4.1191,-4.1191,-4.1191,-4.1191,-4.1191,-4.1191,-4.1191,-4.1191,-4.1191,-4.1191,-4.1191,-4.1026,-4.114,-4.2877,-4.3266,-4.3451,-4.5124,-4.5586,-4.5586,-4.5586,-4.5586,-4.5586,-4.5586,-4.5586,-4.5586,-4.5586,-4.5586,-4.5586,-4.5586,-4.5586,-4.5586,-4.5586,-4.5586,-4.5586,-4.5586,-4.5586,-4.5586,-4.5586,-4.5586,-4.5605,-4.5663,-4.7086,-4.8048,-4.8105,-4.9606,-5.0548,-5.0548,-5.0548,-5.0548,-5.0548,-5.0606,-5.0625,-5.0625,-5.0625,-5.0644,-5.0702,-5.0702,-5.0702,-5.0702,-5.0702,-5.0483,0.0,0.0,0.0,-2.8827,-3.0487,-3.1948,-3.2852,-3.4199,-3.5239,-3.5239,-3.5016,-3.4832,-3.4832,-3.4926,-3.4981,-3.4981,-3.4981,-3.4981,-3.4981,-3.4981,-3.5053,-3.5223,-3.5239,-3.5419,-3.5897,-3.6411,-3.6834,-3.7142,-3.718,-3.718,-3.718,-3.6392,-3.5935,-3.5993,-3.5666,-3.5545,-3.5641,-3.6579,-3.752,-3.8418,-3.9336,-4.0273,-4.1191,-4.1191,-4.1191,-4.1191,-4.1191,-4.1191,-4.1191,-4.1191,-4.1191,-4.1191,-4.1191,-4.1191,-4.1191,-4.1191,-4.1191,-4.1191,-4.1191,-4.1191,-4.1191,-4.1191,-4.1147,-4.1343,-4.292,-4.3354,-4.3609,-4.5163,-4.5586,-4.5586,-4.5586,-4.5586,-4.5586,-4.5586,-4.5586,-4.5586,-4.5586,-4.5586,-4.5586,-4.5586,-4.5586,-4.5586,-4.5586,-4.5586,-4.5586,-4.5586,-4.5586,-4.5586,-4.5586,-4.5586,-4.5797,-4.6374,-4.6971,-4.7778,-4.8836,-4.951,-5.0087,-5.0644,-5.0702,-5.0702,-5.0702,-5.0702,-5.0702,-5.0702,-5.0702,-5.0702,-5.0702,-5.0702,-5.0702,-5.0702,-5.0702,-5.0624,-2.5723,0.0,0.0,0.0,-2.8145,-2.9663,-3.1674,-3.3077,-3.419,-3.5051,-3.5016,-3.4812,-3.4733,-3.4612,-3.4572,-3.4674,-3.4694,-3.4694,-3.4694,-3.4694,-3.4773,-3.4944,-3.4963,-3.507,-3.5354,-3.5848,-3.6204,-3.6281,-3.6315,-3.6315,-3.6315,-3.5795,-3.5493,-3.5493,-3.5493,-3.5526,-3.5584,-3.6213,-3.714,-3.8337,-3.8978,-3.9922,-4.1133,-4.1172,-4.1191,-4.1191,-4.1191,-4.1191,-4.1191,-4.1191,-4.1191,-4.1191,-4.1191,-4.1191,-4.1191,-4.1191,-4.1191,-4.1191,-4.1191,-4.1191,-4.1191,-4.1191,-4.1172,-4.1421,-4.2994,-4.3399,-4.3667,-4.524,-4.5624,-4.5586,-4.5586,-4.5586,-4.5586,-4.5586,-4.5586,-4.5586,-4.5586,-4.5586,-4.5586,-4.5586,-4.5586,-4.5586,-4.5586,-4.5586,-4.5586,-4.5586,-4.5586,-4.5586,-4.5586,-4.5586,-4.5817,-4.6394,-4.674,-4.7355,-4.8471,-4.9086,-4.9644,-5.0221,-5.0529,-5.0702,-5.0702,-5.0702,-5.0702,-5.0702,-5.0702,-5.0702,-5.0702,-5.0702,-5.0702,-5.0702,-5.0702,-5.0702,0.0,0.0,0.0,0.0,0.0,-2.5627,-3.1418,-3.2199,-3.2378,-3.4859,-3.5232,-3.4999,-3.4734,-3.4423,-3.4334,-3.4653,-3.4693,-3.4674,-3.4674,-3.4674,-3.4674,-3.4674,-3.4674,-3.4793,-3.507,-3.5105,-3.5207,-3.5479,-3.5493,-3.5493,-3.5493,-3.5493,-3.5493,-3.5493,-3.5493,-3.5493,-3.5493,-3.5565,-3.6469,-3.819,-3.8332,-3.9316,-4.0996,-4.1133,-4.1191,-4.1191,-4.1191,-4.1191,-4.1191,-4.1191,-4.1191,-4.1191,-4.1191,-4.1191,-4.1191,-4.1191,-4.1191,-4.1191,-4.1191,-4.1191,-4.1191,-4.1191,-4.1113,-4.1328,-4.3066,-4.3432,-4.3566,-4.5315,-4.5699,-4.5586,-4.5586,-4.5586,-4.5586,-4.5586,-4.5586,-4.5586,-4.5586,-4.5586,-4.5586,-4.5586,-4.5586,-4.5586,-4.5586,-4.5586,-4.5586,-4.5586,-4.5586,-4.5586,-4.5586,-4.5586,-4.5586,-4.5586,-4.6355,-4.6874,-4.6913,-4.8394,-4.9356,-4.9394,-5.0183,-5.0664,-5.0702,-5.0702,-5.0702,-5.0702,-5.0702,-5.0702,-5.0702,-5.0702,-5.0702,-5.0702,-5.0702,-5.0702,-2.3711,0.0,0.0,0.0,0.0,0.0,-2.6253,-2.9118,-3.1615,-3.2325,-3.3701,-3.4793,-3.4714,-3.4614,-3.4593,-3.4674,-3.433,-3.4055,-3.4055,-3.4055,-3.4136,-3.4311,-3.4334,-3.4467,-3.4774,-3.4981,-3.5122,-3.5207,-3.5383,-3.5493,-3.5493,-3.5493,-3.5493,-3.5493,-3.5493,-3.5493,-3.5493,-3.5526,-3.643,-3.8209,-3.8245,-3.9227,-4.0996,-4.1035,-4.1113,-4.1191,-4.1191,-4.1191,-4.1191,-4.1191,-4.1191,-4.1191,-4.1191,-4.1191,-4.1191,-4.1191,-4.1191,-4.1191,-4.1191,-4.1191,-4.1191,-4.1191,-4.1172,-4.1445,-4.3105,-4.347,-4.3683,-4.5324,-4.5699,-4.5586,-4.5586,-4.5586,-4.5586,-4.5586,-4.5586,-4.5586,-4.5586,-4.5586,-4.5586,-4.5586,-4.5586,-4.5586,-4.5586,-4.5586,-4.5586,-4.5586,-4.5586,-4.5586,-4.5586,-4.5586,-4.5586,-4.5586,-4.5817,-4.6201,-4.6855,-4.7336,-4.8105,-4.9317,-4.9625,-5.0029,-5.0664,-5.0702,-5.0702,-5.0702,-5.0702,-5.0702,-5.0702,-5.0702,-5.0702,-5.0702,-5.0702,-5.0702,0.0,0.0,0.0,-2.1875,0.0,0.0,-2.5808,-2.8228,-3.0567,-3.2666,-3.414,-3.5037,-3.4889,-3.487,-3.4813,-3.4714,-3.4398,-3.4136,-3.3986,-3.3961,-3.3986,-3.4018,-3.4018,-3.4147,-3.4445,-3.4636,-3.4774,-3.4926,-3.5088,-3.5207,-3.5339,-3.532,-3.5383,-3.5493,-3.5493,-3.5493,-3.5493,-3.5493,-3.6372,-3.8118,-3.818,-3.9158,-4.0916,-4.0967,-4.1074,-4.1191,-4.1191,-4.1191,-4.1191,-4.1191,-4.1191,-4.1191,-4.1191,-4.1191,-4.1191,-4.1191,-4.1191,-4.1191,-4.1191,-4.1191,-4.1191,-4.1191,-4.1208,-4.1435,-4.2669,-4.3226,-4.3646,-4.4909,-4.543,-4.5586,-4.5586,-4.5586,-4.5586,-4.5586,-4.5586,-4.5586,-4.5586,-4.5586,-4.5586,-4.5586,-4.5586,-4.5586,-4.5586,-4.5586,-4.5586,-4.5586,-4.5586,-4.5586,-4.5586,-4.5586,-4.5586,-4.5586,-4.5586,-4.5797,-4.6317,-4.6701,-4.7317,-4.8298,-4.9009,-4.9625,-5.0144,-5.051,-5.0702,-5.0702,-5.0702,-5.051,-5.0164,-5.051,-5.0702,-5.0702,-5.0702,-5.0702,0.0,0.0,0.0,-2.3047,-2.1758,0.0,-2.7207,-2.8034,-2.8948,-3.3426,-3.4571,-3.4654,-3.4375,-3.4304,-3.4215,-3.398,-3.4188,-3.4353,-3.4274,-3.4223,-3.4099,-3.3876,-3.3815,-3.3902,-3.4123,-3.4176,-3.4334,-3.4632,-3.4674,-3.4831,-3.5167,-3.5126,-3.5207,-3.5446,-3.5493,-3.5493,-3.5493,-3.5603,-3.643,-3.8007,-3.8219,-3.92,-4.0804,-4.0925,-4.1054,-4.1172,-4.1191,-4.1191,-4.1191,-4.1191,-4.1191,-4.1191,-4.1191,-4.1191,-4.1191,-4.1191,-4.1191,-4.1191,-4.1191,-4.1191,-4.1191,-4.1191,-4.1201,-4.1347,-4.2075,-4.2828,-4.3576,-4.4392,-4.5084,-4.5586,-4.5586,-4.5586,-4.5586,-4.5586,-4.5586,-4.5586,-4.5586,-4.5586,-4.5586,-4.5586,-4.5586,-4.5586,-4.5586,-4.5586,-4.5586,-4.5586,-4.5586,-4.5586,-4.5586,-4.5586,-4.5586,-4.5586,-4.5586,-4.5586,-4.5586,-4.6317,-4.6797,-4.6894,-4.8298,-4.9202,-4.9394,-5.0144,-5.0548,-5.0548,-5.0452,-5.0029,-4.926,-5.0125,-5.0548,-5.0548,-5.0644,-5.0702,-2.488,-2.3634,-2.2879,-2.2225,-2.1289,0.0,-2.2031,-2.373,-2.5327,-2.6305,-2.8083,-2.9464,-2.9389,-2.9339,-2.9283,-2.9243,-3.0962,-3.2844,-3.4372,-3.4379,-3.4176,-3.4123,-3.391,-3.3815,-3.3876,-3.4068,-3.4242,-3.4292,-3.4551,-3.5016,-3.5718,-3.5342,-3.5122,-3.519,-3.5383,-3.5493,-3.5493,-3.6142,-3.6988,-3.8007,-3.8738,-3.9662,-4.0712,-4.08,-4.0914,-4.1055,-4.1152,-4.1191,-4.1191,-4.1191,-4.1191,-4.1191,-4.1191,-4.1191,-4.1191,-4.1191,-4.1191,-4.1191,-4.1191,-4.1191,-4.1191,-4.1191,-4.1201,-4.1347,-4.2075,-4.2834,-4.3678,-4.5004,-4.549,-4.5586,-4.5586,-4.5586,-4.5586,-4.5586,-4.5586,-4.5586,-4.5586,-4.5586,-4.5586,-4.5586,-4.5586,-4.5586,-4.5586,-4.5586,-4.5586,-4.5586,-4.5586,-4.5586,-4.5586,-4.5586,-4.5586,-4.5586,-4.5586,-4.5586,-4.5586,-4.5759,-4.6144,-4.6855,-4.7221,-4.799,-4.9336,-4.9548,-4.9644,-4.9644,-4.8952,-4.8529,-4.8355,-4.9221,-4.9644,-4.9663,-5.0356,-5.0702,-2.538,-2.4191,-2.3353,-2.2585,-2.1737,0.0,0.0,-2.3434,-2.4707,-2.5931,-2.7214,-2.809,-2.802,-2.7972,-2.7952,-2.7945,-3.0052,-3.1616,-3.1359,-3.3242,-3.4553,-3.4223,-3.4093,-3.3935,-3.3815,-3.391,-3.4178,-3.4559,-3.5163,-3.572,-3.6255,-3.6039,-3.596,-3.6102,-3.636,-3.6495,-3.6495,-3.7064,-3.7796,-3.8642,-3.9084,-3.9792,-4.0696,-4.0765,-4.0875,-4.1016,-4.1133,-4.1191,-4.1191,-4.1191,-4.1191,-4.1191,-4.1191,-4.1191,-4.1191,-4.1191,-4.1191,-4.1191,-4.1191,-4.1191,-4.1191,-4.1191,-4.1198,-4.1238,-4.147,-4.2348,-4.3566,-4.5163,-4.5586,-4.5586,-4.5586,-4.5586,-4.5586,-4.5586,-4.5586,-4.5586,-4.5586,-4.5586,-4.5586,-4.5586,-4.5586,-4.5586,-4.5586,-4.5586,-4.5586,-4.5586,-4.5586,-4.5586,-4.5586,-4.5586,-4.5586,-4.5586,-4.5586,-4.5586,-4.5586,-4.5586,-4.5778,-4.622,-4.6663,-4.7278,-4.8125,-4.8548,-4.8759,-4.8759,-4.7932,-4.7509,-4.7509,-4.7952,-4.8355,-4.8779,-4.9644,-5.0048,-2.5736,-2.4639,-2.3967,-2.3347,-2.2443,-2.2046,0.0,0.0,0.0,-2.6206,-2.666,-2.6679,-2.6573,-2.6543,-2.6547,-2.6554,-2.8645,-2.9541,-2.7478,-3.0953,-3.3498,-3.2959,-3.3668,-3.3913,-3.3206,-3.3264,-3.388,-3.5137,-3.5459,-3.5938,-3.6801,-3.6749,-3.6789,-3.7009,-3.7336,-3.7508,-3.7508,-3.7996,-3.8604,-3.9296,-3.945,-3.9946,-4.0658,-4.0754,-4.0858,-4.0972,-4.1132,-4.1191,-4.1191,-4.1191,-4.1191,-4.1191,-4.1191,-4.1191,-4.1191,-4.1191,-4.1191,-4.1191,-4.1191,-4.1191,-4.1191,-4.1197,-4.1164,-4.1104,-4.1053,-4.199,-4.3412,-4.4932,-4.547,-4.5586,-4.5586,-4.5586,-4.5586,-4.5586,-4.5586,-4.5586,-4.5586,-4.5586,-4.5586,-4.5586,-4.5586,-4.5586,-4.5586,-4.5586,-4.5586,-4.5586,-4.5586,-4.5586,-4.5586,-4.5586,-4.5586,-4.5586,-4.5586,-4.5586,-4.5586,-4.5586,-4.5586,-4.5586,-4.6259,-4.6721,-4.6894,-4.7528,-4.7875,-4.7875,-4.7067,-4.6644,-4.6644,-4.6644,-4.7067,-4.7894,-4.8759,-4.924,-2.5322,-2.4187,-2.4082,-2.3996,-2.2772,-2.169,-2.1949,0.0,-2.094,-2.1223,0.0,-2.1294,-2.1347,0.0,0.0,-2.135,-2.3427,-2.4956,-2.4657,-2.7003,-2.8603,-2.8293,-3.1784,-3.3315,-3.1006,-3.1323,-3.2908,-3.5936,-3.4211,-3.4311,-3.7243,-3.6978,-3.6708,-3.6758,-3.7255,-3.7508,-3.7508,-3.8591,-3.92,-3.9296,-4.0008,-4.0412,-4.0543,-4.0716,-4.0822,-4.0844,-4.1084,-4.1191,-4.1191,-4.1191,-4.1191,-4.1191,-4.1191,-4.1191,-4.1191,-4.1191,-4.1191,-4.1191,-4.1191,-4.1191,-4.1205,-4.1186,-4.1039,-4.0974,-4.1652,-4.2444,-4.3297,-4.4182,-4.4989,-4.5586,-4.5586,-4.5586,-4.5586,-4.5586,-4.5586,-4.5586,-4.5586,-4.5586,-4.5586,-4.5586,-4.5586,-4.5586,-4.5586,-4.5586,-4.5586,-4.5586,-4.5586,-4.5586,-4.5586,-4.5586,-4.5586,-4.5586,-4.5586,-4.5586,-4.5586,-4.5586,-4.5586,-4.5586,-4.5682,-4.6086,-4.6874,-4.699,-4.7048,-4.7048,-4.6182,-4.574,-4.574,-4.574,-4.6182,-4.7067,-4.7875,-4.8663,-2.4082,-2.4409,-2.5063,-2.3083,-2.3178,-2.3244,-2.1328,-2.0608,-2.0335,-2.0334,0.0,0.0,0.0,0.0,0.0,0.0,-2.259,-2.3699,-2.2268,-2.5456,-2.7845,-2.7529,-2.9166,-3.0415,-3.0673,-3.2548,-3.4624,-3.6621,-3.6099,-3.6575,-3.86,-3.8527,-3.837,-3.837,-3.8797,-3.9014,-3.9014,-3.9665,-3.9988,-3.9988,-4.0335,-4.0489,-4.0508,-4.0716,-4.0797,-4.0809,-4.108,-4.1191,-4.1191,-4.1191,-4.1191,-4.1191,-4.1191,-4.1191,-4.1191,-4.1191,-4.1191,-4.1191,-4.1191,-4.1191,-4.1183,-4.1105,-4.0968,-4.0952,-4.1748,-4.2527,-4.3278,-4.4066,-4.4932,-4.5586,-4.5586,-4.5586,-4.5586,-4.5586,-4.5586,-4.5586,-4.5586,-4.5586,-4.5586,-4.5586,-4.5586,-4.5586,-4.5586,-4.5586,-4.5586,-4.5586,-4.5586,-4.5586,-4.5586,-4.5586,-4.5586,-4.5586,-4.5586,-4.5586,-4.5586,-4.5586,-4.5586,-4.5586,-4.5586,-4.5759,-4.6124,-4.6144,-4.6144,-4.6144,-4.5778,-4.5586,-4.5586,-4.5586,-4.5778,-4.6163,-4.7009,-4.7855,-2.4197,-2.5005,-2.5832,-2.2658,-2.3081,-2.3611,-2.1177,-2.0465,-2.0312,-2.0312,-2.035,0.0,0.0,0.0,-2.039,-2.0458,0.0,-2.2567,-2.0755,-2.3631,-2.584,-2.555,-2.6079,-2.7346,-2.9625,-3.2098,-3.4158,-3.5614,-3.6531,-3.7671,-3.9161,-3.9467,-3.9599,-3.9599,-3.9922,-4.0101,-4.0101,-4.0372,-4.0489,-4.0489,-4.0543,-4.0562,-4.0562,-4.0754,-4.0841,-4.0878,-4.1091,-4.1191,-4.1191,-4.1191,-4.1191,-4.1191,-4.1191,-4.1191,-4.1191,-4.1191,-4.1191,-4.1191,-4.1191,-4.1182,-4.112,-4.0998,-4.0863,-4.087,-4.1412,-4.2297,-4.322,-4.3816,-4.4759,-4.5586,-4.5586,-4.5586,-4.5586,-4.5586,-4.5586,-4.5586,-4.5586,-4.5586,-4.5586,-4.5586,-4.5586,-4.5586,-4.5586,-4.5586,-4.5586,-4.5586,-4.5586,-4.5586,-4.5586,-4.5586,-4.5586,-4.5586,-4.5586,-4.5586,-4.5586,-4.5586,-4.5586,-4.5586,-4.5586,-4.5586,-4.5586,-4.5586,-4.5586,-4.5586,-4.5586,-4.5586,-4.5586,-4.5586,-4.5586,-4.5605,-4.624,-4.7105,-2.6572,-2.5909,-2.5986,-2.3389,-2.2197,-2.16,-2.1485,-2.0869,-2.0312,-2.0312,-2.0312,-2.0312,-2.0312,-2.0292,-2.0319,-2.0385,-2.0513,0.0,0.0,-2.0639,-2.0685,-2.0554,-2.2473,-2.4714,-2.7,-2.8064,-2.9642,-3.2088,-3.3844,-3.5847,-3.8218,-3.9146,-3.9599,-3.9599,-3.9922,-4.0101,-4.0101,-4.0372,-4.0489,-4.0489,-4.0639,-4.0696,-4.0696,-4.0889,-4.1001,-4.0988,-4.1139,-4.1191,-4.1191,-4.1191,-4.1191,-4.1191,-4.1191,-4.1191,-4.1191,-4.1191,-4.1191,-4.1191,-4.1191,-4.1117,-4.0993,-4.0859,-4.0754,-4.0677,-4.0581,-4.1739,-4.3104,-4.3124,-4.4335,-4.5586,-4.5586,-4.5586,-4.5586,-4.5586,-4.5586,-4.5586,-4.5586,-4.5586,-4.5586,-4.5586,-4.5586,-4.5586,-4.5586,-4.5586,-4.5586,-4.5586,-4.5586,-4.5586,-4.5586,-4.5586,-4.5586,-4.5586,-4.5586,-4.5586,-4.5586,-4.5586,-4.5586,-4.5586,-4.5586,-4.5586,-4.5586,-4.5586,-4.5586,-4.5586,-4.5586,-4.5586,-4.5586,-4.5586,-4.5586,-4.5586,-4.5624,-4.6509,-2.7486,-2.8467,-2.8967,-2.4726,-2.4697,-2.4851,-2.1466,-2.0504,-2.0312,-2.0312,-2.0312,-2.0312,-2.0312,-2.0312,-2.0312,-2.0331,-2.036,-2.0409,0.0,-2.0494,-2.0488,-2.0438,-2.2515,-2.4264,-2.5037,-2.827,-3.0947,-3.2516,-3.5126,-3.7298,-3.8875,-3.9753,-4.0193,-4.0193,-4.0302,-4.0356,-4.0356,-4.0457,-4.0543,-4.0639,-4.0677,-4.0731,-4.077,-4.093,-4.0985,-4.1012,-4.1139,-4.1191,-4.1191,-4.1191,-4.1191,-4.1191,-4.1191,-4.1191,-4.1191,-4.1191,-4.1191,-4.1191,-4.1191,-4.111,-4.0977,-4.0841,-4.0742,-4.0677,-4.0543,-4.172,-4.3104,-4.3104,-4.4297,-4.5586,-4.5586,-4.5586,-4.5586,-4.5586,-4.5586,-4.5586,-4.5586,-4.5586,-4.5586,-4.5586,-4.5586,-4.5586,-4.5586,-4.5586,-4.5586,-4.5586,-4.5586,-4.5586,-4.5586,-4.5586,-4.5586,-4.5586,-4.5586,-4.5586,-4.5586,-4.5586,-4.5586,-4.5586,-4.5586,-4.5586,-4.5586,-4.5586,-4.5586,-4.5586,-4.5586,-4.5874,-4.6471,-4.6471,-4.674,-4.7259,-4.7259,-4.7567,-2.9506,-3.0448,-3.0698,-2.6496,-2.6688,-2.6794,-2.2601,-2.1658,-2.1658,-2.1658,-2.0927,-2.085,-2.2677,-2.1523,-2.06,-2.1504,-2.0889,-2.034,0.0,-2.0508,-2.0519,-2.0536,-2.1867,-2.3146,-2.4076,-2.6943,-2.9794,-3.2314,-3.4913,-3.7118,-3.8757,-3.9892,-4.0489,-4.0489,-4.0489,-4.0489,-4.0489,-4.0489,-4.0581,-4.0696,-4.0712,-4.0788,-4.0886,-4.1004,-4.1072,-4.1073,-4.115,-4.1191,-4.1191,-4.1191,-4.1191,-4.1191,-4.1191,-4.1191,-4.1191,-4.1191,-4.1191,-4.119,-4.1144,-4.1041,-4.0907,-4.08,-4.0696,-4.062,-4.0543,-4.1489,-4.2701,-4.3008,-4.4085,-4.5201,-4.5509,-4.5586,-4.5586,-4.5586,-4.5586,-4.5586,-4.5586,-4.5586,-4.5586,-4.5586,-4.5586,-4.5586,-4.5586,-4.5586,-4.5586,-4.5586,-4.5586,-4.5586,-4.5586,-4.5586,-4.5586,-4.5586,-4.5586,-4.5586,-4.5586,-4.5586,-4.5586,-4.5586,-4.5586,-4.574,-4.6047,-4.6067,-4.6201,-4.6471,-4.649,-4.6778,-4.7336,-4.7336,-4.7586,-4.8105,-4.8413,-4.8567]}]]